<?xml version="1.0" encoding="UTF-8" standalone="no" ?>
<gpx xmlns="http://www.topografix.com/GPX/1/1" xmlns:xsi="http://www.w3.org/2001/XMLSchema-instance" xsi:schemaLocation="http://www.topografix.com/GPX/1/1 http://www.topografix.com/GPX/1/1/gpx.xsd" version="1.1" creator="VisuGPX - https://www.visugpx.com">
  <metadata>
    <name>autour de pompey 35km</name>
  </metadata>
  <trk>
    <name><![CDATA[autour de pompey 35km]]></name>
    <extensions>
      <line xmlns="http://www.topografix.com/GPX/gpx_style/0/2">
        <color>0000FF</color>
        <width>4</width>
      </line>
    </extensions>
    <trkseg>
      <trkpt lat="48.7923" lon="6.1661">
        <ele>211.63</ele>
        <time>2020-08-19T12:17:49Z</time>
      </trkpt>
      <trkpt lat="48.79229" lon="6.16606">
        <ele>212.11</ele>
        <time>2020-08-19T12:18:13Z</time>
      </trkpt>
      <trkpt lat="48.79228" lon="6.16606">
        <ele>211.15</ele>
        <time>2020-08-19T12:18:39Z</time>
      </trkpt>
      <trkpt lat="48.79229" lon="6.16605">
        <ele>211.15</ele>
        <time>2020-08-19T12:18:40Z</time>
      </trkpt>
      <trkpt lat="48.79239" lon="6.1655">
        <ele>211.63</ele>
        <time>2020-08-19T12:18:51Z</time>
      </trkpt>
      <trkpt lat="48.79252" lon="6.16464">
        <ele>211.15</ele>
        <time>2020-08-19T12:19:07Z</time>
      </trkpt>
      <trkpt lat="48.79264" lon="6.16386">
        <ele>210.67</ele>
        <time>2020-08-19T12:19:19Z</time>
      </trkpt>
      <trkpt lat="48.7927" lon="6.1634">
        <ele>209.7</ele>
        <time>2020-08-19T12:19:26Z</time>
      </trkpt>
      <trkpt lat="48.7927" lon="6.16327">
        <ele>210.19</ele>
        <time>2020-08-19T12:19:29Z</time>
      </trkpt>
      <trkpt lat="48.79273" lon="6.16305">
        <ele>211.63</ele>
        <time>2020-08-19T12:19:39Z</time>
      </trkpt>
      <trkpt lat="48.79273" lon="6.16302">
        <ele>211.63</ele>
        <time>2020-08-19T12:19:40Z</time>
      </trkpt>
      <trkpt lat="48.79274" lon="6.16299">
        <ele>212.11</ele>
        <time>2020-08-19T12:19:41Z</time>
      </trkpt>
      <trkpt lat="48.79275" lon="6.16296">
        <ele>212.11</ele>
        <time>2020-08-19T12:19:42Z</time>
      </trkpt>
      <trkpt lat="48.79276" lon="6.16291">
        <ele>212.59</ele>
        <time>2020-08-19T12:19:43Z</time>
      </trkpt>
      <trkpt lat="48.79277" lon="6.16285">
        <ele>212.59</ele>
        <time>2020-08-19T12:19:44Z</time>
      </trkpt>
      <trkpt lat="48.79278" lon="6.16279">
        <ele>213.07</ele>
        <time>2020-08-19T12:19:45Z</time>
      </trkpt>
      <trkpt lat="48.79292" lon="6.16183">
        <ele>213.07</ele>
        <time>2020-08-19T12:19:59Z</time>
      </trkpt>
      <trkpt lat="48.79298" lon="6.16148">
        <ele>213.55</ele>
        <time>2020-08-19T12:20:04Z</time>
      </trkpt>
      <trkpt lat="48.79299" lon="6.16142">
        <ele>213.55</ele>
        <time>2020-08-19T12:20:05Z</time>
      </trkpt>
      <trkpt lat="48.79303" lon="6.16124">
        <ele>213.55</ele>
        <time>2020-08-19T12:20:09Z</time>
      </trkpt>
      <trkpt lat="48.79302" lon="6.1612">
        <ele>213.55</ele>
        <time>2020-08-19T12:20:10Z</time>
      </trkpt>
      <trkpt lat="48.79302" lon="6.16116">
        <ele>213.55</ele>
        <time>2020-08-19T12:20:11Z</time>
      </trkpt>
      <trkpt lat="48.79307" lon="6.1604">
        <ele>212.59</ele>
        <time>2020-08-19T12:20:22Z</time>
      </trkpt>
      <trkpt lat="48.79305" lon="6.159">
        <ele>211.15</ele>
        <time>2020-08-19T12:20:40Z</time>
      </trkpt>
      <trkpt lat="48.79291" lon="6.15772">
        <ele>208.74</ele>
        <time>2020-08-19T12:20:56Z</time>
      </trkpt>
      <trkpt lat="48.79288" lon="6.15749">
        <ele>208.74</ele>
        <time>2020-08-19T12:20:59Z</time>
      </trkpt>
      <trkpt lat="48.79274" lon="6.15633">
        <ele>209.22</ele>
        <time>2020-08-19T12:21:13Z</time>
      </trkpt>
      <trkpt lat="48.79264" lon="6.15517">
        <ele>208.74</ele>
        <time>2020-08-19T12:21:26Z</time>
      </trkpt>
      <trkpt lat="48.79264" lon="6.15508">
        <ele>208.74</ele>
        <time>2020-08-19T12:21:27Z</time>
      </trkpt>
      <trkpt lat="48.79265" lon="6.15355">
        <ele>207.3</ele>
        <time>2020-08-19T12:21:44Z</time>
      </trkpt>
      <trkpt lat="48.79266" lon="6.15214">
        <ele>204.9</ele>
        <time>2020-08-19T12:22:00Z</time>
      </trkpt>
      <trkpt lat="48.79267" lon="6.15084">
        <ele>202.49</ele>
        <time>2020-08-19T12:22:14Z</time>
      </trkpt>
      <trkpt lat="48.79262" lon="6.15025">
        <ele>201.05</ele>
        <time>2020-08-19T12:22:20Z</time>
      </trkpt>
      <trkpt lat="48.79261" lon="6.15016">
        <ele>201.05</ele>
        <time>2020-08-19T12:22:21Z</time>
      </trkpt>
      <trkpt lat="48.79256" lon="6.14968">
        <ele>199.61</ele>
        <time>2020-08-19T12:22:26Z</time>
      </trkpt>
      <trkpt lat="48.79234" lon="6.14856">
        <ele>196.25</ele>
        <time>2020-08-19T12:22:38Z</time>
      </trkpt>
      <trkpt lat="48.79204" lon="6.14773">
        <ele>194.8</ele>
        <time>2020-08-19T12:22:48Z</time>
      </trkpt>
      <trkpt lat="48.79158" lon="6.1468">
        <ele>195.77</ele>
        <time>2020-08-19T12:23:01Z</time>
      </trkpt>
      <trkpt lat="48.79151" lon="6.14668">
        <ele>196.25</ele>
        <time>2020-08-19T12:23:03Z</time>
      </trkpt>
      <trkpt lat="48.79149" lon="6.14661">
        <ele>196.25</ele>
        <time>2020-08-19T12:23:04Z</time>
      </trkpt>
      <trkpt lat="48.79148" lon="6.14656">
        <ele>196.73</ele>
        <time>2020-08-19T12:23:05Z</time>
      </trkpt>
      <trkpt lat="48.79147" lon="6.1465">
        <ele>197.21</ele>
        <time>2020-08-19T12:23:06Z</time>
      </trkpt>
      <trkpt lat="48.79144" lon="6.14645">
        <ele>197.69</ele>
        <time>2020-08-19T12:23:07Z</time>
      </trkpt>
      <trkpt lat="48.79139" lon="6.14639">
        <ele>198.17</ele>
        <time>2020-08-19T12:23:08Z</time>
      </trkpt>
      <trkpt lat="48.79134" lon="6.14634">
        <ele>198.17</ele>
        <time>2020-08-19T12:23:09Z</time>
      </trkpt>
      <trkpt lat="48.79115" lon="6.14611">
        <ele>198.17</ele>
        <time>2020-08-19T12:23:13Z</time>
      </trkpt>
      <trkpt lat="48.7911" lon="6.14604">
        <ele>198.17</ele>
        <time>2020-08-19T12:23:14Z</time>
      </trkpt>
      <trkpt lat="48.79106" lon="6.14595">
        <ele>198.17</ele>
        <time>2020-08-19T12:23:15Z</time>
      </trkpt>
      <trkpt lat="48.79052" lon="6.14492">
        <ele>199.13</ele>
        <time>2020-08-19T12:23:29Z</time>
      </trkpt>
      <trkpt lat="48.7898" lon="6.14387">
        <ele>198.65</ele>
        <time>2020-08-19T12:23:46Z</time>
      </trkpt>
      <trkpt lat="48.78978" lon="6.14379">
        <ele>198.65</ele>
        <time>2020-08-19T12:23:47Z</time>
      </trkpt>
      <trkpt lat="48.78977" lon="6.1437">
        <ele>198.17</ele>
        <time>2020-08-19T12:23:48Z</time>
      </trkpt>
      <trkpt lat="48.78977" lon="6.14362">
        <ele>198.17</ele>
        <time>2020-08-19T12:23:49Z</time>
      </trkpt>
      <trkpt lat="48.78977" lon="6.14354">
        <ele>197.69</ele>
        <time>2020-08-19T12:23:50Z</time>
      </trkpt>
      <trkpt lat="48.78981" lon="6.14335">
        <ele>197.69</ele>
        <time>2020-08-19T12:23:57Z</time>
      </trkpt>
      <trkpt lat="48.78982" lon="6.14331">
        <ele>197.69</ele>
        <time>2020-08-19T12:23:58Z</time>
      </trkpt>
      <trkpt lat="48.78981" lon="6.14324">
        <ele>197.21</ele>
        <time>2020-08-19T12:23:59Z</time>
      </trkpt>
      <trkpt lat="48.7898" lon="6.14316">
        <ele>196.73</ele>
        <time>2020-08-19T12:24:00Z</time>
      </trkpt>
      <trkpt lat="48.78981" lon="6.14306">
        <ele>196.25</ele>
        <time>2020-08-19T12:24:01Z</time>
      </trkpt>
      <trkpt lat="48.78985" lon="6.1427">
        <ele>194.8</ele>
        <time>2020-08-19T12:24:05Z</time>
      </trkpt>
      <trkpt lat="48.78983" lon="6.14262">
        <ele>194.8</ele>
        <time>2020-08-19T12:24:06Z</time>
      </trkpt>
      <trkpt lat="48.78981" lon="6.14254">
        <ele>194.8</ele>
        <time>2020-08-19T12:24:07Z</time>
      </trkpt>
      <trkpt lat="48.78978" lon="6.14247">
        <ele>195.28</ele>
        <time>2020-08-19T12:24:08Z</time>
      </trkpt>
      <trkpt lat="48.78933" lon="6.14129">
        <ele>196.25</ele>
        <time>2020-08-19T12:24:25Z</time>
      </trkpt>
      <trkpt lat="48.78867" lon="6.13977">
        <ele>194.8</ele>
        <time>2020-08-19T12:24:48Z</time>
      </trkpt>
      <trkpt lat="48.78819" lon="6.13885">
        <ele>193.84</ele>
        <time>2020-08-19T12:25:04Z</time>
      </trkpt>
      <trkpt lat="48.78816" lon="6.13881">
        <ele>193.84</ele>
        <time>2020-08-19T12:25:05Z</time>
      </trkpt>
      <trkpt lat="48.78816" lon="6.13877">
        <ele>193.84</ele>
        <time>2020-08-19T12:25:06Z</time>
      </trkpt>
      <trkpt lat="48.78816" lon="6.13872">
        <ele>193.84</ele>
        <time>2020-08-19T12:25:07Z</time>
      </trkpt>
      <trkpt lat="48.78817" lon="6.13867">
        <ele>193.84</ele>
        <time>2020-08-19T12:25:08Z</time>
      </trkpt>
      <trkpt lat="48.78818" lon="6.13861">
        <ele>193.84</ele>
        <time>2020-08-19T12:25:09Z</time>
      </trkpt>
      <trkpt lat="48.78818" lon="6.13854">
        <ele>193.84</ele>
        <time>2020-08-19T12:25:10Z</time>
      </trkpt>
      <trkpt lat="48.78819" lon="6.13847">
        <ele>193.84</ele>
        <time>2020-08-19T12:25:11Z</time>
      </trkpt>
      <trkpt lat="48.78821" lon="6.1384">
        <ele>193.36</ele>
        <time>2020-08-19T12:25:12Z</time>
      </trkpt>
      <trkpt lat="48.78823" lon="6.13833">
        <ele>193.36</ele>
        <time>2020-08-19T12:25:13Z</time>
      </trkpt>
      <trkpt lat="48.78823" lon="6.13829">
        <ele>193.36</ele>
        <time>2020-08-19T12:25:14Z</time>
      </trkpt>
      <trkpt lat="48.78821" lon="6.13825">
        <ele>192.88</ele>
        <time>2020-08-19T12:25:15Z</time>
      </trkpt>
      <trkpt lat="48.78819" lon="6.13824">
        <ele>192.88</ele>
        <time>2020-08-19T12:25:16Z</time>
      </trkpt>
      <trkpt lat="48.78816" lon="6.13823">
        <ele>193.36</ele>
        <time>2020-08-19T12:25:17Z</time>
      </trkpt>
      <trkpt lat="48.78813" lon="6.13821">
        <ele>193.36</ele>
        <time>2020-08-19T12:25:18Z</time>
      </trkpt>
      <trkpt lat="48.7881" lon="6.13817">
        <ele>193.84</ele>
        <time>2020-08-19T12:25:19Z</time>
      </trkpt>
      <trkpt lat="48.78807" lon="6.13813">
        <ele>193.84</ele>
        <time>2020-08-19T12:25:20Z</time>
      </trkpt>
      <trkpt lat="48.78804" lon="6.13808">
        <ele>194.32</ele>
        <time>2020-08-19T12:25:21Z</time>
      </trkpt>
      <trkpt lat="48.7876" lon="6.1373">
        <ele>196.25</ele>
        <time>2020-08-19T12:25:36Z</time>
      </trkpt>
      <trkpt lat="48.78696" lon="6.13631">
        <ele>197.69</ele>
        <time>2020-08-19T12:25:54Z</time>
      </trkpt>
      <trkpt lat="48.7863" lon="6.13548">
        <ele>198.17</ele>
        <time>2020-08-19T12:26:11Z</time>
      </trkpt>
      <trkpt lat="48.78568" lon="6.13468">
        <ele>198.17</ele>
        <time>2020-08-19T12:26:27Z</time>
      </trkpt>
      <trkpt lat="48.785" lon="6.13368">
        <ele>199.13</ele>
        <time>2020-08-19T12:26:45Z</time>
      </trkpt>
      <trkpt lat="48.78483" lon="6.13339">
        <ele>199.61</ele>
        <time>2020-08-19T12:26:50Z</time>
      </trkpt>
      <trkpt lat="48.78479" lon="6.13335">
        <ele>199.61</ele>
        <time>2020-08-19T12:26:51Z</time>
      </trkpt>
      <trkpt lat="48.78475" lon="6.1333">
        <ele>199.61</ele>
        <time>2020-08-19T12:26:52Z</time>
      </trkpt>
      <trkpt lat="48.78471" lon="6.13325">
        <ele>200.09</ele>
        <time>2020-08-19T12:26:53Z</time>
      </trkpt>
      <trkpt lat="48.78467" lon="6.13318">
        <ele>200.09</ele>
        <time>2020-08-19T12:26:54Z</time>
      </trkpt>
      <trkpt lat="48.78464" lon="6.13312">
        <ele>200.09</ele>
        <time>2020-08-19T12:26:55Z</time>
      </trkpt>
      <trkpt lat="48.78399" lon="6.13189">
        <ele>202.49</ele>
        <time>2020-08-19T12:27:16Z</time>
      </trkpt>
      <trkpt lat="48.78363" lon="6.13106">
        <ele>206.82</ele>
        <time>2020-08-19T12:27:34Z</time>
      </trkpt>
      <trkpt lat="48.7832" lon="6.13067">
        <ele>211.15</ele>
        <time>2020-08-19T12:27:49Z</time>
      </trkpt>
      <trkpt lat="48.78273" lon="6.13062">
        <ele>214.03</ele>
        <time>2020-08-19T12:28:04Z</time>
      </trkpt>
      <trkpt lat="48.78223" lon="6.13078">
        <ele>220.28</ele>
        <time>2020-08-19T12:28:20Z</time>
      </trkpt>
      <trkpt lat="48.78193" lon="6.13067">
        <ele>221.72</ele>
        <time>2020-08-19T12:28:30Z</time>
      </trkpt>
      <trkpt lat="48.78181" lon="6.13041">
        <ele>220.28</ele>
        <time>2020-08-19T12:28:37Z</time>
      </trkpt>
      <trkpt lat="48.78183" lon="6.13035">
        <ele>220.28</ele>
        <time>2020-08-19T12:28:38Z</time>
      </trkpt>
      <trkpt lat="48.78188" lon="6.1303">
        <ele>220.28</ele>
        <time>2020-08-19T12:28:40Z</time>
      </trkpt>
      <trkpt lat="48.7819" lon="6.13025">
        <ele>220.28</ele>
        <time>2020-08-19T12:28:41Z</time>
      </trkpt>
      <trkpt lat="48.78189" lon="6.13021">
        <ele>220.28</ele>
        <time>2020-08-19T12:28:42Z</time>
      </trkpt>
      <trkpt lat="48.78187" lon="6.1302">
        <ele>220.76</ele>
        <time>2020-08-19T12:28:43Z</time>
      </trkpt>
      <trkpt lat="48.78185" lon="6.13022">
        <ele>220.76</ele>
        <time>2020-08-19T12:28:44Z</time>
      </trkpt>
      <trkpt lat="48.78182" lon="6.13024">
        <ele>220.76</ele>
        <time>2020-08-19T12:28:45Z</time>
      </trkpt>
      <trkpt lat="48.78179" lon="6.13026">
        <ele>220.76</ele>
        <time>2020-08-19T12:28:46Z</time>
      </trkpt>
      <trkpt lat="48.78176" lon="6.13029">
        <ele>220.76</ele>
        <time>2020-08-19T12:28:47Z</time>
      </trkpt>
      <trkpt lat="48.78127" lon="6.13062">
        <ele>221.24</ele>
        <time>2020-08-19T12:29:02Z</time>
      </trkpt>
      <trkpt lat="48.78124" lon="6.13061">
        <ele>221.24</ele>
        <time>2020-08-19T12:29:03Z</time>
      </trkpt>
      <trkpt lat="48.78122" lon="6.13059">
        <ele>221.72</ele>
        <time>2020-08-19T12:29:04Z</time>
      </trkpt>
      <trkpt lat="48.7812" lon="6.13055">
        <ele>221.72</ele>
        <time>2020-08-19T12:29:05Z</time>
      </trkpt>
      <trkpt lat="48.78119" lon="6.13052">
        <ele>222.2</ele>
        <time>2020-08-19T12:29:06Z</time>
      </trkpt>
      <trkpt lat="48.78119" lon="6.13049">
        <ele>222.68</ele>
        <time>2020-08-19T12:29:07Z</time>
      </trkpt>
      <trkpt lat="48.78118" lon="6.13045">
        <ele>222.68</ele>
        <time>2020-08-19T12:29:08Z</time>
      </trkpt>
      <trkpt lat="48.78116" lon="6.13008">
        <ele>226.05</ele>
        <time>2020-08-19T12:29:20Z</time>
      </trkpt>
      <trkpt lat="48.78116" lon="6.13001">
        <ele>226.05</ele>
        <time>2020-08-19T12:29:22Z</time>
      </trkpt>
      <trkpt lat="48.78117" lon="6.12999">
        <ele>226.53</ele>
        <time>2020-08-19T12:29:23Z</time>
      </trkpt>
      <trkpt lat="48.78122" lon="6.12981">
        <ele>227.97</ele>
        <time>2020-08-19T12:29:31Z</time>
      </trkpt>
      <trkpt lat="48.78123" lon="6.12979">
        <ele>228.45</ele>
        <time>2020-08-19T12:29:32Z</time>
      </trkpt>
      <trkpt lat="48.78123" lon="6.12977">
        <ele>228.45</ele>
        <time>2020-08-19T12:29:33Z</time>
      </trkpt>
      <trkpt lat="48.78124" lon="6.12975">
        <ele>228.93</ele>
        <time>2020-08-19T12:29:34Z</time>
      </trkpt>
      <trkpt lat="48.78124" lon="6.12972">
        <ele>229.41</ele>
        <time>2020-08-19T12:29:35Z</time>
      </trkpt>
      <trkpt lat="48.78124" lon="6.1297">
        <ele>229.41</ele>
        <time>2020-08-19T12:29:36Z</time>
      </trkpt>
      <trkpt lat="48.7813" lon="6.12951">
        <ele>235.66</ele>
        <time>2020-08-19T12:29:50Z</time>
      </trkpt>
      <trkpt lat="48.78133" lon="6.12926">
        <ele>242.87</ele>
        <time>2020-08-19T12:30:05Z</time>
      </trkpt>
      <trkpt lat="48.78138" lon="6.12902">
        <ele>247.68</ele>
        <time>2020-08-19T12:30:18Z</time>
      </trkpt>
      <trkpt lat="48.7814" lon="6.1289">
        <ele>252.96</ele>
        <time>2020-08-19T12:30:30Z</time>
      </trkpt>
      <trkpt lat="48.78138" lon="6.12889">
        <ele>253.93</ele>
        <time>2020-08-19T12:30:44Z</time>
      </trkpt>
      <trkpt lat="48.78133" lon="6.12884">
        <ele>255.37</ele>
        <time>2020-08-19T12:30:50Z</time>
      </trkpt>
      <trkpt lat="48.7813" lon="6.12882">
        <ele>257.29</ele>
        <time>2020-08-19T12:30:53Z</time>
      </trkpt>
      <trkpt lat="48.78129" lon="6.12882">
        <ele>257.77</ele>
        <time>2020-08-19T12:30:54Z</time>
      </trkpt>
      <trkpt lat="48.78128" lon="6.12882">
        <ele>258.25</ele>
        <time>2020-08-19T12:30:55Z</time>
      </trkpt>
      <trkpt lat="48.78127" lon="6.12883">
        <ele>259.21</ele>
        <time>2020-08-19T12:30:56Z</time>
      </trkpt>
      <trkpt lat="48.78125" lon="6.12883">
        <ele>259.69</ele>
        <time>2020-08-19T12:30:57Z</time>
      </trkpt>
      <trkpt lat="48.78124" lon="6.12884">
        <ele>260.17</ele>
        <time>2020-08-19T12:30:58Z</time>
      </trkpt>
      <trkpt lat="48.78123" lon="6.12884">
        <ele>260.65</ele>
        <time>2020-08-19T12:30:59Z</time>
      </trkpt>
      <trkpt lat="48.78122" lon="6.12885">
        <ele>261.14</ele>
        <time>2020-08-19T12:31:00Z</time>
      </trkpt>
      <trkpt lat="48.78121" lon="6.12885">
        <ele>261.62</ele>
        <time>2020-08-19T12:31:01Z</time>
      </trkpt>
      <trkpt lat="48.78093" lon="6.12897">
        <ele>265.94</ele>
        <time>2020-08-19T12:31:14Z</time>
      </trkpt>
      <trkpt lat="48.78062" lon="6.12888">
        <ele>267.86</ele>
        <time>2020-08-19T12:31:29Z</time>
      </trkpt>
      <trkpt lat="48.78035" lon="6.12881">
        <ele>269.31</ele>
        <time>2020-08-19T12:31:39Z</time>
      </trkpt>
      <trkpt lat="48.78015" lon="6.12858">
        <ele>271.23</ele>
        <time>2020-08-19T12:31:48Z</time>
      </trkpt>
      <trkpt lat="48.78008" lon="6.12853">
        <ele>272.19</ele>
        <time>2020-08-19T12:31:51Z</time>
      </trkpt>
      <trkpt lat="48.78005" lon="6.12851">
        <ele>272.19</ele>
        <time>2020-08-19T12:31:52Z</time>
      </trkpt>
      <trkpt lat="48.78002" lon="6.12849">
        <ele>272.67</ele>
        <time>2020-08-19T12:31:53Z</time>
      </trkpt>
      <trkpt lat="48.77999" lon="6.12847">
        <ele>272.67</ele>
        <time>2020-08-19T12:31:54Z</time>
      </trkpt>
      <trkpt lat="48.77996" lon="6.12844">
        <ele>273.15</ele>
        <time>2020-08-19T12:31:55Z</time>
      </trkpt>
      <trkpt lat="48.77992" lon="6.12839">
        <ele>273.15</ele>
        <time>2020-08-19T12:31:56Z</time>
      </trkpt>
      <trkpt lat="48.77956" lon="6.12798">
        <ele>271.71</ele>
        <time>2020-08-19T12:32:02Z</time>
      </trkpt>
      <trkpt lat="48.77941" lon="6.12776">
        <ele>269.79</ele>
        <time>2020-08-19T12:32:05Z</time>
      </trkpt>
      <trkpt lat="48.77937" lon="6.12769">
        <ele>269.31</ele>
        <time>2020-08-19T12:32:06Z</time>
      </trkpt>
      <trkpt lat="48.77932" lon="6.12761">
        <ele>268.83</ele>
        <time>2020-08-19T12:32:07Z</time>
      </trkpt>
      <trkpt lat="48.77928" lon="6.12753">
        <ele>267.38</ele>
        <time>2020-08-19T12:32:08Z</time>
      </trkpt>
      <trkpt lat="48.77927" lon="6.12744">
        <ele>266.9</ele>
        <time>2020-08-19T12:32:09Z</time>
      </trkpt>
      <trkpt lat="48.77926" lon="6.12737">
        <ele>266.42</ele>
        <time>2020-08-19T12:32:10Z</time>
      </trkpt>
      <trkpt lat="48.77917" lon="6.12687">
        <ele>264.5</ele>
        <time>2020-08-19T12:32:21Z</time>
      </trkpt>
      <trkpt lat="48.77911" lon="6.12659">
        <ele>263.06</ele>
        <time>2020-08-19T12:32:27Z</time>
      </trkpt>
      <trkpt lat="48.77911" lon="6.12655">
        <ele>263.06</ele>
        <time>2020-08-19T12:32:28Z</time>
      </trkpt>
      <trkpt lat="48.7791" lon="6.12652">
        <ele>263.06</ele>
        <time>2020-08-19T12:32:29Z</time>
      </trkpt>
      <trkpt lat="48.77909" lon="6.12648">
        <ele>262.58</ele>
        <time>2020-08-19T12:32:30Z</time>
      </trkpt>
      <trkpt lat="48.77908" lon="6.12643">
        <ele>262.1</ele>
        <time>2020-08-19T12:32:31Z</time>
      </trkpt>
      <trkpt lat="48.77903" lon="6.12597">
        <ele>259.21</ele>
        <time>2020-08-19T12:32:41Z</time>
      </trkpt>
      <trkpt lat="48.77903" lon="6.1255">
        <ele>255.37</ele>
        <time>2020-08-19T12:32:54Z</time>
      </trkpt>
      <trkpt lat="48.77897" lon="6.12496">
        <ele>252.48</ele>
        <time>2020-08-19T12:33:10Z</time>
      </trkpt>
      <trkpt lat="48.77889" lon="6.12434">
        <ele>247.2</ele>
        <time>2020-08-19T12:33:23Z</time>
      </trkpt>
      <trkpt lat="48.77883" lon="6.1239">
        <ele>246.72</ele>
        <time>2020-08-19T12:33:32Z</time>
      </trkpt>
      <trkpt lat="48.77881" lon="6.12335">
        <ele>250.56</ele>
        <time>2020-08-19T12:33:43Z</time>
      </trkpt>
      <trkpt lat="48.77871" lon="6.12293">
        <ele>252.96</ele>
        <time>2020-08-19T12:33:50Z</time>
      </trkpt>
      <trkpt lat="48.77869" lon="6.12288">
        <ele>252.48</ele>
        <time>2020-08-19T12:33:51Z</time>
      </trkpt>
      <trkpt lat="48.77863" lon="6.12274">
        <ele>251.52</ele>
        <time>2020-08-19T12:33:53Z</time>
      </trkpt>
      <trkpt lat="48.7786" lon="6.12266">
        <ele>251.04</ele>
        <time>2020-08-19T12:33:54Z</time>
      </trkpt>
      <trkpt lat="48.77858" lon="6.12256">
        <ele>250.56</ele>
        <time>2020-08-19T12:33:55Z</time>
      </trkpt>
      <trkpt lat="48.77855" lon="6.12232">
        <ele>250.08</ele>
        <time>2020-08-19T12:34:02Z</time>
      </trkpt>
      <trkpt lat="48.77855" lon="6.12218">
        <ele>252</ele>
        <time>2020-08-19T12:34:07Z</time>
      </trkpt>
      <trkpt lat="48.7785" lon="6.12155">
        <ele>250.08</ele>
        <time>2020-08-19T12:34:20Z</time>
      </trkpt>
      <trkpt lat="48.77835" lon="6.12106">
        <ele>246.72</ele>
        <time>2020-08-19T12:34:29Z</time>
      </trkpt>
      <trkpt lat="48.77831" lon="6.121">
        <ele>245.75</ele>
        <time>2020-08-19T12:34:30Z</time>
      </trkpt>
      <trkpt lat="48.77826" lon="6.12087">
        <ele>243.83</ele>
        <time>2020-08-19T12:34:32Z</time>
      </trkpt>
      <trkpt lat="48.77824" lon="6.12078">
        <ele>242.87</ele>
        <time>2020-08-19T12:34:33Z</time>
      </trkpt>
      <trkpt lat="48.77823" lon="6.1207">
        <ele>242.39</ele>
        <time>2020-08-19T12:34:34Z</time>
      </trkpt>
      <trkpt lat="48.77821" lon="6.12064">
        <ele>241.43</ele>
        <time>2020-08-19T12:34:35Z</time>
      </trkpt>
      <trkpt lat="48.77819" lon="6.1206">
        <ele>240.95</ele>
        <time>2020-08-19T12:34:36Z</time>
      </trkpt>
      <trkpt lat="48.77818" lon="6.12057">
        <ele>240.47</ele>
        <time>2020-08-19T12:34:37Z</time>
      </trkpt>
      <trkpt lat="48.77816" lon="6.12058">
        <ele>240.47</ele>
        <time>2020-08-19T12:34:38Z</time>
      </trkpt>
      <trkpt lat="48.77815" lon="6.1206">
        <ele>239.99</ele>
        <time>2020-08-19T12:34:39Z</time>
      </trkpt>
      <trkpt lat="48.77815" lon="6.12063">
        <ele>239.99</ele>
        <time>2020-08-19T12:34:40Z</time>
      </trkpt>
      <trkpt lat="48.77814" lon="6.12067">
        <ele>239.51</ele>
        <time>2020-08-19T12:34:41Z</time>
      </trkpt>
      <trkpt lat="48.77813" lon="6.12071">
        <ele>239.51</ele>
        <time>2020-08-19T12:34:42Z</time>
      </trkpt>
      <trkpt lat="48.77813" lon="6.12072">
        <ele>240.95</ele>
        <time>2020-08-19T12:34:50Z</time>
      </trkpt>
      <trkpt lat="48.77814" lon="6.12069">
        <ele>241.91</ele>
        <time>2020-08-19T12:34:53Z</time>
      </trkpt>
      <trkpt lat="48.77814" lon="6.12066">
        <ele>242.39</ele>
        <time>2020-08-19T12:34:54Z</time>
      </trkpt>
      <trkpt lat="48.77815" lon="6.12063">
        <ele>243.35</ele>
        <time>2020-08-19T12:34:55Z</time>
      </trkpt>
      <trkpt lat="48.77815" lon="6.12059">
        <ele>243.35</ele>
        <time>2020-08-19T12:34:56Z</time>
      </trkpt>
      <trkpt lat="48.77815" lon="6.12054">
        <ele>243.83</ele>
        <time>2020-08-19T12:34:57Z</time>
      </trkpt>
      <trkpt lat="48.77819" lon="6.1198">
        <ele>246.72</ele>
        <time>2020-08-19T12:35:11Z</time>
      </trkpt>
      <trkpt lat="48.77824" lon="6.11917">
        <ele>247.68</ele>
        <time>2020-08-19T12:35:24Z</time>
      </trkpt>
      <trkpt lat="48.77823" lon="6.11912">
        <ele>247.68</ele>
        <time>2020-08-19T12:35:25Z</time>
      </trkpt>
      <trkpt lat="48.7782" lon="6.11908">
        <ele>248.16</ele>
        <time>2020-08-19T12:35:27Z</time>
      </trkpt>
      <trkpt lat="48.77816" lon="6.11905">
        <ele>248.64</ele>
        <time>2020-08-19T12:35:28Z</time>
      </trkpt>
      <trkpt lat="48.77813" lon="6.11904">
        <ele>249.12</ele>
        <time>2020-08-19T12:35:29Z</time>
      </trkpt>
      <trkpt lat="48.7781" lon="6.11903">
        <ele>249.6</ele>
        <time>2020-08-19T12:35:30Z</time>
      </trkpt>
      <trkpt lat="48.77807" lon="6.11903">
        <ele>250.08</ele>
        <time>2020-08-19T12:35:31Z</time>
      </trkpt>
      <trkpt lat="48.77804" lon="6.11904">
        <ele>250.56</ele>
        <time>2020-08-19T12:35:32Z</time>
      </trkpt>
      <trkpt lat="48.77801" lon="6.11906">
        <ele>251.04</ele>
        <time>2020-08-19T12:35:33Z</time>
      </trkpt>
      <trkpt lat="48.77799" lon="6.11908">
        <ele>251.52</ele>
        <time>2020-08-19T12:35:34Z</time>
      </trkpt>
      <trkpt lat="48.77798" lon="6.1191">
        <ele>252</ele>
        <time>2020-08-19T12:35:35Z</time>
      </trkpt>
      <trkpt lat="48.77796" lon="6.11912">
        <ele>252.48</ele>
        <time>2020-08-19T12:35:36Z</time>
      </trkpt>
      <trkpt lat="48.77795" lon="6.11915">
        <ele>252.48</ele>
        <time>2020-08-19T12:35:37Z</time>
      </trkpt>
      <trkpt lat="48.77794" lon="6.11917">
        <ele>252.48</ele>
        <time>2020-08-19T12:35:38Z</time>
      </trkpt>
      <trkpt lat="48.77791" lon="6.11919">
        <ele>252.96</ele>
        <time>2020-08-19T12:35:39Z</time>
      </trkpt>
      <trkpt lat="48.77789" lon="6.1192">
        <ele>253.44</ele>
        <time>2020-08-19T12:35:40Z</time>
      </trkpt>
      <trkpt lat="48.77787" lon="6.11922">
        <ele>253.93</ele>
        <time>2020-08-19T12:35:41Z</time>
      </trkpt>
      <trkpt lat="48.77785" lon="6.11925">
        <ele>254.41</ele>
        <time>2020-08-19T12:35:42Z</time>
      </trkpt>
      <trkpt lat="48.77761" lon="6.11977">
        <ele>255.85</ele>
        <time>2020-08-19T12:35:56Z</time>
      </trkpt>
      <trkpt lat="48.77743" lon="6.12037">
        <ele>252.96</ele>
        <time>2020-08-19T12:36:09Z</time>
      </trkpt>
      <trkpt lat="48.77725" lon="6.12115">
        <ele>252</ele>
        <time>2020-08-19T12:36:23Z</time>
      </trkpt>
      <trkpt lat="48.77723" lon="6.12121">
        <ele>252</ele>
        <time>2020-08-19T12:36:24Z</time>
      </trkpt>
      <trkpt lat="48.77722" lon="6.12126">
        <ele>252</ele>
        <time>2020-08-19T12:36:25Z</time>
      </trkpt>
      <trkpt lat="48.77721" lon="6.12132">
        <ele>252</ele>
        <time>2020-08-19T12:36:26Z</time>
      </trkpt>
      <trkpt lat="48.7772" lon="6.12138">
        <ele>252</ele>
        <time>2020-08-19T12:36:27Z</time>
      </trkpt>
      <trkpt lat="48.77719" lon="6.12143">
        <ele>251.52</ele>
        <time>2020-08-19T12:36:28Z</time>
      </trkpt>
      <trkpt lat="48.77701" lon="6.12222">
        <ele>249.6</ele>
        <time>2020-08-19T12:36:40Z</time>
      </trkpt>
      <trkpt lat="48.7769" lon="6.12274">
        <ele>249.12</ele>
        <time>2020-08-19T12:36:47Z</time>
      </trkpt>
      <trkpt lat="48.77685" lon="6.12292">
        <ele>248.64</ele>
        <time>2020-08-19T12:36:50Z</time>
      </trkpt>
      <trkpt lat="48.77684" lon="6.12299">
        <ele>249.12</ele>
        <time>2020-08-19T12:36:51Z</time>
      </trkpt>
      <trkpt lat="48.77666" lon="6.12364">
        <ele>250.56</ele>
        <time>2020-08-19T12:37:03Z</time>
      </trkpt>
      <trkpt lat="48.77652" lon="6.12408">
        <ele>252.96</ele>
        <time>2020-08-19T12:37:14Z</time>
      </trkpt>
      <trkpt lat="48.77639" lon="6.12446">
        <ele>253.93</ele>
        <time>2020-08-19T12:37:24Z</time>
      </trkpt>
      <trkpt lat="48.77618" lon="6.12503">
        <ele>256.33</ele>
        <time>2020-08-19T12:37:38Z</time>
      </trkpt>
      <trkpt lat="48.77595" lon="6.12562">
        <ele>259.69</ele>
        <time>2020-08-19T12:37:53Z</time>
      </trkpt>
      <trkpt lat="48.77563" lon="6.12629">
        <ele>262.1</ele>
        <time>2020-08-19T12:38:10Z</time>
      </trkpt>
      <trkpt lat="48.77532" lon="6.12648">
        <ele>266.42</ele>
        <time>2020-08-19T12:38:22Z</time>
      </trkpt>
      <trkpt lat="48.77483" lon="6.12666">
        <ele>268.83</ele>
        <time>2020-08-19T12:38:36Z</time>
      </trkpt>
      <trkpt lat="48.77438" lon="6.12658">
        <ele>269.31</ele>
        <time>2020-08-19T12:38:48Z</time>
      </trkpt>
      <trkpt lat="48.77401" lon="6.12639">
        <ele>270.27</ele>
        <time>2020-08-19T12:38:59Z</time>
      </trkpt>
      <trkpt lat="48.77357" lon="6.12611">
        <ele>269.79</ele>
        <time>2020-08-19T12:39:11Z</time>
      </trkpt>
      <trkpt lat="48.77303" lon="6.12565">
        <ele>269.31</ele>
        <time>2020-08-19T12:39:26Z</time>
      </trkpt>
      <trkpt lat="48.77267" lon="6.12531">
        <ele>270.27</ele>
        <time>2020-08-19T12:39:38Z</time>
      </trkpt>
      <trkpt lat="48.77234" lon="6.12499">
        <ele>272.67</ele>
        <time>2020-08-19T12:39:51Z</time>
      </trkpt>
      <trkpt lat="48.77202" lon="6.12466">
        <ele>275.56</ele>
        <time>2020-08-19T12:40:04Z</time>
      </trkpt>
      <trkpt lat="48.77173" lon="6.12437">
        <ele>278.44</ele>
        <time>2020-08-19T12:40:15Z</time>
      </trkpt>
      <trkpt lat="48.77146" lon="6.12412">
        <ele>282.28</ele>
        <time>2020-08-19T12:40:25Z</time>
      </trkpt>
      <trkpt lat="48.77124" lon="6.12378">
        <ele>285.17</ele>
        <time>2020-08-19T12:40:36Z</time>
      </trkpt>
      <trkpt lat="48.77097" lon="6.12332">
        <ele>288.05</ele>
        <time>2020-08-19T12:40:50Z</time>
      </trkpt>
      <trkpt lat="48.77063" lon="6.12292">
        <ele>287.57</ele>
        <time>2020-08-19T12:41:02Z</time>
      </trkpt>
      <trkpt lat="48.77036" lon="6.12263">
        <ele>285.17</ele>
        <time>2020-08-19T12:41:12Z</time>
      </trkpt>
      <trkpt lat="48.76986" lon="6.12214">
        <ele>278.92</ele>
        <time>2020-08-19T12:41:28Z</time>
      </trkpt>
      <trkpt lat="48.76972" lon="6.12199">
        <ele>279.4</ele>
        <time>2020-08-19T12:41:33Z</time>
      </trkpt>
      <trkpt lat="48.76972" lon="6.12195">
        <ele>279.4</ele>
        <time>2020-08-19T12:41:34Z</time>
      </trkpt>
      <trkpt lat="48.76974" lon="6.12188">
        <ele>277.96</ele>
        <time>2020-08-19T12:41:38Z</time>
      </trkpt>
      <trkpt lat="48.76979" lon="6.12183">
        <ele>277.96</ele>
        <time>2020-08-19T12:41:42Z</time>
      </trkpt>
      <trkpt lat="48.76987" lon="6.1218">
        <ele>281.32</ele>
        <time>2020-08-19T12:41:51Z</time>
      </trkpt>
      <trkpt lat="48.76998" lon="6.12187">
        <ele>285.17</ele>
        <time>2020-08-19T12:42:00Z</time>
      </trkpt>
      <trkpt lat="48.77013" lon="6.12191">
        <ele>289.01</ele>
        <time>2020-08-19T12:42:11Z</time>
      </trkpt>
      <trkpt lat="48.77021" lon="6.12195">
        <ele>289.97</ele>
        <time>2020-08-19T12:42:17Z</time>
      </trkpt>
      <trkpt lat="48.77027" lon="6.12197">
        <ele>289.97</ele>
        <time>2020-08-19T12:42:22Z</time>
      </trkpt>
      <trkpt lat="48.7705" lon="6.1221">
        <ele>293.34</ele>
        <time>2020-08-19T12:42:40Z</time>
      </trkpt>
      <trkpt lat="48.77063" lon="6.12214">
        <ele>298.63</ele>
        <time>2020-08-19T12:42:51Z</time>
      </trkpt>
      <trkpt lat="48.77079" lon="6.12216">
        <ele>301.99</ele>
        <time>2020-08-19T12:43:03Z</time>
      </trkpt>
      <trkpt lat="48.77101" lon="6.12226">
        <ele>305.84</ele>
        <time>2020-08-19T12:43:17Z</time>
      </trkpt>
      <trkpt lat="48.77114" lon="6.12231">
        <ele>308.24</ele>
        <time>2020-08-19T12:43:27Z</time>
      </trkpt>
      <trkpt lat="48.77121" lon="6.12228">
        <ele>310.64</ele>
        <time>2020-08-19T12:43:32Z</time>
      </trkpt>
      <trkpt lat="48.77142" lon="6.12214">
        <ele>316.89</ele>
        <time>2020-08-19T12:43:47Z</time>
      </trkpt>
      <trkpt lat="48.77165" lon="6.12195">
        <ele>323.62</ele>
        <time>2020-08-19T12:44:03Z</time>
      </trkpt>
      <trkpt lat="48.77185" lon="6.12177">
        <ele>328.91</ele>
        <time>2020-08-19T12:44:15Z</time>
      </trkpt>
      <trkpt lat="48.77187" lon="6.12177">
        <ele>329.39</ele>
        <time>2020-08-19T12:44:16Z</time>
      </trkpt>
      <trkpt lat="48.77201" lon="6.12165">
        <ele>331.31</ele>
        <time>2020-08-19T12:44:25Z</time>
      </trkpt>
      <trkpt lat="48.77219" lon="6.12156">
        <ele>334.68</ele>
        <time>2020-08-19T12:44:36Z</time>
      </trkpt>
      <trkpt lat="48.77231" lon="6.12156">
        <ele>336.12</ele>
        <time>2020-08-19T12:44:43Z</time>
      </trkpt>
      <trkpt lat="48.77242" lon="6.12157">
        <ele>336.12</ele>
        <time>2020-08-19T12:44:48Z</time>
      </trkpt>
      <trkpt lat="48.77267" lon="6.12158">
        <ele>337.56</ele>
        <time>2020-08-19T12:45:01Z</time>
      </trkpt>
      <trkpt lat="48.77281" lon="6.12158">
        <ele>337.56</ele>
        <time>2020-08-19T12:45:08Z</time>
      </trkpt>
      <trkpt lat="48.77313" lon="6.12164">
        <ele>339.96</ele>
        <time>2020-08-19T12:45:22Z</time>
      </trkpt>
      <trkpt lat="48.77344" lon="6.12169">
        <ele>345.73</ele>
        <time>2020-08-19T12:45:35Z</time>
      </trkpt>
      <trkpt lat="48.77347" lon="6.1217">
        <ele>346.21</ele>
        <time>2020-08-19T12:45:36Z</time>
      </trkpt>
      <trkpt lat="48.7735" lon="6.1217">
        <ele>346.69</ele>
        <time>2020-08-19T12:45:37Z</time>
      </trkpt>
      <trkpt lat="48.77352" lon="6.12171">
        <ele>347.17</ele>
        <time>2020-08-19T12:45:38Z</time>
      </trkpt>
      <trkpt lat="48.77355" lon="6.12171">
        <ele>348.13</ele>
        <time>2020-08-19T12:45:39Z</time>
      </trkpt>
      <trkpt lat="48.77358" lon="6.12171">
        <ele>348.62</ele>
        <time>2020-08-19T12:45:40Z</time>
      </trkpt>
      <trkpt lat="48.7736" lon="6.12172">
        <ele>349.1</ele>
        <time>2020-08-19T12:45:41Z</time>
      </trkpt>
      <trkpt lat="48.77392" lon="6.12177">
        <ele>355.83</ele>
        <time>2020-08-19T12:45:54Z</time>
      </trkpt>
      <trkpt lat="48.77422" lon="6.12183">
        <ele>361.11</ele>
        <time>2020-08-19T12:46:07Z</time>
      </trkpt>
      <trkpt lat="48.77452" lon="6.12193">
        <ele>360.63</ele>
        <time>2020-08-19T12:46:20Z</time>
      </trkpt>
      <trkpt lat="48.77483" lon="6.12203">
        <ele>357.75</ele>
        <time>2020-08-19T12:46:30Z</time>
      </trkpt>
      <trkpt lat="48.77519" lon="6.12207">
        <ele>356.79</ele>
        <time>2020-08-19T12:46:42Z</time>
      </trkpt>
      <trkpt lat="48.77546" lon="6.12162">
        <ele>351.02</ele>
        <time>2020-08-19T12:46:55Z</time>
      </trkpt>
      <trkpt lat="48.77569" lon="6.12128">
        <ele>347.65</ele>
        <time>2020-08-19T12:47:03Z</time>
      </trkpt>
      <trkpt lat="48.77601" lon="6.12059">
        <ele>341.41</ele>
        <time>2020-08-19T12:47:17Z</time>
      </trkpt>
      <trkpt lat="48.77615" lon="6.12">
        <ele>339</ele>
        <time>2020-08-19T12:47:27Z</time>
      </trkpt>
      <trkpt lat="48.77626" lon="6.11943">
        <ele>336.12</ele>
        <time>2020-08-19T12:47:37Z</time>
      </trkpt>
      <trkpt lat="48.77649" lon="6.11878">
        <ele>339</ele>
        <time>2020-08-19T12:47:50Z</time>
      </trkpt>
      <trkpt lat="48.77657" lon="6.11859">
        <ele>339</ele>
        <time>2020-08-19T12:47:54Z</time>
      </trkpt>
      <trkpt lat="48.77693" lon="6.11784">
        <ele>338.52</ele>
        <time>2020-08-19T12:48:05Z</time>
      </trkpt>
      <trkpt lat="48.77697" lon="6.11775">
        <ele>338.52</ele>
        <time>2020-08-19T12:48:06Z</time>
      </trkpt>
      <trkpt lat="48.77739" lon="6.11671">
        <ele>336.12</ele>
        <time>2020-08-19T12:48:20Z</time>
      </trkpt>
      <trkpt lat="48.77759" lon="6.11618">
        <ele>334.2</ele>
        <time>2020-08-19T12:48:27Z</time>
      </trkpt>
      <trkpt lat="48.77774" lon="6.1151">
        <ele>329.39</ele>
        <time>2020-08-19T12:48:39Z</time>
      </trkpt>
      <trkpt lat="48.77768" lon="6.11378">
        <ele>317.85</ele>
        <time>2020-08-19T12:48:52Z</time>
      </trkpt>
      <trkpt lat="48.77768" lon="6.11368">
        <ele>316.89</ele>
        <time>2020-08-19T12:48:53Z</time>
      </trkpt>
      <trkpt lat="48.77769" lon="6.11358">
        <ele>316.41</ele>
        <time>2020-08-19T12:48:54Z</time>
      </trkpt>
      <trkpt lat="48.77771" lon="6.11349">
        <ele>315.93</ele>
        <time>2020-08-19T12:48:55Z</time>
      </trkpt>
      <trkpt lat="48.77775" lon="6.11342">
        <ele>315.45</ele>
        <time>2020-08-19T12:48:56Z</time>
      </trkpt>
      <trkpt lat="48.7778" lon="6.11337">
        <ele>314.97</ele>
        <time>2020-08-19T12:48:57Z</time>
      </trkpt>
      <trkpt lat="48.77785" lon="6.11334">
        <ele>314.49</ele>
        <time>2020-08-19T12:48:58Z</time>
      </trkpt>
      <trkpt lat="48.7779" lon="6.11333">
        <ele>314.01</ele>
        <time>2020-08-19T12:48:59Z</time>
      </trkpt>
      <trkpt lat="48.77795" lon="6.11331">
        <ele>314.01</ele>
        <time>2020-08-19T12:49:00Z</time>
      </trkpt>
      <trkpt lat="48.77801" lon="6.11331">
        <ele>314.01</ele>
        <time>2020-08-19T12:49:01Z</time>
      </trkpt>
      <trkpt lat="48.7781" lon="6.11328">
        <ele>314.49</ele>
        <time>2020-08-19T12:49:03Z</time>
      </trkpt>
      <trkpt lat="48.77828" lon="6.11321">
        <ele>315.93</ele>
        <time>2020-08-19T12:49:07Z</time>
      </trkpt>
      <trkpt lat="48.77832" lon="6.11318">
        <ele>316.41</ele>
        <time>2020-08-19T12:49:08Z</time>
      </trkpt>
      <trkpt lat="48.77836" lon="6.11314">
        <ele>316.41</ele>
        <time>2020-08-19T12:49:09Z</time>
      </trkpt>
      <trkpt lat="48.77839" lon="6.1131">
        <ele>316.89</ele>
        <time>2020-08-19T12:49:10Z</time>
      </trkpt>
      <trkpt lat="48.77842" lon="6.11305">
        <ele>317.37</ele>
        <time>2020-08-19T12:49:11Z</time>
      </trkpt>
      <trkpt lat="48.77845" lon="6.113">
        <ele>317.85</ele>
        <time>2020-08-19T12:49:12Z</time>
      </trkpt>
      <trkpt lat="48.77847" lon="6.11294">
        <ele>318.33</ele>
        <time>2020-08-19T12:49:13Z</time>
      </trkpt>
      <trkpt lat="48.77849" lon="6.11289">
        <ele>318.33</ele>
        <time>2020-08-19T12:49:14Z</time>
      </trkpt>
      <trkpt lat="48.77852" lon="6.11282">
        <ele>318.81</ele>
        <time>2020-08-19T12:49:15Z</time>
      </trkpt>
      <trkpt lat="48.77867" lon="6.11237">
        <ele>318.81</ele>
        <time>2020-08-19T12:49:26Z</time>
      </trkpt>
      <trkpt lat="48.77887" lon="6.11174">
        <ele>321.22</ele>
        <time>2020-08-19T12:49:39Z</time>
      </trkpt>
      <trkpt lat="48.77902" lon="6.11113">
        <ele>320.26</ele>
        <time>2020-08-19T12:49:52Z</time>
      </trkpt>
      <trkpt lat="48.77923" lon="6.11033">
        <ele>313.53</ele>
        <time>2020-08-19T12:50:07Z</time>
      </trkpt>
      <trkpt lat="48.77939" lon="6.10926">
        <ele>308.24</ele>
        <time>2020-08-19T12:50:20Z</time>
      </trkpt>
      <trkpt lat="48.77938" lon="6.10869">
        <ele>305.36</ele>
        <time>2020-08-19T12:50:25Z</time>
      </trkpt>
      <trkpt lat="48.77931" lon="6.10819">
        <ele>301.03</ele>
        <time>2020-08-19T12:50:32Z</time>
      </trkpt>
      <trkpt lat="48.77932" lon="6.10816">
        <ele>301.03</ele>
        <time>2020-08-19T12:50:33Z</time>
      </trkpt>
      <trkpt lat="48.7793" lon="6.10813">
        <ele>300.55</ele>
        <time>2020-08-19T12:50:35Z</time>
      </trkpt>
      <trkpt lat="48.77908" lon="6.10756">
        <ele>299.11</ele>
        <time>2020-08-19T12:50:45Z</time>
      </trkpt>
      <trkpt lat="48.779" lon="6.10732">
        <ele>298.63</ele>
        <time>2020-08-19T12:50:48Z</time>
      </trkpt>
      <trkpt lat="48.77896" lon="6.10726">
        <ele>298.15</ele>
        <time>2020-08-19T12:50:49Z</time>
      </trkpt>
      <trkpt lat="48.77887" lon="6.10711">
        <ele>297.67</ele>
        <time>2020-08-19T12:50:52Z</time>
      </trkpt>
      <trkpt lat="48.77884" lon="6.10707">
        <ele>297.67</ele>
        <time>2020-08-19T12:50:53Z</time>
      </trkpt>
      <trkpt lat="48.77834" lon="6.10644">
        <ele>298.63</ele>
        <time>2020-08-19T12:51:09Z</time>
      </trkpt>
      <trkpt lat="48.77795" lon="6.10587">
        <ele>297.18</ele>
        <time>2020-08-19T12:51:24Z</time>
      </trkpt>
      <trkpt lat="48.77766" lon="6.10545">
        <ele>298.15</ele>
        <time>2020-08-19T12:51:35Z</time>
      </trkpt>
      <trkpt lat="48.77724" lon="6.10485">
        <ele>300.55</ele>
        <time>2020-08-19T12:51:51Z</time>
      </trkpt>
      <trkpt lat="48.77693" lon="6.10423">
        <ele>304.88</ele>
        <time>2020-08-19T12:52:07Z</time>
      </trkpt>
      <trkpt lat="48.77678" lon="6.10383">
        <ele>305.84</ele>
        <time>2020-08-19T12:52:18Z</time>
      </trkpt>
      <trkpt lat="48.77677" lon="6.10384">
        <ele>305.84</ele>
        <time>2020-08-19T12:52:19Z</time>
      </trkpt>
      <trkpt lat="48.77677" lon="6.10385">
        <ele>306.32</ele>
        <time>2020-08-19T12:52:20Z</time>
      </trkpt>
      <trkpt lat="48.77678" lon="6.10388">
        <ele>306.32</ele>
        <time>2020-08-19T12:52:23Z</time>
      </trkpt>
      <trkpt lat="48.77679" lon="6.10389">
        <ele>306.32</ele>
        <time>2020-08-19T12:52:24Z</time>
      </trkpt>
      <trkpt lat="48.77679" lon="6.10391">
        <ele>306.32</ele>
        <time>2020-08-19T12:52:25Z</time>
      </trkpt>
      <trkpt lat="48.7768" lon="6.10394">
        <ele>306.32</ele>
        <time>2020-08-19T12:52:26Z</time>
      </trkpt>
      <trkpt lat="48.7768" lon="6.10396">
        <ele>306.32</ele>
        <time>2020-08-19T12:52:27Z</time>
      </trkpt>
      <trkpt lat="48.77681" lon="6.10398">
        <ele>306.32</ele>
        <time>2020-08-19T12:52:28Z</time>
      </trkpt>
      <trkpt lat="48.77683" lon="6.10401">
        <ele>306.32</ele>
        <time>2020-08-19T12:52:29Z</time>
      </trkpt>
      <trkpt lat="48.77684" lon="6.10404">
        <ele>306.32</ele>
        <time>2020-08-19T12:52:30Z</time>
      </trkpt>
      <trkpt lat="48.77704" lon="6.10451">
        <ele>306.32</ele>
        <time>2020-08-19T12:52:46Z</time>
      </trkpt>
      <trkpt lat="48.7771" lon="6.10462">
        <ele>305.84</ele>
        <time>2020-08-19T12:52:52Z</time>
      </trkpt>
      <trkpt lat="48.7771" lon="6.10461">
        <ele>305.84</ele>
        <time>2020-08-19T12:52:53Z</time>
      </trkpt>
      <trkpt lat="48.7771" lon="6.10461">
        <ele>305.84</ele>
        <time>2020-08-19T12:53:02Z</time>
      </trkpt>
      <trkpt lat="48.777" lon="6.10441">
        <ele>306.32</ele>
        <time>2020-08-19T12:53:15Z</time>
      </trkpt>
      <trkpt lat="48.77673" lon="6.10371">
        <ele>308.72</ele>
        <time>2020-08-19T12:53:34Z</time>
      </trkpt>
      <trkpt lat="48.77654" lon="6.10325">
        <ele>310.16</ele>
        <time>2020-08-19T12:53:47Z</time>
      </trkpt>
      <trkpt lat="48.7763" lon="6.10267">
        <ele>311.6</ele>
        <time>2020-08-19T12:54:02Z</time>
      </trkpt>
      <trkpt lat="48.77619" lon="6.10213">
        <ele>315.45</ele>
        <time>2020-08-19T12:54:16Z</time>
      </trkpt>
      <trkpt lat="48.77621" lon="6.10211">
        <ele>315.93</ele>
        <time>2020-08-19T12:54:17Z</time>
      </trkpt>
      <trkpt lat="48.77622" lon="6.10211">
        <ele>316.41</ele>
        <time>2020-08-19T12:54:18Z</time>
      </trkpt>
      <trkpt lat="48.77624" lon="6.10211">
        <ele>317.37</ele>
        <time>2020-08-19T12:54:19Z</time>
      </trkpt>
      <trkpt lat="48.77625" lon="6.10212">
        <ele>317.37</ele>
        <time>2020-08-19T12:54:20Z</time>
      </trkpt>
      <trkpt lat="48.77627" lon="6.10213">
        <ele>317.85</ele>
        <time>2020-08-19T12:54:21Z</time>
      </trkpt>
      <trkpt lat="48.77659" lon="6.10222">
        <ele>322.66</ele>
        <time>2020-08-19T12:54:37Z</time>
      </trkpt>
      <trkpt lat="48.77686" lon="6.10211">
        <ele>326.02</ele>
        <time>2020-08-19T12:54:53Z</time>
      </trkpt>
      <trkpt lat="48.77711" lon="6.10206">
        <ele>328.43</ele>
        <time>2020-08-19T12:55:07Z</time>
      </trkpt>
      <trkpt lat="48.7774" lon="6.10208">
        <ele>335.16</ele>
        <time>2020-08-19T12:55:24Z</time>
      </trkpt>
      <trkpt lat="48.77767" lon="6.10209">
        <ele>340.92</ele>
        <time>2020-08-19T12:55:38Z</time>
      </trkpt>
      <trkpt lat="48.77787" lon="6.1021">
        <ele>345.25</ele>
        <time>2020-08-19T12:55:50Z</time>
      </trkpt>
      <trkpt lat="48.77803" lon="6.10209">
        <ele>346.21</ele>
        <time>2020-08-19T12:55:57Z</time>
      </trkpt>
      <trkpt lat="48.77804" lon="6.10207">
        <ele>345.73</ele>
        <time>2020-08-19T12:55:58Z</time>
      </trkpt>
      <trkpt lat="48.77804" lon="6.10204">
        <ele>345.25</ele>
        <time>2020-08-19T12:55:59Z</time>
      </trkpt>
      <trkpt lat="48.778" lon="6.10149">
        <ele>342.37</ele>
        <time>2020-08-19T12:56:15Z</time>
      </trkpt>
      <trkpt lat="48.77793" lon="6.10081">
        <ele>340.92</ele>
        <time>2020-08-19T12:56:34Z</time>
      </trkpt>
      <trkpt lat="48.77786" lon="6.10019">
        <ele>341.41</ele>
        <time>2020-08-19T12:56:51Z</time>
      </trkpt>
      <trkpt lat="48.7778" lon="6.09968">
        <ele>343.33</ele>
        <time>2020-08-19T12:57:05Z</time>
      </trkpt>
      <trkpt lat="48.77773" lon="6.09897">
        <ele>344.77</ele>
        <time>2020-08-19T12:57:24Z</time>
      </trkpt>
      <trkpt lat="48.77767" lon="6.09834">
        <ele>345.25</ele>
        <time>2020-08-19T12:57:41Z</time>
      </trkpt>
      <trkpt lat="48.77761" lon="6.0977">
        <ele>345.73</ele>
        <time>2020-08-19T12:57:58Z</time>
      </trkpt>
      <trkpt lat="48.77752" lon="6.0969">
        <ele>349.1</ele>
        <time>2020-08-19T12:58:17Z</time>
      </trkpt>
      <trkpt lat="48.77743" lon="6.09614">
        <ele>351.98</ele>
        <time>2020-08-19T12:58:35Z</time>
      </trkpt>
      <trkpt lat="48.77735" lon="6.09535">
        <ele>354.38</ele>
        <time>2020-08-19T12:58:53Z</time>
      </trkpt>
      <trkpt lat="48.77727" lon="6.09456">
        <ele>356.31</ele>
        <time>2020-08-19T12:59:10Z</time>
      </trkpt>
      <trkpt lat="48.77715" lon="6.09347">
        <ele>356.79</ele>
        <time>2020-08-19T12:59:32Z</time>
      </trkpt>
      <trkpt lat="48.77704" lon="6.09249">
        <ele>356.79</ele>
        <time>2020-08-19T12:59:52Z</time>
      </trkpt>
      <trkpt lat="48.77696" lon="6.09232">
        <ele>357.27</ele>
        <time>2020-08-19T12:59:57Z</time>
      </trkpt>
      <trkpt lat="48.77694" lon="6.09233">
        <ele>357.27</ele>
        <time>2020-08-19T12:59:58Z</time>
      </trkpt>
      <trkpt lat="48.77692" lon="6.09235">
        <ele>357.75</ele>
        <time>2020-08-19T12:59:59Z</time>
      </trkpt>
      <trkpt lat="48.7769" lon="6.09238">
        <ele>357.27</ele>
        <time>2020-08-19T13:00:00Z</time>
      </trkpt>
      <trkpt lat="48.77687" lon="6.09241">
        <ele>357.27</ele>
        <time>2020-08-19T13:00:01Z</time>
      </trkpt>
      <trkpt lat="48.77664" lon="6.09287">
        <ele>354.86</ele>
        <time>2020-08-19T13:00:12Z</time>
      </trkpt>
      <trkpt lat="48.77638" lon="6.09344">
        <ele>351.5</ele>
        <time>2020-08-19T13:00:24Z</time>
      </trkpt>
      <trkpt lat="48.77616" lon="6.09392">
        <ele>350.06</ele>
        <time>2020-08-19T13:00:33Z</time>
      </trkpt>
      <trkpt lat="48.77613" lon="6.09398">
        <ele>350.06</ele>
        <time>2020-08-19T13:00:34Z</time>
      </trkpt>
      <trkpt lat="48.77608" lon="6.09408">
        <ele>349.58</ele>
        <time>2020-08-19T13:00:36Z</time>
      </trkpt>
      <trkpt lat="48.77605" lon="6.09413">
        <ele>349.58</ele>
        <time>2020-08-19T13:00:37Z</time>
      </trkpt>
      <trkpt lat="48.77599" lon="6.09422">
        <ele>348.62</ele>
        <time>2020-08-19T13:00:39Z</time>
      </trkpt>
      <trkpt lat="48.77597" lon="6.09429">
        <ele>348.62</ele>
        <time>2020-08-19T13:00:40Z</time>
      </trkpt>
      <trkpt lat="48.77594" lon="6.09435">
        <ele>348.62</ele>
        <time>2020-08-19T13:00:41Z</time>
      </trkpt>
      <trkpt lat="48.7759" lon="6.0944">
        <ele>348.62</ele>
        <time>2020-08-19T13:00:42Z</time>
      </trkpt>
      <trkpt lat="48.77586" lon="6.09447">
        <ele>348.62</ele>
        <time>2020-08-19T13:00:43Z</time>
      </trkpt>
      <trkpt lat="48.77568" lon="6.09484">
        <ele>346.69</ele>
        <time>2020-08-19T13:00:48Z</time>
      </trkpt>
      <trkpt lat="48.77565" lon="6.09494">
        <ele>346.21</ele>
        <time>2020-08-19T13:00:49Z</time>
      </trkpt>
      <trkpt lat="48.77559" lon="6.09512">
        <ele>345.25</ele>
        <time>2020-08-19T13:00:51Z</time>
      </trkpt>
      <trkpt lat="48.77555" lon="6.0952">
        <ele>344.77</ele>
        <time>2020-08-19T13:00:52Z</time>
      </trkpt>
      <trkpt lat="48.77548" lon="6.09534">
        <ele>343.81</ele>
        <time>2020-08-19T13:00:54Z</time>
      </trkpt>
      <trkpt lat="48.77544" lon="6.0954">
        <ele>343.33</ele>
        <time>2020-08-19T13:00:55Z</time>
      </trkpt>
      <trkpt lat="48.77541" lon="6.09547">
        <ele>343.33</ele>
        <time>2020-08-19T13:00:56Z</time>
      </trkpt>
      <trkpt lat="48.77531" lon="6.09571">
        <ele>343.33</ele>
        <time>2020-08-19T13:01:00Z</time>
      </trkpt>
      <trkpt lat="48.77529" lon="6.09576">
        <ele>343.33</ele>
        <time>2020-08-19T13:01:01Z</time>
      </trkpt>
      <trkpt lat="48.77511" lon="6.09622">
        <ele>341.41</ele>
        <time>2020-08-19T13:01:09Z</time>
      </trkpt>
      <trkpt lat="48.77508" lon="6.09628">
        <ele>341.41</ele>
        <time>2020-08-19T13:01:10Z</time>
      </trkpt>
      <trkpt lat="48.77505" lon="6.09633">
        <ele>341.41</ele>
        <time>2020-08-19T13:01:11Z</time>
      </trkpt>
      <trkpt lat="48.77502" lon="6.09639">
        <ele>340.92</ele>
        <time>2020-08-19T13:01:12Z</time>
      </trkpt>
      <trkpt lat="48.775" lon="6.09645">
        <ele>340.92</ele>
        <time>2020-08-19T13:01:13Z</time>
      </trkpt>
      <trkpt lat="48.77493" lon="6.09657">
        <ele>340.44</ele>
        <time>2020-08-19T13:01:15Z</time>
      </trkpt>
      <trkpt lat="48.77491" lon="6.09663">
        <ele>340.44</ele>
        <time>2020-08-19T13:01:16Z</time>
      </trkpt>
      <trkpt lat="48.77484" lon="6.0968">
        <ele>343.33</ele>
        <time>2020-08-19T13:01:25Z</time>
      </trkpt>
      <trkpt lat="48.77473" lon="6.09705">
        <ele>348.13</ele>
        <time>2020-08-19T13:01:38Z</time>
      </trkpt>
      <trkpt lat="48.77458" lon="6.0974">
        <ele>349.58</ele>
        <time>2020-08-19T13:01:49Z</time>
      </trkpt>
      <trkpt lat="48.77438" lon="6.09778">
        <ele>347.17</ele>
        <time>2020-08-19T13:01:58Z</time>
      </trkpt>
      <trkpt lat="48.77417" lon="6.09824">
        <ele>347.17</ele>
        <time>2020-08-19T13:02:08Z</time>
      </trkpt>
      <trkpt lat="48.77415" lon="6.09828">
        <ele>347.65</ele>
        <time>2020-08-19T13:02:09Z</time>
      </trkpt>
      <trkpt lat="48.77397" lon="6.09872">
        <ele>349.58</ele>
        <time>2020-08-19T13:02:20Z</time>
      </trkpt>
      <trkpt lat="48.77378" lon="6.09912">
        <ele>347.65</ele>
        <time>2020-08-19T13:02:30Z</time>
      </trkpt>
      <trkpt lat="48.77362" lon="6.09948">
        <ele>347.65</ele>
        <time>2020-08-19T13:02:40Z</time>
      </trkpt>
      <trkpt lat="48.77339" lon="6.09993">
        <ele>351.98</ele>
        <time>2020-08-19T13:02:52Z</time>
      </trkpt>
      <trkpt lat="48.77316" lon="6.1004">
        <ele>355.34</ele>
        <time>2020-08-19T13:03:04Z</time>
      </trkpt>
      <trkpt lat="48.77302" lon="6.10084">
        <ele>359.67</ele>
        <time>2020-08-19T13:03:15Z</time>
      </trkpt>
      <trkpt lat="48.77281" lon="6.10132">
        <ele>360.15</ele>
        <time>2020-08-19T13:03:26Z</time>
      </trkpt>
      <trkpt lat="48.7726" lon="6.10181">
        <ele>357.75</ele>
        <time>2020-08-19T13:03:38Z</time>
      </trkpt>
      <trkpt lat="48.77242" lon="6.1023">
        <ele>357.75</ele>
        <time>2020-08-19T13:03:48Z</time>
      </trkpt>
      <trkpt lat="48.77243" lon="6.10233">
        <ele>357.75</ele>
        <time>2020-08-19T13:03:49Z</time>
      </trkpt>
      <trkpt lat="48.77244" lon="6.10237">
        <ele>358.23</ele>
        <time>2020-08-19T13:03:50Z</time>
      </trkpt>
      <trkpt lat="48.77245" lon="6.10242">
        <ele>358.71</ele>
        <time>2020-08-19T13:03:51Z</time>
      </trkpt>
      <trkpt lat="48.77245" lon="6.10248">
        <ele>359.19</ele>
        <time>2020-08-19T13:03:52Z</time>
      </trkpt>
      <trkpt lat="48.77245" lon="6.10254">
        <ele>359.67</ele>
        <time>2020-08-19T13:03:53Z</time>
      </trkpt>
      <trkpt lat="48.77254" lon="6.10341">
        <ele>358.23</ele>
        <time>2020-08-19T13:04:06Z</time>
      </trkpt>
      <trkpt lat="48.77266" lon="6.1045">
        <ele>356.31</ele>
        <time>2020-08-19T13:04:21Z</time>
      </trkpt>
      <trkpt lat="48.7728" lon="6.10572">
        <ele>354.86</ele>
        <time>2020-08-19T13:04:37Z</time>
      </trkpt>
      <trkpt lat="48.7729" lon="6.10654">
        <ele>354.38</ele>
        <time>2020-08-19T13:04:48Z</time>
      </trkpt>
      <trkpt lat="48.77291" lon="6.10661">
        <ele>354.38</ele>
        <time>2020-08-19T13:04:49Z</time>
      </trkpt>
      <trkpt lat="48.77301" lon="6.10744">
        <ele>352.94</ele>
        <time>2020-08-19T13:05:00Z</time>
      </trkpt>
      <trkpt lat="48.77301" lon="6.10751">
        <ele>352.46</ele>
        <time>2020-08-19T13:05:01Z</time>
      </trkpt>
      <trkpt lat="48.77315" lon="6.10881">
        <ele>351.02</ele>
        <time>2020-08-19T13:05:18Z</time>
      </trkpt>
      <trkpt lat="48.77331" lon="6.11022">
        <ele>349.1</ele>
        <time>2020-08-19T13:05:36Z</time>
      </trkpt>
      <trkpt lat="48.77334" lon="6.11038">
        <ele>349.1</ele>
        <time>2020-08-19T13:05:38Z</time>
      </trkpt>
      <trkpt lat="48.77345" lon="6.11169">
        <ele>346.21</ele>
        <time>2020-08-19T13:05:54Z</time>
      </trkpt>
      <trkpt lat="48.7736" lon="6.11299">
        <ele>345.73</ele>
        <time>2020-08-19T13:06:10Z</time>
      </trkpt>
      <trkpt lat="48.77374" lon="6.11413">
        <ele>346.69</ele>
        <time>2020-08-19T13:06:25Z</time>
      </trkpt>
      <trkpt lat="48.7738" lon="6.11455">
        <ele>347.65</ele>
        <time>2020-08-19T13:06:30Z</time>
      </trkpt>
      <trkpt lat="48.77381" lon="6.11471">
        <ele>348.62</ele>
        <time>2020-08-19T13:06:33Z</time>
      </trkpt>
      <trkpt lat="48.77379" lon="6.11473">
        <ele>348.62</ele>
        <time>2020-08-19T13:06:34Z</time>
      </trkpt>
      <trkpt lat="48.77375" lon="6.11475">
        <ele>348.13</ele>
        <time>2020-08-19T13:06:35Z</time>
      </trkpt>
      <trkpt lat="48.77373" lon="6.11475">
        <ele>348.13</ele>
        <time>2020-08-19T13:06:36Z</time>
      </trkpt>
      <trkpt lat="48.77369" lon="6.11475">
        <ele>347.65</ele>
        <time>2020-08-19T13:06:37Z</time>
      </trkpt>
      <trkpt lat="48.7736" lon="6.11475">
        <ele>347.65</ele>
        <time>2020-08-19T13:06:39Z</time>
      </trkpt>
      <trkpt lat="48.77356" lon="6.11475">
        <ele>347.17</ele>
        <time>2020-08-19T13:06:40Z</time>
      </trkpt>
      <trkpt lat="48.77287" lon="6.11474">
        <ele>343.33</ele>
        <time>2020-08-19T13:06:53Z</time>
      </trkpt>
      <trkpt lat="48.77208" lon="6.11471">
        <ele>339.48</ele>
        <time>2020-08-19T13:07:05Z</time>
      </trkpt>
      <trkpt lat="48.7713" lon="6.11466">
        <ele>332.75</ele>
        <time>2020-08-19T13:07:16Z</time>
      </trkpt>
      <trkpt lat="48.77114" lon="6.11465">
        <ele>330.83</ele>
        <time>2020-08-19T13:07:20Z</time>
      </trkpt>
      <trkpt lat="48.77112" lon="6.11462">
        <ele>330.35</ele>
        <time>2020-08-19T13:07:21Z</time>
      </trkpt>
      <trkpt lat="48.7711" lon="6.11456">
        <ele>329.39</ele>
        <time>2020-08-19T13:07:22Z</time>
      </trkpt>
      <trkpt lat="48.77092" lon="6.11374">
        <ele>326.02</ele>
        <time>2020-08-19T13:07:35Z</time>
      </trkpt>
      <trkpt lat="48.77089" lon="6.11371">
        <ele>326.02</ele>
        <time>2020-08-19T13:07:36Z</time>
      </trkpt>
      <trkpt lat="48.77086" lon="6.11371">
        <ele>325.54</ele>
        <time>2020-08-19T13:07:37Z</time>
      </trkpt>
      <trkpt lat="48.77083" lon="6.11372">
        <ele>325.06</ele>
        <time>2020-08-19T13:07:38Z</time>
      </trkpt>
      <trkpt lat="48.77068" lon="6.11377">
        <ele>323.62</ele>
        <time>2020-08-19T13:07:42Z</time>
      </trkpt>
      <trkpt lat="48.77044" lon="6.11392">
        <ele>321.7</ele>
        <time>2020-08-19T13:07:51Z</time>
      </trkpt>
      <trkpt lat="48.7703" lon="6.11401">
        <ele>320.26</ele>
        <time>2020-08-19T13:07:59Z</time>
      </trkpt>
      <trkpt lat="48.77029" lon="6.11405">
        <ele>318.81</ele>
        <time>2020-08-19T13:08:07Z</time>
      </trkpt>
      <trkpt lat="48.77038" lon="6.11431">
        <ele>321.22</ele>
        <time>2020-08-19T13:08:15Z</time>
      </trkpt>
      <trkpt lat="48.77023" lon="6.11462">
        <ele>319.78</ele>
        <time>2020-08-19T13:08:25Z</time>
      </trkpt>
      <trkpt lat="48.77017" lon="6.11475">
        <ele>319.3</ele>
        <time>2020-08-19T13:08:29Z</time>
      </trkpt>
      <trkpt lat="48.77004" lon="6.11489">
        <ele>319.3</ele>
        <time>2020-08-19T13:08:34Z</time>
      </trkpt>
      <trkpt lat="48.76986" lon="6.11504">
        <ele>319.3</ele>
        <time>2020-08-19T13:08:40Z</time>
      </trkpt>
      <trkpt lat="48.76965" lon="6.11516">
        <ele>318.81</ele>
        <time>2020-08-19T13:08:52Z</time>
      </trkpt>
      <trkpt lat="48.76963" lon="6.11518">
        <ele>317.85</ele>
        <time>2020-08-19T13:08:54Z</time>
      </trkpt>
      <trkpt lat="48.76943" lon="6.11492">
        <ele>316.89</ele>
        <time>2020-08-19T13:09:05Z</time>
      </trkpt>
      <trkpt lat="48.76939" lon="6.11487">
        <ele>315.45</ele>
        <time>2020-08-19T13:09:08Z</time>
      </trkpt>
      <trkpt lat="48.76931" lon="6.11492">
        <ele>313.53</ele>
        <time>2020-08-19T13:09:13Z</time>
      </trkpt>
      <trkpt lat="48.76924" lon="6.11497">
        <ele>312.09</ele>
        <time>2020-08-19T13:09:16Z</time>
      </trkpt>
      <trkpt lat="48.76881" lon="6.11499">
        <ele>308.24</ele>
        <time>2020-08-19T13:09:29Z</time>
      </trkpt>
      <trkpt lat="48.76868" lon="6.11516">
        <ele>306.8</ele>
        <time>2020-08-19T13:09:33Z</time>
      </trkpt>
      <trkpt lat="48.76864" lon="6.11518">
        <ele>306.8</ele>
        <time>2020-08-19T13:09:34Z</time>
      </trkpt>
      <trkpt lat="48.7686" lon="6.11519">
        <ele>306.32</ele>
        <time>2020-08-19T13:09:35Z</time>
      </trkpt>
      <trkpt lat="48.76856" lon="6.11518">
        <ele>306.32</ele>
        <time>2020-08-19T13:09:36Z</time>
      </trkpt>
      <trkpt lat="48.76852" lon="6.11515">
        <ele>305.84</ele>
        <time>2020-08-19T13:09:37Z</time>
      </trkpt>
      <trkpt lat="48.76848" lon="6.1151">
        <ele>305.84</ele>
        <time>2020-08-19T13:09:38Z</time>
      </trkpt>
      <trkpt lat="48.76846" lon="6.11504">
        <ele>305.36</ele>
        <time>2020-08-19T13:09:39Z</time>
      </trkpt>
      <trkpt lat="48.76813" lon="6.11431">
        <ele>302.95</ele>
        <time>2020-08-19T13:09:51Z</time>
      </trkpt>
      <trkpt lat="48.76812" lon="6.11423">
        <ele>302.95</ele>
        <time>2020-08-19T13:09:52Z</time>
      </trkpt>
      <trkpt lat="48.76812" lon="6.11415">
        <ele>302.95</ele>
        <time>2020-08-19T13:09:53Z</time>
      </trkpt>
      <trkpt lat="48.76812" lon="6.11406">
        <ele>302.95</ele>
        <time>2020-08-19T13:09:54Z</time>
      </trkpt>
      <trkpt lat="48.76811" lon="6.11399">
        <ele>302.95</ele>
        <time>2020-08-19T13:09:55Z</time>
      </trkpt>
      <trkpt lat="48.7681" lon="6.11392">
        <ele>302.95</ele>
        <time>2020-08-19T13:09:56Z</time>
      </trkpt>
      <trkpt lat="48.76808" lon="6.11385">
        <ele>302.95</ele>
        <time>2020-08-19T13:09:57Z</time>
      </trkpt>
      <trkpt lat="48.76807" lon="6.11377">
        <ele>302.47</ele>
        <time>2020-08-19T13:09:58Z</time>
      </trkpt>
      <trkpt lat="48.76806" lon="6.11371">
        <ele>302.95</ele>
        <time>2020-08-19T13:09:59Z</time>
      </trkpt>
      <trkpt lat="48.76806" lon="6.11365">
        <ele>302.47</ele>
        <time>2020-08-19T13:10:00Z</time>
      </trkpt>
      <trkpt lat="48.76807" lon="6.11359">
        <ele>302.95</ele>
        <time>2020-08-19T13:10:01Z</time>
      </trkpt>
      <trkpt lat="48.76809" lon="6.11353">
        <ele>302.95</ele>
        <time>2020-08-19T13:10:02Z</time>
      </trkpt>
      <trkpt lat="48.76811" lon="6.11348">
        <ele>302.95</ele>
        <time>2020-08-19T13:10:03Z</time>
      </trkpt>
      <trkpt lat="48.76813" lon="6.11342">
        <ele>303.43</ele>
        <time>2020-08-19T13:10:04Z</time>
      </trkpt>
      <trkpt lat="48.76849" lon="6.11292">
        <ele>306.8</ele>
        <time>2020-08-19T13:10:19Z</time>
      </trkpt>
      <trkpt lat="48.76893" lon="6.11246">
        <ele>309.2</ele>
        <time>2020-08-19T13:10:37Z</time>
      </trkpt>
      <trkpt lat="48.76926" lon="6.1121">
        <ele>310.64</ele>
        <time>2020-08-19T13:10:50Z</time>
      </trkpt>
      <trkpt lat="48.76961" lon="6.11172">
        <ele>313.53</ele>
        <time>2020-08-19T13:11:05Z</time>
      </trkpt>
      <trkpt lat="48.76979" lon="6.11157">
        <ele>314.97</ele>
        <time>2020-08-19T13:11:14Z</time>
      </trkpt>
      <trkpt lat="48.7698" lon="6.11154">
        <ele>315.45</ele>
        <time>2020-08-19T13:11:15Z</time>
      </trkpt>
      <trkpt lat="48.76972" lon="6.1111">
        <ele>315.45</ele>
        <time>2020-08-19T13:11:29Z</time>
      </trkpt>
      <trkpt lat="48.76961" lon="6.1109">
        <ele>316.41</ele>
        <time>2020-08-19T13:11:41Z</time>
      </trkpt>
      <trkpt lat="48.76952" lon="6.1107">
        <ele>316.41</ele>
        <time>2020-08-19T13:11:53Z</time>
      </trkpt>
      <trkpt lat="48.76929" lon="6.11019">
        <ele>316.89</ele>
        <time>2020-08-19T13:12:06Z</time>
      </trkpt>
      <trkpt lat="48.76909" lon="6.10963">
        <ele>317.85</ele>
        <time>2020-08-19T13:12:19Z</time>
      </trkpt>
      <trkpt lat="48.76906" lon="6.10937">
        <ele>320.26</ele>
        <time>2020-08-19T13:12:30Z</time>
      </trkpt>
      <trkpt lat="48.76904" lon="6.10936">
        <ele>320.26</ele>
        <time>2020-08-19T13:12:34Z</time>
      </trkpt>
      <trkpt lat="48.76902" lon="6.1093">
        <ele>320.26</ele>
        <time>2020-08-19T13:12:39Z</time>
      </trkpt>
      <trkpt lat="48.769" lon="6.10924">
        <ele>320.74</ele>
        <time>2020-08-19T13:12:50Z</time>
      </trkpt>
      <trkpt lat="48.76899" lon="6.10919">
        <ele>320.74</ele>
        <time>2020-08-19T13:12:52Z</time>
      </trkpt>
      <trkpt lat="48.76899" lon="6.10916">
        <ele>321.22</ele>
        <time>2020-08-19T13:12:53Z</time>
      </trkpt>
      <trkpt lat="48.76898" lon="6.10914">
        <ele>321.22</ele>
        <time>2020-08-19T13:12:54Z</time>
      </trkpt>
      <trkpt lat="48.76897" lon="6.10912">
        <ele>321.22</ele>
        <time>2020-08-19T13:12:55Z</time>
      </trkpt>
      <trkpt lat="48.76895" lon="6.10909">
        <ele>321.7</ele>
        <time>2020-08-19T13:12:56Z</time>
      </trkpt>
      <trkpt lat="48.76893" lon="6.10906">
        <ele>321.7</ele>
        <time>2020-08-19T13:12:57Z</time>
      </trkpt>
      <trkpt lat="48.76882" lon="6.10862">
        <ele>325.06</ele>
        <time>2020-08-19T13:13:09Z</time>
      </trkpt>
      <trkpt lat="48.76877" lon="6.10823">
        <ele>327.95</ele>
        <time>2020-08-19T13:13:20Z</time>
      </trkpt>
      <trkpt lat="48.76879" lon="6.10778">
        <ele>333.23</ele>
        <time>2020-08-19T13:13:33Z</time>
      </trkpt>
      <trkpt lat="48.76882" lon="6.10733">
        <ele>336.12</ele>
        <time>2020-08-19T13:13:47Z</time>
      </trkpt>
      <trkpt lat="48.76887" lon="6.10693">
        <ele>339.48</ele>
        <time>2020-08-19T13:14:00Z</time>
      </trkpt>
      <trkpt lat="48.76893" lon="6.10664">
        <ele>342.37</ele>
        <time>2020-08-19T13:14:11Z</time>
      </trkpt>
      <trkpt lat="48.76899" lon="6.10635">
        <ele>343.33</ele>
        <time>2020-08-19T13:14:22Z</time>
      </trkpt>
      <trkpt lat="48.76907" lon="6.10592">
        <ele>345.73</ele>
        <time>2020-08-19T13:14:37Z</time>
      </trkpt>
      <trkpt lat="48.76916" lon="6.10547">
        <ele>347.65</ele>
        <time>2020-08-19T13:14:53Z</time>
      </trkpt>
      <trkpt lat="48.76918" lon="6.1053">
        <ele>348.13</ele>
        <time>2020-08-19T13:14:58Z</time>
      </trkpt>
      <trkpt lat="48.76921" lon="6.10511">
        <ele>346.69</ele>
        <time>2020-08-19T13:15:04Z</time>
      </trkpt>
      <trkpt lat="48.76929" lon="6.10462">
        <ele>349.1</ele>
        <time>2020-08-19T13:15:18Z</time>
      </trkpt>
      <trkpt lat="48.76936" lon="6.10405">
        <ele>351.5</ele>
        <time>2020-08-19T13:15:34Z</time>
      </trkpt>
      <trkpt lat="48.76943" lon="6.10352">
        <ele>352.46</ele>
        <time>2020-08-19T13:15:48Z</time>
      </trkpt>
      <trkpt lat="48.76949" lon="6.10295">
        <ele>353.9</ele>
        <time>2020-08-19T13:16:03Z</time>
      </trkpt>
      <trkpt lat="48.76951" lon="6.10221">
        <ele>353.9</ele>
        <time>2020-08-19T13:16:22Z</time>
      </trkpt>
      <trkpt lat="48.76961" lon="6.10157">
        <ele>353.9</ele>
        <time>2020-08-19T13:16:38Z</time>
      </trkpt>
      <trkpt lat="48.76984" lon="6.10106">
        <ele>354.38</ele>
        <time>2020-08-19T13:16:52Z</time>
      </trkpt>
      <trkpt lat="48.77002" lon="6.10065">
        <ele>354.86</ele>
        <time>2020-08-19T13:17:03Z</time>
      </trkpt>
      <trkpt lat="48.77023" lon="6.1001">
        <ele>360.15</ele>
        <time>2020-08-19T13:17:16Z</time>
      </trkpt>
      <trkpt lat="48.7704" lon="6.09962">
        <ele>364</ele>
        <time>2020-08-19T13:17:28Z</time>
      </trkpt>
      <trkpt lat="48.77058" lon="6.09917">
        <ele>366.88</ele>
        <time>2020-08-19T13:17:39Z</time>
      </trkpt>
      <trkpt lat="48.77075" lon="6.09875">
        <ele>372.17</ele>
        <time>2020-08-19T13:17:51Z</time>
      </trkpt>
      <trkpt lat="48.7709" lon="6.09834">
        <ele>375.53</ele>
        <time>2020-08-19T13:18:01Z</time>
      </trkpt>
      <trkpt lat="48.771" lon="6.09808">
        <ele>376.49</ele>
        <time>2020-08-19T13:18:07Z</time>
      </trkpt>
      <trkpt lat="48.77103" lon="6.09805">
        <ele>376.49</ele>
        <time>2020-08-19T13:18:08Z</time>
      </trkpt>
      <trkpt lat="48.77104" lon="6.09804">
        <ele>376.97</ele>
        <time>2020-08-19T13:18:09Z</time>
      </trkpt>
      <trkpt lat="48.77106" lon="6.09801">
        <ele>376.49</ele>
        <time>2020-08-19T13:18:10Z</time>
      </trkpt>
      <trkpt lat="48.77106" lon="6.09798">
        <ele>376.49</ele>
        <time>2020-08-19T13:18:11Z</time>
      </trkpt>
      <trkpt lat="48.77106" lon="6.09795">
        <ele>376.01</ele>
        <time>2020-08-19T13:18:12Z</time>
      </trkpt>
      <trkpt lat="48.77107" lon="6.09791">
        <ele>375.53</ele>
        <time>2020-08-19T13:18:13Z</time>
      </trkpt>
      <trkpt lat="48.77108" lon="6.09786">
        <ele>375.05</ele>
        <time>2020-08-19T13:18:14Z</time>
      </trkpt>
      <trkpt lat="48.7711" lon="6.09781">
        <ele>374.57</ele>
        <time>2020-08-19T13:18:15Z</time>
      </trkpt>
      <trkpt lat="48.77111" lon="6.09777">
        <ele>373.61</ele>
        <time>2020-08-19T13:18:16Z</time>
      </trkpt>
      <trkpt lat="48.77113" lon="6.09773">
        <ele>373.13</ele>
        <time>2020-08-19T13:18:17Z</time>
      </trkpt>
      <trkpt lat="48.77128" lon="6.09728">
        <ele>371.69</ele>
        <time>2020-08-19T13:18:27Z</time>
      </trkpt>
      <trkpt lat="48.7714" lon="6.09673">
        <ele>368.8</ele>
        <time>2020-08-19T13:18:39Z</time>
      </trkpt>
      <trkpt lat="48.77149" lon="6.0963">
        <ele>366.88</ele>
        <time>2020-08-19T13:18:48Z</time>
      </trkpt>
      <trkpt lat="48.77161" lon="6.09583">
        <ele>365.92</ele>
        <time>2020-08-19T13:18:58Z</time>
      </trkpt>
      <trkpt lat="48.77173" lon="6.09534">
        <ele>366.88</ele>
        <time>2020-08-19T13:19:08Z</time>
      </trkpt>
      <trkpt lat="48.77186" lon="6.09489">
        <ele>366.88</ele>
        <time>2020-08-19T13:19:17Z</time>
      </trkpt>
      <trkpt lat="48.77207" lon="6.09425">
        <ele>367.84</ele>
        <time>2020-08-19T13:19:29Z</time>
      </trkpt>
      <trkpt lat="48.77222" lon="6.09377">
        <ele>369.28</ele>
        <time>2020-08-19T13:19:37Z</time>
      </trkpt>
      <trkpt lat="48.77224" lon="6.0937">
        <ele>369.28</ele>
        <time>2020-08-19T13:19:38Z</time>
      </trkpt>
      <trkpt lat="48.77225" lon="6.09363">
        <ele>369.76</ele>
        <time>2020-08-19T13:19:39Z</time>
      </trkpt>
      <trkpt lat="48.7724" lon="6.093">
        <ele>370.73</ele>
        <time>2020-08-19T13:19:50Z</time>
      </trkpt>
      <trkpt lat="48.77255" lon="6.09217">
        <ele>372.65</ele>
        <time>2020-08-19T13:20:03Z</time>
      </trkpt>
      <trkpt lat="48.77256" lon="6.0921">
        <ele>373.13</ele>
        <time>2020-08-19T13:20:04Z</time>
      </trkpt>
      <trkpt lat="48.77264" lon="6.09159">
        <ele>373.13</ele>
        <time>2020-08-19T13:20:11Z</time>
      </trkpt>
      <trkpt lat="48.77266" lon="6.09092">
        <ele>371.69</ele>
        <time>2020-08-19T13:20:21Z</time>
      </trkpt>
      <trkpt lat="48.7724" lon="6.09016">
        <ele>364</ele>
        <time>2020-08-19T13:20:31Z</time>
      </trkpt>
      <trkpt lat="48.77238" lon="6.09009">
        <ele>363.52</ele>
        <time>2020-08-19T13:20:32Z</time>
      </trkpt>
      <trkpt lat="48.77235" lon="6.09001">
        <ele>363.04</ele>
        <time>2020-08-19T13:20:33Z</time>
      </trkpt>
      <trkpt lat="48.77227" lon="6.08978">
        <ele>361.11</ele>
        <time>2020-08-19T13:20:36Z</time>
      </trkpt>
      <trkpt lat="48.77225" lon="6.08971">
        <ele>360.63</ele>
        <time>2020-08-19T13:20:37Z</time>
      </trkpt>
      <trkpt lat="48.77223" lon="6.08965">
        <ele>360.15</ele>
        <time>2020-08-19T13:20:38Z</time>
      </trkpt>
      <trkpt lat="48.77222" lon="6.08958">
        <ele>359.19</ele>
        <time>2020-08-19T13:20:39Z</time>
      </trkpt>
      <trkpt lat="48.7722" lon="6.08951">
        <ele>358.23</ele>
        <time>2020-08-19T13:20:40Z</time>
      </trkpt>
      <trkpt lat="48.77219" lon="6.08943">
        <ele>357.75</ele>
        <time>2020-08-19T13:20:41Z</time>
      </trkpt>
      <trkpt lat="48.77219" lon="6.08934">
        <ele>356.31</ele>
        <time>2020-08-19T13:20:42Z</time>
      </trkpt>
      <trkpt lat="48.77203" lon="6.08847">
        <ele>348.13</ele>
        <time>2020-08-19T13:20:52Z</time>
      </trkpt>
      <trkpt lat="48.7717" lon="6.08766">
        <ele>341.89</ele>
        <time>2020-08-19T13:21:03Z</time>
      </trkpt>
      <trkpt lat="48.77122" lon="6.0868">
        <ele>341.41</ele>
        <time>2020-08-19T13:21:16Z</time>
      </trkpt>
      <trkpt lat="48.77092" lon="6.08627">
        <ele>342.37</ele>
        <time>2020-08-19T13:21:25Z</time>
      </trkpt>
      <trkpt lat="48.77077" lon="6.08592">
        <ele>342.37</ele>
        <time>2020-08-19T13:21:30Z</time>
      </trkpt>
      <trkpt lat="48.77069" lon="6.08572">
        <ele>340.92</ele>
        <time>2020-08-19T13:21:33Z</time>
      </trkpt>
      <trkpt lat="48.77044" lon="6.08512">
        <ele>337.56</ele>
        <time>2020-08-19T13:21:41Z</time>
      </trkpt>
      <trkpt lat="48.76992" lon="6.08414">
        <ele>334.2</ele>
        <time>2020-08-19T13:21:54Z</time>
      </trkpt>
      <trkpt lat="48.76965" lon="6.08362">
        <ele>332.27</ele>
        <time>2020-08-19T13:22:01Z</time>
      </trkpt>
      <trkpt lat="48.76961" lon="6.08355">
        <ele>331.79</ele>
        <time>2020-08-19T13:22:02Z</time>
      </trkpt>
      <trkpt lat="48.76945" lon="6.08323">
        <ele>331.31</ele>
        <time>2020-08-19T13:22:06Z</time>
      </trkpt>
      <trkpt lat="48.76897" lon="6.08239">
        <ele>328.43</ele>
        <time>2020-08-19T13:22:17Z</time>
      </trkpt>
      <trkpt lat="48.76888" lon="6.08223">
        <ele>327.47</ele>
        <time>2020-08-19T13:22:19Z</time>
      </trkpt>
      <trkpt lat="48.76884" lon="6.08214">
        <ele>326.5</ele>
        <time>2020-08-19T13:22:20Z</time>
      </trkpt>
      <trkpt lat="48.7688" lon="6.08204">
        <ele>326.02</ele>
        <time>2020-08-19T13:22:21Z</time>
      </trkpt>
      <trkpt lat="48.76876" lon="6.08196">
        <ele>325.54</ele>
        <time>2020-08-19T13:22:22Z</time>
      </trkpt>
      <trkpt lat="48.76873" lon="6.08187">
        <ele>325.06</ele>
        <time>2020-08-19T13:22:23Z</time>
      </trkpt>
      <trkpt lat="48.76842" lon="6.08103">
        <ele>319.78</ele>
        <time>2020-08-19T13:22:32Z</time>
      </trkpt>
      <trkpt lat="48.76838" lon="6.08094">
        <ele>319.78</ele>
        <time>2020-08-19T13:22:33Z</time>
      </trkpt>
      <trkpt lat="48.76831" lon="6.08082">
        <ele>319.3</ele>
        <time>2020-08-19T13:22:35Z</time>
      </trkpt>
      <trkpt lat="48.76828" lon="6.08076">
        <ele>318.81</ele>
        <time>2020-08-19T13:22:36Z</time>
      </trkpt>
      <trkpt lat="48.76798" lon="6.08024">
        <ele>314.49</ele>
        <time>2020-08-19T13:22:46Z</time>
      </trkpt>
      <trkpt lat="48.76795" lon="6.08022">
        <ele>311.6</ele>
        <time>2020-08-19T13:22:59Z</time>
      </trkpt>
      <trkpt lat="48.76793" lon="6.08025">
        <ele>312.09</ele>
        <time>2020-08-19T13:23:03Z</time>
      </trkpt>
      <trkpt lat="48.76788" lon="6.08028">
        <ele>312.57</ele>
        <time>2020-08-19T13:23:06Z</time>
      </trkpt>
      <trkpt lat="48.76777" lon="6.0804">
        <ele>316.41</ele>
        <time>2020-08-19T13:23:16Z</time>
      </trkpt>
      <trkpt lat="48.76761" lon="6.08059">
        <ele>317.85</ele>
        <time>2020-08-19T13:23:29Z</time>
      </trkpt>
      <trkpt lat="48.76744" lon="6.08087">
        <ele>320.26</ele>
        <time>2020-08-19T13:23:46Z</time>
      </trkpt>
      <trkpt lat="48.76742" lon="6.08089">
        <ele>320.26</ele>
        <time>2020-08-19T13:23:47Z</time>
      </trkpt>
      <trkpt lat="48.76724" lon="6.08124">
        <ele>322.66</ele>
        <time>2020-08-19T13:24:05Z</time>
      </trkpt>
      <trkpt lat="48.76705" lon="6.08158">
        <ele>323.14</ele>
        <time>2020-08-19T13:24:21Z</time>
      </trkpt>
      <trkpt lat="48.7669" lon="6.08182">
        <ele>325.54</ele>
        <time>2020-08-19T13:24:35Z</time>
      </trkpt>
      <trkpt lat="48.76671" lon="6.08214">
        <ele>329.87</ele>
        <time>2020-08-19T13:24:54Z</time>
      </trkpt>
      <trkpt lat="48.76656" lon="6.0824">
        <ele>333.23</ele>
        <time>2020-08-19T13:25:08Z</time>
      </trkpt>
      <trkpt lat="48.76643" lon="6.08266">
        <ele>333.71</ele>
        <time>2020-08-19T13:25:22Z</time>
      </trkpt>
      <trkpt lat="48.76627" lon="6.08289">
        <ele>335.16</ele>
        <time>2020-08-19T13:25:36Z</time>
      </trkpt>
      <trkpt lat="48.76621" lon="6.08301">
        <ele>334.68</ele>
        <time>2020-08-19T13:25:42Z</time>
      </trkpt>
      <trkpt lat="48.76618" lon="6.08308">
        <ele>335.16</ele>
        <time>2020-08-19T13:25:46Z</time>
      </trkpt>
      <trkpt lat="48.76593" lon="6.08346">
        <ele>336.6</ele>
        <time>2020-08-19T13:26:02Z</time>
      </trkpt>
      <trkpt lat="48.76561" lon="6.08398">
        <ele>339</ele>
        <time>2020-08-19T13:26:19Z</time>
      </trkpt>
      <trkpt lat="48.76538" lon="6.08437">
        <ele>339.96</ele>
        <time>2020-08-19T13:26:30Z</time>
      </trkpt>
      <trkpt lat="48.76506" lon="6.08491">
        <ele>339.48</ele>
        <time>2020-08-19T13:26:43Z</time>
      </trkpt>
      <trkpt lat="48.7649" lon="6.08519">
        <ele>339.96</ele>
        <time>2020-08-19T13:26:49Z</time>
      </trkpt>
      <trkpt lat="48.76487" lon="6.08523">
        <ele>339.96</ele>
        <time>2020-08-19T13:26:50Z</time>
      </trkpt>
      <trkpt lat="48.76484" lon="6.08528">
        <ele>339.48</ele>
        <time>2020-08-19T13:26:51Z</time>
      </trkpt>
      <trkpt lat="48.76482" lon="6.08533">
        <ele>339.48</ele>
        <time>2020-08-19T13:26:52Z</time>
      </trkpt>
      <trkpt lat="48.76481" lon="6.08539">
        <ele>339.48</ele>
        <time>2020-08-19T13:26:53Z</time>
      </trkpt>
      <trkpt lat="48.76482" lon="6.08545">
        <ele>339</ele>
        <time>2020-08-19T13:26:54Z</time>
      </trkpt>
      <trkpt lat="48.76483" lon="6.08549">
        <ele>339</ele>
        <time>2020-08-19T13:26:55Z</time>
      </trkpt>
      <trkpt lat="48.76484" lon="6.08554">
        <ele>339.48</ele>
        <time>2020-08-19T13:26:56Z</time>
      </trkpt>
      <trkpt lat="48.76508" lon="6.08636">
        <ele>340.44</ele>
        <time>2020-08-19T13:27:10Z</time>
      </trkpt>
      <trkpt lat="48.7651" lon="6.08642">
        <ele>340.44</ele>
        <time>2020-08-19T13:27:11Z</time>
      </trkpt>
      <trkpt lat="48.76528" lon="6.08707">
        <ele>340.92</ele>
        <time>2020-08-19T13:27:22Z</time>
      </trkpt>
      <trkpt lat="48.7653" lon="6.08713">
        <ele>341.41</ele>
        <time>2020-08-19T13:27:23Z</time>
      </trkpt>
      <trkpt lat="48.76532" lon="6.08719">
        <ele>341.41</ele>
        <time>2020-08-19T13:27:24Z</time>
      </trkpt>
      <trkpt lat="48.76533" lon="6.08724">
        <ele>341.41</ele>
        <time>2020-08-19T13:27:25Z</time>
      </trkpt>
      <trkpt lat="48.76535" lon="6.08731">
        <ele>341.41</ele>
        <time>2020-08-19T13:27:26Z</time>
      </trkpt>
      <trkpt lat="48.76538" lon="6.08742">
        <ele>341.41</ele>
        <time>2020-08-19T13:27:28Z</time>
      </trkpt>
      <trkpt lat="48.7654" lon="6.08749">
        <ele>341.41</ele>
        <time>2020-08-19T13:27:29Z</time>
      </trkpt>
      <trkpt lat="48.76542" lon="6.08754">
        <ele>340.92</ele>
        <time>2020-08-19T13:27:30Z</time>
      </trkpt>
      <trkpt lat="48.76545" lon="6.08759">
        <ele>341.41</ele>
        <time>2020-08-19T13:27:31Z</time>
      </trkpt>
      <trkpt lat="48.76547" lon="6.08764">
        <ele>341.41</ele>
        <time>2020-08-19T13:27:32Z</time>
      </trkpt>
      <trkpt lat="48.76548" lon="6.0877">
        <ele>341.41</ele>
        <time>2020-08-19T13:27:33Z</time>
      </trkpt>
      <trkpt lat="48.76549" lon="6.08777">
        <ele>341.41</ele>
        <time>2020-08-19T13:27:34Z</time>
      </trkpt>
      <trkpt lat="48.7655" lon="6.08784">
        <ele>340.92</ele>
        <time>2020-08-19T13:27:35Z</time>
      </trkpt>
      <trkpt lat="48.76552" lon="6.0879">
        <ele>340.92</ele>
        <time>2020-08-19T13:27:36Z</time>
      </trkpt>
      <trkpt lat="48.76555" lon="6.08797">
        <ele>340.92</ele>
        <time>2020-08-19T13:27:37Z</time>
      </trkpt>
      <trkpt lat="48.76565" lon="6.08834">
        <ele>340.92</ele>
        <time>2020-08-19T13:27:43Z</time>
      </trkpt>
      <trkpt lat="48.76568" lon="6.0884">
        <ele>340.92</ele>
        <time>2020-08-19T13:27:44Z</time>
      </trkpt>
      <trkpt lat="48.76577" lon="6.08864">
        <ele>340.92</ele>
        <time>2020-08-19T13:27:48Z</time>
      </trkpt>
      <trkpt lat="48.76578" lon="6.0887">
        <ele>340.92</ele>
        <time>2020-08-19T13:27:49Z</time>
      </trkpt>
      <trkpt lat="48.7658" lon="6.08883">
        <ele>340.92</ele>
        <time>2020-08-19T13:27:51Z</time>
      </trkpt>
      <trkpt lat="48.76586" lon="6.08914">
        <ele>340.44</ele>
        <time>2020-08-19T13:27:57Z</time>
      </trkpt>
      <trkpt lat="48.76584" lon="6.08919">
        <ele>340.44</ele>
        <time>2020-08-19T13:27:58Z</time>
      </trkpt>
      <trkpt lat="48.76582" lon="6.08926">
        <ele>339.96</ele>
        <time>2020-08-19T13:27:59Z</time>
      </trkpt>
      <trkpt lat="48.76582" lon="6.08933">
        <ele>339.96</ele>
        <time>2020-08-19T13:28:00Z</time>
      </trkpt>
      <trkpt lat="48.76583" lon="6.08939">
        <ele>339.96</ele>
        <time>2020-08-19T13:28:01Z</time>
      </trkpt>
      <trkpt lat="48.76583" lon="6.08946">
        <ele>339.96</ele>
        <time>2020-08-19T13:28:02Z</time>
      </trkpt>
      <trkpt lat="48.7659" lon="6.09002">
        <ele>339</ele>
        <time>2020-08-19T13:28:11Z</time>
      </trkpt>
      <trkpt lat="48.7659" lon="6.0901">
        <ele>339</ele>
        <time>2020-08-19T13:28:12Z</time>
      </trkpt>
      <trkpt lat="48.76591" lon="6.09017">
        <ele>338.52</ele>
        <time>2020-08-19T13:28:13Z</time>
      </trkpt>
      <trkpt lat="48.76598" lon="6.09066">
        <ele>337.56</ele>
        <time>2020-08-19T13:28:20Z</time>
      </trkpt>
      <trkpt lat="48.76605" lon="6.09116">
        <ele>337.08</ele>
        <time>2020-08-19T13:28:27Z</time>
      </trkpt>
      <trkpt lat="48.76614" lon="6.09197">
        <ele>338.52</ele>
        <time>2020-08-19T13:28:40Z</time>
      </trkpt>
      <trkpt lat="48.76624" lon="6.09266">
        <ele>340.44</ele>
        <time>2020-08-19T13:28:52Z</time>
      </trkpt>
      <trkpt lat="48.76637" lon="6.09339">
        <ele>342.37</ele>
        <time>2020-08-19T13:29:04Z</time>
      </trkpt>
      <trkpt lat="48.76647" lon="6.09421">
        <ele>343.33</ele>
        <time>2020-08-19T13:29:18Z</time>
      </trkpt>
      <trkpt lat="48.76659" lon="6.09503">
        <ele>344.77</ele>
        <time>2020-08-19T13:29:32Z</time>
      </trkpt>
      <trkpt lat="48.76662" lon="6.09539">
        <ele>344.29</ele>
        <time>2020-08-19T13:29:38Z</time>
      </trkpt>
      <trkpt lat="48.76662" lon="6.09545">
        <ele>343.81</ele>
        <time>2020-08-19T13:29:39Z</time>
      </trkpt>
      <trkpt lat="48.76668" lon="6.09629">
        <ele>342.37</ele>
        <time>2020-08-19T13:29:53Z</time>
      </trkpt>
      <trkpt lat="48.76671" lon="6.09668">
        <ele>341.89</ele>
        <time>2020-08-19T13:30:03Z</time>
      </trkpt>
      <trkpt lat="48.76672" lon="6.09676">
        <ele>341.89</ele>
        <time>2020-08-19T13:30:05Z</time>
      </trkpt>
      <trkpt lat="48.76671" lon="6.09678">
        <ele>341.89</ele>
        <time>2020-08-19T13:30:06Z</time>
      </trkpt>
      <trkpt lat="48.76669" lon="6.09679">
        <ele>341.41</ele>
        <time>2020-08-19T13:30:07Z</time>
      </trkpt>
      <trkpt lat="48.76667" lon="6.0968">
        <ele>341.41</ele>
        <time>2020-08-19T13:30:08Z</time>
      </trkpt>
      <trkpt lat="48.76664" lon="6.09681">
        <ele>340.92</ele>
        <time>2020-08-19T13:30:09Z</time>
      </trkpt>
      <trkpt lat="48.76662" lon="6.09683">
        <ele>339.96</ele>
        <time>2020-08-19T13:30:10Z</time>
      </trkpt>
      <trkpt lat="48.76626" lon="6.09696">
        <ele>335.64</ele>
        <time>2020-08-19T13:30:20Z</time>
      </trkpt>
      <trkpt lat="48.76622" lon="6.09698">
        <ele>335.16</ele>
        <time>2020-08-19T13:30:21Z</time>
      </trkpt>
      <trkpt lat="48.76617" lon="6.097">
        <ele>334.2</ele>
        <time>2020-08-19T13:30:22Z</time>
      </trkpt>
      <trkpt lat="48.76613" lon="6.09702">
        <ele>333.23</ele>
        <time>2020-08-19T13:30:23Z</time>
      </trkpt>
      <trkpt lat="48.76575" lon="6.09713">
        <ele>326.5</ele>
        <time>2020-08-19T13:30:33Z</time>
      </trkpt>
      <trkpt lat="48.76554" lon="6.09719">
        <ele>324.1</ele>
        <time>2020-08-19T13:30:41Z</time>
      </trkpt>
      <trkpt lat="48.76553" lon="6.09718">
        <ele>323.62</ele>
        <time>2020-08-19T13:30:42Z</time>
      </trkpt>
      <trkpt lat="48.76551" lon="6.09716">
        <ele>323.14</ele>
        <time>2020-08-19T13:30:43Z</time>
      </trkpt>
      <trkpt lat="48.7655" lon="6.09713">
        <ele>323.14</ele>
        <time>2020-08-19T13:30:44Z</time>
      </trkpt>
      <trkpt lat="48.76549" lon="6.0971">
        <ele>322.66</ele>
        <time>2020-08-19T13:30:45Z</time>
      </trkpt>
      <trkpt lat="48.76548" lon="6.09707">
        <ele>322.66</ele>
        <time>2020-08-19T13:30:46Z</time>
      </trkpt>
      <trkpt lat="48.76547" lon="6.09704">
        <ele>322.66</ele>
        <time>2020-08-19T13:30:47Z</time>
      </trkpt>
      <trkpt lat="48.76546" lon="6.09697">
        <ele>322.18</ele>
        <time>2020-08-19T13:30:49Z</time>
      </trkpt>
      <trkpt lat="48.76539" lon="6.09676">
        <ele>321.7</ele>
        <time>2020-08-19T13:30:55Z</time>
      </trkpt>
      <trkpt lat="48.76516" lon="6.09632">
        <ele>322.66</ele>
        <time>2020-08-19T13:31:06Z</time>
      </trkpt>
      <trkpt lat="48.76498" lon="6.09571">
        <ele>323.62</ele>
        <time>2020-08-19T13:31:18Z</time>
      </trkpt>
      <trkpt lat="48.76491" lon="6.09514">
        <ele>324.58</ele>
        <time>2020-08-19T13:31:30Z</time>
      </trkpt>
      <trkpt lat="48.76483" lon="6.09457">
        <ele>326.99</ele>
        <time>2020-08-19T13:31:41Z</time>
      </trkpt>
      <trkpt lat="48.76479" lon="6.09426">
        <ele>326.99</ele>
        <time>2020-08-19T13:31:46Z</time>
      </trkpt>
      <trkpt lat="48.7647" lon="6.09356">
        <ele>325.06</ele>
        <time>2020-08-19T13:31:58Z</time>
      </trkpt>
      <trkpt lat="48.76464" lon="6.09299">
        <ele>323.14</ele>
        <time>2020-08-19T13:32:07Z</time>
      </trkpt>
      <trkpt lat="48.76463" lon="6.09293">
        <ele>323.14</ele>
        <time>2020-08-19T13:32:08Z</time>
      </trkpt>
      <trkpt lat="48.76462" lon="6.09287">
        <ele>323.14</ele>
        <time>2020-08-19T13:32:09Z</time>
      </trkpt>
      <trkpt lat="48.76461" lon="6.09281">
        <ele>323.14</ele>
        <time>2020-08-19T13:32:10Z</time>
      </trkpt>
      <trkpt lat="48.76461" lon="6.09276">
        <ele>323.14</ele>
        <time>2020-08-19T13:32:11Z</time>
      </trkpt>
      <trkpt lat="48.76457" lon="6.09261">
        <ele>324.1</ele>
        <time>2020-08-19T13:32:14Z</time>
      </trkpt>
      <trkpt lat="48.76454" lon="6.09258">
        <ele>324.1</ele>
        <time>2020-08-19T13:32:15Z</time>
      </trkpt>
      <trkpt lat="48.76419" lon="6.09228">
        <ele>323.14</ele>
        <time>2020-08-19T13:32:25Z</time>
      </trkpt>
      <trkpt lat="48.76407" lon="6.09192">
        <ele>320.74</ele>
        <time>2020-08-19T13:32:35Z</time>
      </trkpt>
      <trkpt lat="48.76412" lon="6.09171">
        <ele>320.74</ele>
        <time>2020-08-19T13:32:40Z</time>
      </trkpt>
      <trkpt lat="48.76431" lon="6.09115">
        <ele>320.74</ele>
        <time>2020-08-19T13:32:52Z</time>
      </trkpt>
      <trkpt lat="48.76431" lon="6.09079">
        <ele>317.85</ele>
        <time>2020-08-19T13:33:01Z</time>
      </trkpt>
      <trkpt lat="48.76433" lon="6.09072">
        <ele>314.49</ele>
        <time>2020-08-19T13:33:08Z</time>
      </trkpt>
      <trkpt lat="48.76436" lon="6.09072">
        <ele>314.49</ele>
        <time>2020-08-19T13:33:11Z</time>
      </trkpt>
      <trkpt lat="48.76438" lon="6.09073">
        <ele>314.97</ele>
        <time>2020-08-19T13:33:12Z</time>
      </trkpt>
      <trkpt lat="48.76439" lon="6.09074">
        <ele>314.97</ele>
        <time>2020-08-19T13:33:13Z</time>
      </trkpt>
      <trkpt lat="48.7644" lon="6.09075">
        <ele>315.45</ele>
        <time>2020-08-19T13:33:14Z</time>
      </trkpt>
      <trkpt lat="48.76441" lon="6.09076">
        <ele>315.93</ele>
        <time>2020-08-19T13:33:15Z</time>
      </trkpt>
      <trkpt lat="48.76442" lon="6.09077">
        <ele>316.41</ele>
        <time>2020-08-19T13:33:16Z</time>
      </trkpt>
      <trkpt lat="48.76444" lon="6.09078">
        <ele>316.89</ele>
        <time>2020-08-19T13:33:17Z</time>
      </trkpt>
      <trkpt lat="48.76455" lon="6.09081">
        <ele>321.7</ele>
        <time>2020-08-19T13:33:25Z</time>
      </trkpt>
      <trkpt lat="48.76456" lon="6.09081">
        <ele>322.18</ele>
        <time>2020-08-19T13:33:26Z</time>
      </trkpt>
      <trkpt lat="48.76473" lon="6.09072">
        <ele>329.39</ele>
        <time>2020-08-19T13:33:39Z</time>
      </trkpt>
      <trkpt lat="48.76486" lon="6.09061">
        <ele>331.79</ele>
        <time>2020-08-19T13:33:49Z</time>
      </trkpt>
      <trkpt lat="48.76503" lon="6.09044">
        <ele>337.08</ele>
        <time>2020-08-19T13:34:03Z</time>
      </trkpt>
      <trkpt lat="48.76506" lon="6.09036">
        <ele>337.56</ele>
        <time>2020-08-19T13:34:07Z</time>
      </trkpt>
      <trkpt lat="48.76506" lon="6.09033">
        <ele>337.56</ele>
        <time>2020-08-19T13:34:08Z</time>
      </trkpt>
      <trkpt lat="48.76506" lon="6.09031">
        <ele>337.56</ele>
        <time>2020-08-19T13:34:09Z</time>
      </trkpt>
      <trkpt lat="48.76506" lon="6.09028">
        <ele>338.04</ele>
        <time>2020-08-19T13:34:10Z</time>
      </trkpt>
      <trkpt lat="48.76506" lon="6.09024">
        <ele>338.04</ele>
        <time>2020-08-19T13:34:11Z</time>
      </trkpt>
      <trkpt lat="48.76505" lon="6.09021">
        <ele>338.04</ele>
        <time>2020-08-19T13:34:12Z</time>
      </trkpt>
      <trkpt lat="48.76505" lon="6.09018">
        <ele>338.04</ele>
        <time>2020-08-19T13:34:13Z</time>
      </trkpt>
      <trkpt lat="48.76504" lon="6.09016">
        <ele>338.04</ele>
        <time>2020-08-19T13:34:14Z</time>
      </trkpt>
      <trkpt lat="48.76504" lon="6.09012">
        <ele>338.04</ele>
        <time>2020-08-19T13:34:15Z</time>
      </trkpt>
      <trkpt lat="48.76504" lon="6.09008">
        <ele>338.04</ele>
        <time>2020-08-19T13:34:16Z</time>
      </trkpt>
      <trkpt lat="48.76504" lon="6.09004">
        <ele>337.56</ele>
        <time>2020-08-19T13:34:17Z</time>
      </trkpt>
      <trkpt lat="48.76495" lon="6.08963">
        <ele>332.27</ele>
        <time>2020-08-19T13:34:30Z</time>
      </trkpt>
      <trkpt lat="48.76482" lon="6.08925">
        <ele>333.23</ele>
        <time>2020-08-19T13:34:42Z</time>
      </trkpt>
      <trkpt lat="48.76466" lon="6.08879">
        <ele>334.68</ele>
        <time>2020-08-19T13:34:56Z</time>
      </trkpt>
      <trkpt lat="48.76449" lon="6.0883">
        <ele>339.96</ele>
        <time>2020-08-19T13:35:10Z</time>
      </trkpt>
      <trkpt lat="48.76442" lon="6.08786">
        <ele>338.04</ele>
        <time>2020-08-19T13:35:22Z</time>
      </trkpt>
      <trkpt lat="48.76439" lon="6.08738">
        <ele>339</ele>
        <time>2020-08-19T13:35:34Z</time>
      </trkpt>
      <trkpt lat="48.76432" lon="6.08686">
        <ele>336.6</ele>
        <time>2020-08-19T13:35:46Z</time>
      </trkpt>
      <trkpt lat="48.76424" lon="6.08624">
        <ele>336.6</ele>
        <time>2020-08-19T13:35:59Z</time>
      </trkpt>
      <trkpt lat="48.76399" lon="6.08566">
        <ele>337.56</ele>
        <time>2020-08-19T13:36:13Z</time>
      </trkpt>
      <trkpt lat="48.76368" lon="6.08508">
        <ele>337.08</ele>
        <time>2020-08-19T13:36:26Z</time>
      </trkpt>
      <trkpt lat="48.76349" lon="6.08482">
        <ele>336.12</ele>
        <time>2020-08-19T13:36:32Z</time>
      </trkpt>
      <trkpt lat="48.76345" lon="6.08477">
        <ele>336.12</ele>
        <time>2020-08-19T13:36:33Z</time>
      </trkpt>
      <trkpt lat="48.76335" lon="6.08463">
        <ele>336.12</ele>
        <time>2020-08-19T13:36:36Z</time>
      </trkpt>
      <trkpt lat="48.76332" lon="6.08458">
        <ele>336.12</ele>
        <time>2020-08-19T13:36:37Z</time>
      </trkpt>
      <trkpt lat="48.76307" lon="6.08422">
        <ele>335.64</ele>
        <time>2020-08-19T13:36:44Z</time>
      </trkpt>
      <trkpt lat="48.76305" lon="6.08417">
        <ele>335.16</ele>
        <time>2020-08-19T13:36:45Z</time>
      </trkpt>
      <trkpt lat="48.76288" lon="6.08375">
        <ele>332.75</ele>
        <time>2020-08-19T13:36:52Z</time>
      </trkpt>
      <trkpt lat="48.76263" lon="6.08288">
        <ele>331.79</ele>
        <time>2020-08-19T13:37:06Z</time>
      </trkpt>
      <trkpt lat="48.76258" lon="6.08253">
        <ele>330.35</ele>
        <time>2020-08-19T13:37:11Z</time>
      </trkpt>
      <trkpt lat="48.76251" lon="6.08221">
        <ele>328.43</ele>
        <time>2020-08-19T13:37:16Z</time>
      </trkpt>
      <trkpt lat="48.76248" lon="6.08217">
        <ele>328.43</ele>
        <time>2020-08-19T13:37:17Z</time>
      </trkpt>
      <trkpt lat="48.76245" lon="6.08214">
        <ele>327.95</ele>
        <time>2020-08-19T13:37:18Z</time>
      </trkpt>
      <trkpt lat="48.76242" lon="6.0821">
        <ele>327.95</ele>
        <time>2020-08-19T13:37:19Z</time>
      </trkpt>
      <trkpt lat="48.76238" lon="6.08207">
        <ele>327.47</ele>
        <time>2020-08-19T13:37:20Z</time>
      </trkpt>
      <trkpt lat="48.76233" lon="6.08204">
        <ele>327.47</ele>
        <time>2020-08-19T13:37:21Z</time>
      </trkpt>
      <trkpt lat="48.76229" lon="6.08202">
        <ele>326.99</ele>
        <time>2020-08-19T13:37:22Z</time>
      </trkpt>
      <trkpt lat="48.76225" lon="6.08199">
        <ele>326.99</ele>
        <time>2020-08-19T13:37:23Z</time>
      </trkpt>
      <trkpt lat="48.76221" lon="6.08196">
        <ele>326.5</ele>
        <time>2020-08-19T13:37:24Z</time>
      </trkpt>
      <trkpt lat="48.76216" lon="6.08192">
        <ele>326.5</ele>
        <time>2020-08-19T13:37:25Z</time>
      </trkpt>
      <trkpt lat="48.762" lon="6.08179">
        <ele>325.54</ele>
        <time>2020-08-19T13:37:29Z</time>
      </trkpt>
      <trkpt lat="48.76196" lon="6.08176">
        <ele>325.54</ele>
        <time>2020-08-19T13:37:30Z</time>
      </trkpt>
      <trkpt lat="48.76187" lon="6.08169">
        <ele>325.54</ele>
        <time>2020-08-19T13:37:32Z</time>
      </trkpt>
      <trkpt lat="48.76142" lon="6.08134">
        <ele>322.18</ele>
        <time>2020-08-19T13:37:42Z</time>
      </trkpt>
      <trkpt lat="48.76096" lon="6.08098">
        <ele>318.33</ele>
        <time>2020-08-19T13:37:51Z</time>
      </trkpt>
      <trkpt lat="48.76054" lon="6.08069">
        <ele>315.45</ele>
        <time>2020-08-19T13:38:01Z</time>
      </trkpt>
      <trkpt lat="48.76041" lon="6.08056">
        <ele>314.97</ele>
        <time>2020-08-19T13:38:05Z</time>
      </trkpt>
      <trkpt lat="48.76044" lon="6.08023">
        <ele>313.53</ele>
        <time>2020-08-19T13:38:11Z</time>
      </trkpt>
      <trkpt lat="48.76053" lon="6.07994">
        <ele>312.09</ele>
        <time>2020-08-19T13:38:16Z</time>
      </trkpt>
      <trkpt lat="48.76063" lon="6.07981">
        <ele>311.6</ele>
        <time>2020-08-19T13:38:19Z</time>
      </trkpt>
      <trkpt lat="48.76077" lon="6.07953">
        <ele>312.09</ele>
        <time>2020-08-19T13:38:24Z</time>
      </trkpt>
      <trkpt lat="48.76102" lon="6.07887">
        <ele>305.36</ele>
        <time>2020-08-19T13:38:36Z</time>
      </trkpt>
      <trkpt lat="48.76112" lon="6.07861">
        <ele>300.07</ele>
        <time>2020-08-19T13:38:41Z</time>
      </trkpt>
      <trkpt lat="48.76129" lon="6.07852">
        <ele>296.7</ele>
        <time>2020-08-19T13:38:45Z</time>
      </trkpt>
      <trkpt lat="48.76163" lon="6.07835">
        <ele>291.42</ele>
        <time>2020-08-19T13:38:53Z</time>
      </trkpt>
      <trkpt lat="48.76192" lon="6.07799">
        <ele>280.36</ele>
        <time>2020-08-19T13:39:03Z</time>
      </trkpt>
      <trkpt lat="48.76212" lon="6.0778">
        <ele>275.07</ele>
        <time>2020-08-19T13:39:08Z</time>
      </trkpt>
      <trkpt lat="48.76219" lon="6.07776">
        <ele>274.59</ele>
        <time>2020-08-19T13:39:10Z</time>
      </trkpt>
      <trkpt lat="48.76223" lon="6.07774">
        <ele>275.07</ele>
        <time>2020-08-19T13:39:11Z</time>
      </trkpt>
      <trkpt lat="48.76236" lon="6.07769">
        <ele>282.28</ele>
        <time>2020-08-19T13:39:21Z</time>
      </trkpt>
      <trkpt lat="48.76248" lon="6.07762">
        <ele>288.53</ele>
        <time>2020-08-19T13:39:33Z</time>
      </trkpt>
      <trkpt lat="48.76252" lon="6.07763">
        <ele>292.38</ele>
        <time>2020-08-19T13:39:57Z</time>
      </trkpt>
      <trkpt lat="48.76255" lon="6.07761">
        <ele>292.38</ele>
        <time>2020-08-19T13:40:02Z</time>
      </trkpt>
      <trkpt lat="48.76256" lon="6.0776">
        <ele>292.38</ele>
        <time>2020-08-19T13:40:03Z</time>
      </trkpt>
      <trkpt lat="48.76257" lon="6.07759">
        <ele>292.38</ele>
        <time>2020-08-19T13:40:04Z</time>
      </trkpt>
      <trkpt lat="48.76275" lon="6.07751">
        <ele>296.22</ele>
        <time>2020-08-19T13:40:17Z</time>
      </trkpt>
      <trkpt lat="48.76293" lon="6.07733">
        <ele>298.63</ele>
        <time>2020-08-19T13:40:32Z</time>
      </trkpt>
      <trkpt lat="48.76294" lon="6.07731">
        <ele>301.51</ele>
        <time>2020-08-19T13:40:50Z</time>
      </trkpt>
      <trkpt lat="48.763" lon="6.07722">
        <ele>301.51</ele>
        <time>2020-08-19T13:41:07Z</time>
      </trkpt>
      <trkpt lat="48.76313" lon="6.07705">
        <ele>301.99</ele>
        <time>2020-08-19T13:41:21Z</time>
      </trkpt>
      <trkpt lat="48.76317" lon="6.077">
        <ele>302.95</ele>
        <time>2020-08-19T13:41:25Z</time>
      </trkpt>
      <trkpt lat="48.76323" lon="6.07694">
        <ele>304.88</ele>
        <time>2020-08-19T13:41:31Z</time>
      </trkpt>
      <trkpt lat="48.76324" lon="6.07693">
        <ele>305.36</ele>
        <time>2020-08-19T13:41:32Z</time>
      </trkpt>
      <trkpt lat="48.76338" lon="6.07678">
        <ele>312.57</ele>
        <time>2020-08-19T13:41:48Z</time>
      </trkpt>
      <trkpt lat="48.76347" lon="6.07671">
        <ele>315.45</ele>
        <time>2020-08-19T13:42:00Z</time>
      </trkpt>
      <trkpt lat="48.76358" lon="6.07658">
        <ele>319.78</ele>
        <time>2020-08-19T13:42:16Z</time>
      </trkpt>
      <trkpt lat="48.76369" lon="6.07651">
        <ele>324.1</ele>
        <time>2020-08-19T13:42:33Z</time>
      </trkpt>
      <trkpt lat="48.76375" lon="6.07644">
        <ele>326.02</ele>
        <time>2020-08-19T13:42:47Z</time>
      </trkpt>
      <trkpt lat="48.7638" lon="6.07636">
        <ele>325.06</ele>
        <time>2020-08-19T13:43:01Z</time>
      </trkpt>
      <trkpt lat="48.76389" lon="6.07614">
        <ele>323.14</ele>
        <time>2020-08-19T13:43:19Z</time>
      </trkpt>
      <trkpt lat="48.7639" lon="6.07608">
        <ele>321.7</ele>
        <time>2020-08-19T13:43:27Z</time>
      </trkpt>
      <trkpt lat="48.76382" lon="6.07589">
        <ele>323.62</ele>
        <time>2020-08-19T13:43:36Z</time>
      </trkpt>
      <trkpt lat="48.76379" lon="6.07587">
        <ele>323.62</ele>
        <time>2020-08-19T13:43:37Z</time>
      </trkpt>
      <trkpt lat="48.76377" lon="6.07585">
        <ele>323.62</ele>
        <time>2020-08-19T13:43:38Z</time>
      </trkpt>
      <trkpt lat="48.76374" lon="6.07583">
        <ele>323.62</ele>
        <time>2020-08-19T13:43:39Z</time>
      </trkpt>
      <trkpt lat="48.76372" lon="6.07583">
        <ele>323.14</ele>
        <time>2020-08-19T13:43:40Z</time>
      </trkpt>
      <trkpt lat="48.76371" lon="6.07582">
        <ele>323.14</ele>
        <time>2020-08-19T13:43:41Z</time>
      </trkpt>
      <trkpt lat="48.76333" lon="6.07584">
        <ele>320.26</ele>
        <time>2020-08-19T13:43:54Z</time>
      </trkpt>
      <trkpt lat="48.76297" lon="6.07584">
        <ele>317.85</ele>
        <time>2020-08-19T13:44:04Z</time>
      </trkpt>
      <trkpt lat="48.76248" lon="6.07585">
        <ele>316.89</ele>
        <time>2020-08-19T13:44:17Z</time>
      </trkpt>
      <trkpt lat="48.76206" lon="6.07576">
        <ele>316.41</ele>
        <time>2020-08-19T13:44:29Z</time>
      </trkpt>
      <trkpt lat="48.76175" lon="6.07569">
        <ele>317.37</ele>
        <time>2020-08-19T13:44:39Z</time>
      </trkpt>
      <trkpt lat="48.76136" lon="6.07563">
        <ele>318.33</ele>
        <time>2020-08-19T13:44:49Z</time>
      </trkpt>
      <trkpt lat="48.76092" lon="6.07553">
        <ele>319.3</ele>
        <time>2020-08-19T13:45:00Z</time>
      </trkpt>
      <trkpt lat="48.7604" lon="6.07555">
        <ele>317.85</ele>
        <time>2020-08-19T13:45:12Z</time>
      </trkpt>
      <trkpt lat="48.76026" lon="6.07552">
        <ele>317.37</ele>
        <time>2020-08-19T13:45:16Z</time>
      </trkpt>
      <trkpt lat="48.76024" lon="6.07549">
        <ele>316.89</ele>
        <time>2020-08-19T13:45:17Z</time>
      </trkpt>
      <trkpt lat="48.76023" lon="6.07545">
        <ele>316.89</ele>
        <time>2020-08-19T13:45:18Z</time>
      </trkpt>
      <trkpt lat="48.76022" lon="6.07541">
        <ele>316.89</ele>
        <time>2020-08-19T13:45:19Z</time>
      </trkpt>
      <trkpt lat="48.76022" lon="6.07536">
        <ele>316.89</ele>
        <time>2020-08-19T13:45:20Z</time>
      </trkpt>
      <trkpt lat="48.76022" lon="6.0753">
        <ele>316.89</ele>
        <time>2020-08-19T13:45:21Z</time>
      </trkpt>
      <trkpt lat="48.76021" lon="6.07524">
        <ele>316.41</ele>
        <time>2020-08-19T13:45:22Z</time>
      </trkpt>
      <trkpt lat="48.7602" lon="6.07519">
        <ele>316.41</ele>
        <time>2020-08-19T13:45:23Z</time>
      </trkpt>
      <trkpt lat="48.7602" lon="6.07513">
        <ele>316.41</ele>
        <time>2020-08-19T13:45:24Z</time>
      </trkpt>
      <trkpt lat="48.76011" lon="6.07437">
        <ele>316.41</ele>
        <time>2020-08-19T13:45:37Z</time>
      </trkpt>
      <trkpt lat="48.76016" lon="6.07388">
        <ele>314.97</ele>
        <time>2020-08-19T13:45:46Z</time>
      </trkpt>
      <trkpt lat="48.76019" lon="6.07387">
        <ele>314.97</ele>
        <time>2020-08-19T13:45:47Z</time>
      </trkpt>
      <trkpt lat="48.76022" lon="6.07386">
        <ele>314.49</ele>
        <time>2020-08-19T13:45:48Z</time>
      </trkpt>
      <trkpt lat="48.76049" lon="6.07377">
        <ele>314.49</ele>
        <time>2020-08-19T13:45:56Z</time>
      </trkpt>
      <trkpt lat="48.76053" lon="6.07375">
        <ele>314.49</ele>
        <time>2020-08-19T13:45:57Z</time>
      </trkpt>
      <trkpt lat="48.76078" lon="6.07357">
        <ele>313.53</ele>
        <time>2020-08-19T13:46:04Z</time>
      </trkpt>
      <trkpt lat="48.76083" lon="6.07348">
        <ele>313.05</ele>
        <time>2020-08-19T13:46:06Z</time>
      </trkpt>
      <trkpt lat="48.76131" lon="6.07251">
        <ele>308.72</ele>
        <time>2020-08-19T13:46:21Z</time>
      </trkpt>
      <trkpt lat="48.7614" lon="6.07235">
        <ele>307.76</ele>
        <time>2020-08-19T13:46:23Z</time>
      </trkpt>
      <trkpt lat="48.76172" lon="6.07171">
        <ele>302.95</ele>
        <time>2020-08-19T13:46:30Z</time>
      </trkpt>
      <trkpt lat="48.76175" lon="6.07162">
        <ele>302.95</ele>
        <time>2020-08-19T13:46:31Z</time>
      </trkpt>
      <trkpt lat="48.7618" lon="6.07153">
        <ele>302.95</ele>
        <time>2020-08-19T13:46:32Z</time>
      </trkpt>
      <trkpt lat="48.76184" lon="6.07147">
        <ele>302.95</ele>
        <time>2020-08-19T13:46:33Z</time>
      </trkpt>
      <trkpt lat="48.76187" lon="6.07141">
        <ele>302.95</ele>
        <time>2020-08-19T13:46:34Z</time>
      </trkpt>
      <trkpt lat="48.76202" lon="6.07115">
        <ele>303.91</ele>
        <time>2020-08-19T13:46:39Z</time>
      </trkpt>
      <trkpt lat="48.76205" lon="6.0711">
        <ele>303.91</ele>
        <time>2020-08-19T13:46:40Z</time>
      </trkpt>
      <trkpt lat="48.76217" lon="6.0709">
        <ele>303.91</ele>
        <time>2020-08-19T13:46:44Z</time>
      </trkpt>
      <trkpt lat="48.76248" lon="6.07022">
        <ele>303.91</ele>
        <time>2020-08-19T13:46:55Z</time>
      </trkpt>
      <trkpt lat="48.76304" lon="6.06965">
        <ele>301.51</ele>
        <time>2020-08-19T13:47:07Z</time>
      </trkpt>
      <trkpt lat="48.7632" lon="6.06951">
        <ele>299.11</ele>
        <time>2020-08-19T13:47:10Z</time>
      </trkpt>
      <trkpt lat="48.76325" lon="6.06946">
        <ele>298.63</ele>
        <time>2020-08-19T13:47:11Z</time>
      </trkpt>
      <trkpt lat="48.76371" lon="6.06896">
        <ele>290.94</ele>
        <time>2020-08-19T13:47:21Z</time>
      </trkpt>
      <trkpt lat="48.76375" lon="6.06889">
        <ele>290.46</ele>
        <time>2020-08-19T13:47:22Z</time>
      </trkpt>
      <trkpt lat="48.76377" lon="6.06881">
        <ele>289.97</ele>
        <time>2020-08-19T13:47:23Z</time>
      </trkpt>
      <trkpt lat="48.76379" lon="6.06872">
        <ele>289.49</ele>
        <time>2020-08-19T13:47:24Z</time>
      </trkpt>
      <trkpt lat="48.7638" lon="6.06863">
        <ele>288.53</ele>
        <time>2020-08-19T13:47:25Z</time>
      </trkpt>
      <trkpt lat="48.76381" lon="6.06854">
        <ele>288.05</ele>
        <time>2020-08-19T13:47:26Z</time>
      </trkpt>
      <trkpt lat="48.76381" lon="6.06847">
        <ele>287.09</ele>
        <time>2020-08-19T13:47:27Z</time>
      </trkpt>
      <trkpt lat="48.76382" lon="6.0684">
        <ele>286.61</ele>
        <time>2020-08-19T13:47:28Z</time>
      </trkpt>
      <trkpt lat="48.76384" lon="6.06834">
        <ele>285.65</ele>
        <time>2020-08-19T13:47:29Z</time>
      </trkpt>
      <trkpt lat="48.76387" lon="6.0683">
        <ele>285.17</ele>
        <time>2020-08-19T13:47:30Z</time>
      </trkpt>
      <trkpt lat="48.76391" lon="6.06827">
        <ele>284.69</ele>
        <time>2020-08-19T13:47:31Z</time>
      </trkpt>
      <trkpt lat="48.76395" lon="6.06828">
        <ele>284.21</ele>
        <time>2020-08-19T13:47:32Z</time>
      </trkpt>
      <trkpt lat="48.76398" lon="6.06829">
        <ele>284.21</ele>
        <time>2020-08-19T13:47:33Z</time>
      </trkpt>
      <trkpt lat="48.76402" lon="6.06832">
        <ele>284.69</ele>
        <time>2020-08-19T13:47:34Z</time>
      </trkpt>
      <trkpt lat="48.76405" lon="6.06835">
        <ele>284.69</ele>
        <time>2020-08-19T13:47:35Z</time>
      </trkpt>
      <trkpt lat="48.76447" lon="6.06868">
        <ele>287.09</ele>
        <time>2020-08-19T13:47:49Z</time>
      </trkpt>
      <trkpt lat="48.76484" lon="6.06909">
        <ele>290.94</ele>
        <time>2020-08-19T13:48:04Z</time>
      </trkpt>
      <trkpt lat="48.76524" lon="6.06967">
        <ele>294.78</ele>
        <time>2020-08-19T13:48:23Z</time>
      </trkpt>
      <trkpt lat="48.76551" lon="6.07016">
        <ele>298.15</ele>
        <time>2020-08-19T13:48:39Z</time>
      </trkpt>
      <trkpt lat="48.76578" lon="6.07049">
        <ele>301.03</ele>
        <time>2020-08-19T13:48:54Z</time>
      </trkpt>
      <trkpt lat="48.76601" lon="6.07083">
        <ele>305.36</ele>
        <time>2020-08-19T13:49:09Z</time>
      </trkpt>
      <trkpt lat="48.76627" lon="6.07119">
        <ele>308.24</ele>
        <time>2020-08-19T13:49:24Z</time>
      </trkpt>
      <trkpt lat="48.76657" lon="6.0715">
        <ele>309.68</ele>
        <time>2020-08-19T13:49:39Z</time>
      </trkpt>
      <trkpt lat="48.76689" lon="6.07191">
        <ele>310.64</ele>
        <time>2020-08-19T13:49:56Z</time>
      </trkpt>
      <trkpt lat="48.76728" lon="6.07245">
        <ele>311.6</ele>
        <time>2020-08-19T13:50:17Z</time>
      </trkpt>
      <trkpt lat="48.76768" lon="6.0728">
        <ele>312.57</ele>
        <time>2020-08-19T13:50:33Z</time>
      </trkpt>
      <trkpt lat="48.76806" lon="6.07307">
        <ele>313.05</ele>
        <time>2020-08-19T13:50:47Z</time>
      </trkpt>
      <trkpt lat="48.7683" lon="6.0732">
        <ele>314.97</ele>
        <time>2020-08-19T13:50:58Z</time>
      </trkpt>
      <trkpt lat="48.76862" lon="6.07336">
        <ele>315.93</ele>
        <time>2020-08-19T13:51:11Z</time>
      </trkpt>
      <trkpt lat="48.769" lon="6.07376">
        <ele>317.37</ele>
        <time>2020-08-19T13:51:28Z</time>
      </trkpt>
      <trkpt lat="48.76939" lon="6.07425">
        <ele>320.74</ele>
        <time>2020-08-19T13:51:46Z</time>
      </trkpt>
      <trkpt lat="48.7698" lon="6.0748">
        <ele>323.14</ele>
        <time>2020-08-19T13:52:05Z</time>
      </trkpt>
      <trkpt lat="48.7702" lon="6.07522">
        <ele>327.47</ele>
        <time>2020-08-19T13:52:22Z</time>
      </trkpt>
      <trkpt lat="48.7705" lon="6.07549">
        <ele>330.35</ele>
        <time>2020-08-19T13:52:36Z</time>
      </trkpt>
      <trkpt lat="48.77051" lon="6.07549">
        <ele>333.71</ele>
        <time>2020-08-19T13:52:49Z</time>
      </trkpt>
      <trkpt lat="48.77064" lon="6.07559">
        <ele>335.16</ele>
        <time>2020-08-19T13:53:06Z</time>
      </trkpt>
      <trkpt lat="48.771" lon="6.07595">
        <ele>339.48</ele>
        <time>2020-08-19T13:53:20Z</time>
      </trkpt>
      <trkpt lat="48.77137" lon="6.07628">
        <ele>340.92</ele>
        <time>2020-08-19T13:53:33Z</time>
      </trkpt>
      <trkpt lat="48.77183" lon="6.0767">
        <ele>343.33</ele>
        <time>2020-08-19T13:53:49Z</time>
      </trkpt>
      <trkpt lat="48.77225" lon="6.07709">
        <ele>343.81</ele>
        <time>2020-08-19T13:54:04Z</time>
      </trkpt>
      <trkpt lat="48.77254" lon="6.07756">
        <ele>344.77</ele>
        <time>2020-08-19T13:54:18Z</time>
      </trkpt>
      <trkpt lat="48.77265" lon="6.07799">
        <ele>345.25</ele>
        <time>2020-08-19T13:54:31Z</time>
      </trkpt>
      <trkpt lat="48.77244" lon="6.07838">
        <ele>344.77</ele>
        <time>2020-08-19T13:54:43Z</time>
      </trkpt>
      <trkpt lat="48.77219" lon="6.07879">
        <ele>346.69</ele>
        <time>2020-08-19T13:54:54Z</time>
      </trkpt>
      <trkpt lat="48.77199" lon="6.07915">
        <ele>348.62</ele>
        <time>2020-08-19T13:55:04Z</time>
      </trkpt>
      <trkpt lat="48.7717" lon="6.07962">
        <ele>346.69</ele>
        <time>2020-08-19T13:55:15Z</time>
      </trkpt>
      <trkpt lat="48.77155" lon="6.07989">
        <ele>340.44</ele>
        <time>2020-08-19T13:55:21Z</time>
      </trkpt>
      <trkpt lat="48.77153" lon="6.07991">
        <ele>339.96</ele>
        <time>2020-08-19T13:55:22Z</time>
      </trkpt>
      <trkpt lat="48.77151" lon="6.07991">
        <ele>339</ele>
        <time>2020-08-19T13:55:23Z</time>
      </trkpt>
      <trkpt lat="48.77149" lon="6.0799">
        <ele>338.04</ele>
        <time>2020-08-19T13:55:24Z</time>
      </trkpt>
      <trkpt lat="48.77148" lon="6.07989">
        <ele>337.08</ele>
        <time>2020-08-19T13:55:25Z</time>
      </trkpt>
      <trkpt lat="48.77146" lon="6.07988">
        <ele>336.6</ele>
        <time>2020-08-19T13:55:26Z</time>
      </trkpt>
      <trkpt lat="48.77145" lon="6.07986">
        <ele>335.64</ele>
        <time>2020-08-19T13:55:27Z</time>
      </trkpt>
      <trkpt lat="48.77143" lon="6.07984">
        <ele>334.68</ele>
        <time>2020-08-19T13:55:28Z</time>
      </trkpt>
      <trkpt lat="48.7714" lon="6.07981">
        <ele>333.71</ele>
        <time>2020-08-19T13:55:29Z</time>
      </trkpt>
      <trkpt lat="48.77138" lon="6.07978">
        <ele>332.75</ele>
        <time>2020-08-19T13:55:30Z</time>
      </trkpt>
      <trkpt lat="48.77095" lon="6.07919">
        <ele>326.5</ele>
        <time>2020-08-19T13:55:43Z</time>
      </trkpt>
      <trkpt lat="48.77091" lon="6.07912">
        <ele>326.02</ele>
        <time>2020-08-19T13:55:44Z</time>
      </trkpt>
      <trkpt lat="48.77028" lon="6.07852">
        <ele>324.1</ele>
        <time>2020-08-19T13:55:57Z</time>
      </trkpt>
      <trkpt lat="48.77021" lon="6.07849">
        <ele>324.1</ele>
        <time>2020-08-19T13:55:58Z</time>
      </trkpt>
      <trkpt lat="48.77014" lon="6.07847">
        <ele>324.1</ele>
        <time>2020-08-19T13:55:59Z</time>
      </trkpt>
      <trkpt lat="48.77007" lon="6.07846">
        <ele>323.62</ele>
        <time>2020-08-19T13:56:00Z</time>
      </trkpt>
      <trkpt lat="48.77" lon="6.07846">
        <ele>323.62</ele>
        <time>2020-08-19T13:56:01Z</time>
      </trkpt>
      <trkpt lat="48.76993" lon="6.07847">
        <ele>323.62</ele>
        <time>2020-08-19T13:56:02Z</time>
      </trkpt>
      <trkpt lat="48.76987" lon="6.07848">
        <ele>323.62</ele>
        <time>2020-08-19T13:56:03Z</time>
      </trkpt>
      <trkpt lat="48.76976" lon="6.07848">
        <ele>323.62</ele>
        <time>2020-08-19T13:56:06Z</time>
      </trkpt>
      <trkpt lat="48.76953" lon="6.07854">
        <ele>321.22</ele>
        <time>2020-08-19T13:56:16Z</time>
      </trkpt>
      <trkpt lat="48.76951" lon="6.07853">
        <ele>320.74</ele>
        <time>2020-08-19T13:56:18Z</time>
      </trkpt>
      <trkpt lat="48.7695" lon="6.07852">
        <ele>320.26</ele>
        <time>2020-08-19T13:56:19Z</time>
      </trkpt>
      <trkpt lat="48.76949" lon="6.07851">
        <ele>320.26</ele>
        <time>2020-08-19T13:56:20Z</time>
      </trkpt>
      <trkpt lat="48.76947" lon="6.07851">
        <ele>319.78</ele>
        <time>2020-08-19T13:56:21Z</time>
      </trkpt>
      <trkpt lat="48.76945" lon="6.07851">
        <ele>319.3</ele>
        <time>2020-08-19T13:56:22Z</time>
      </trkpt>
      <trkpt lat="48.76942" lon="6.0785">
        <ele>319.3</ele>
        <time>2020-08-19T13:56:23Z</time>
      </trkpt>
      <trkpt lat="48.76939" lon="6.0785">
        <ele>318.81</ele>
        <time>2020-08-19T13:56:24Z</time>
      </trkpt>
      <trkpt lat="48.76935" lon="6.0785">
        <ele>318.33</ele>
        <time>2020-08-19T13:56:25Z</time>
      </trkpt>
      <trkpt lat="48.76931" lon="6.07849">
        <ele>316.89</ele>
        <time>2020-08-19T13:56:27Z</time>
      </trkpt>
      <trkpt lat="48.7693" lon="6.07848">
        <ele>316.41</ele>
        <time>2020-08-19T13:56:28Z</time>
      </trkpt>
      <trkpt lat="48.76899" lon="6.07847">
        <ele>310.16</ele>
        <time>2020-08-19T13:56:37Z</time>
      </trkpt>
      <trkpt lat="48.76855" lon="6.07845">
        <ele>303.91</ele>
        <time>2020-08-19T13:56:44Z</time>
      </trkpt>
      <trkpt lat="48.76777" lon="6.07831">
        <ele>298.15</ele>
        <time>2020-08-19T13:56:56Z</time>
      </trkpt>
      <trkpt lat="48.76743" lon="6.07837">
        <ele>297.67</ele>
        <time>2020-08-19T13:57:04Z</time>
      </trkpt>
      <trkpt lat="48.76734" lon="6.0784">
        <ele>296.22</ele>
        <time>2020-08-19T13:57:08Z</time>
      </trkpt>
      <trkpt lat="48.76733" lon="6.07842">
        <ele>295.26</ele>
        <time>2020-08-19T13:57:09Z</time>
      </trkpt>
      <trkpt lat="48.76731" lon="6.07843">
        <ele>295.26</ele>
        <time>2020-08-19T13:57:10Z</time>
      </trkpt>
      <trkpt lat="48.76729" lon="6.07845">
        <ele>294.78</ele>
        <time>2020-08-19T13:57:11Z</time>
      </trkpt>
      <trkpt lat="48.76727" lon="6.07847">
        <ele>294.78</ele>
        <time>2020-08-19T13:57:12Z</time>
      </trkpt>
      <trkpt lat="48.76725" lon="6.07848">
        <ele>294.3</ele>
        <time>2020-08-19T13:57:13Z</time>
      </trkpt>
      <trkpt lat="48.76723" lon="6.07849">
        <ele>294.3</ele>
        <time>2020-08-19T13:57:14Z</time>
      </trkpt>
      <trkpt lat="48.76721" lon="6.0785">
        <ele>294.78</ele>
        <time>2020-08-19T13:57:23Z</time>
      </trkpt>
      <trkpt lat="48.76722" lon="6.0785">
        <ele>295.26</ele>
        <time>2020-08-19T13:57:24Z</time>
      </trkpt>
      <trkpt lat="48.76723" lon="6.07849">
        <ele>295.74</ele>
        <time>2020-08-19T13:57:25Z</time>
      </trkpt>
      <trkpt lat="48.76724" lon="6.07848">
        <ele>296.22</ele>
        <time>2020-08-19T13:57:26Z</time>
      </trkpt>
      <trkpt lat="48.76725" lon="6.07847">
        <ele>296.7</ele>
        <time>2020-08-19T13:57:27Z</time>
      </trkpt>
      <trkpt lat="48.76725" lon="6.07846">
        <ele>297.18</ele>
        <time>2020-08-19T13:57:28Z</time>
      </trkpt>
      <trkpt lat="48.76726" lon="6.07845">
        <ele>298.15</ele>
        <time>2020-08-19T13:57:29Z</time>
      </trkpt>
      <trkpt lat="48.76726" lon="6.07844">
        <ele>298.63</ele>
        <time>2020-08-19T13:57:30Z</time>
      </trkpt>
      <trkpt lat="48.76729" lon="6.07848">
        <ele>302.95</ele>
        <time>2020-08-19T13:57:42Z</time>
      </trkpt>
      <trkpt lat="48.76731" lon="6.07854">
        <ele>306.32</ele>
        <time>2020-08-19T13:57:56Z</time>
      </trkpt>
      <trkpt lat="48.76735" lon="6.07857">
        <ele>306.32</ele>
        <time>2020-08-19T13:58:10Z</time>
      </trkpt>
      <trkpt lat="48.76743" lon="6.07854">
        <ele>307.76</ele>
        <time>2020-08-19T13:58:16Z</time>
      </trkpt>
      <trkpt lat="48.76745" lon="6.07854">
        <ele>308.24</ele>
        <time>2020-08-19T13:58:17Z</time>
      </trkpt>
      <trkpt lat="48.76746" lon="6.07853">
        <ele>308.24</ele>
        <time>2020-08-19T13:58:18Z</time>
      </trkpt>
      <trkpt lat="48.76747" lon="6.07851">
        <ele>308.24</ele>
        <time>2020-08-19T13:58:19Z</time>
      </trkpt>
      <trkpt lat="48.76749" lon="6.07851">
        <ele>308.72</ele>
        <time>2020-08-19T13:58:20Z</time>
      </trkpt>
      <trkpt lat="48.7675" lon="6.07851">
        <ele>309.2</ele>
        <time>2020-08-19T13:58:21Z</time>
      </trkpt>
      <trkpt lat="48.76752" lon="6.07851">
        <ele>309.68</ele>
        <time>2020-08-19T13:58:22Z</time>
      </trkpt>
      <trkpt lat="48.76753" lon="6.07851">
        <ele>310.16</ele>
        <time>2020-08-19T13:58:23Z</time>
      </trkpt>
      <trkpt lat="48.76777" lon="6.07849">
        <ele>314.97</ele>
        <time>2020-08-19T13:58:36Z</time>
      </trkpt>
      <trkpt lat="48.76802" lon="6.07853">
        <ele>321.22</ele>
        <time>2020-08-19T13:58:48Z</time>
      </trkpt>
      <trkpt lat="48.76815" lon="6.07855">
        <ele>323.62</ele>
        <time>2020-08-19T13:58:54Z</time>
      </trkpt>
      <trkpt lat="48.7682" lon="6.07853">
        <ele>324.1</ele>
        <time>2020-08-19T13:58:57Z</time>
      </trkpt>
      <trkpt lat="48.76821" lon="6.07853">
        <ele>324.58</ele>
        <time>2020-08-19T13:58:58Z</time>
      </trkpt>
      <trkpt lat="48.76823" lon="6.07854">
        <ele>324.58</ele>
        <time>2020-08-19T13:58:59Z</time>
      </trkpt>
      <trkpt lat="48.76844" lon="6.07858">
        <ele>327.95</ele>
        <time>2020-08-19T13:59:11Z</time>
      </trkpt>
      <trkpt lat="48.76847" lon="6.07859">
        <ele>327.47</ele>
        <time>2020-08-19T13:59:28Z</time>
      </trkpt>
      <trkpt lat="48.76846" lon="6.0786">
        <ele>326.5</ele>
        <time>2020-08-19T13:59:29Z</time>
      </trkpt>
      <trkpt lat="48.76844" lon="6.0786">
        <ele>326.5</ele>
        <time>2020-08-19T13:59:30Z</time>
      </trkpt>
      <trkpt lat="48.76843" lon="6.07859">
        <ele>325.54</ele>
        <time>2020-08-19T13:59:31Z</time>
      </trkpt>
      <trkpt lat="48.7684" lon="6.07858">
        <ele>325.06</ele>
        <time>2020-08-19T13:59:32Z</time>
      </trkpt>
      <trkpt lat="48.76838" lon="6.07858">
        <ele>324.58</ele>
        <time>2020-08-19T13:59:33Z</time>
      </trkpt>
      <trkpt lat="48.76834" lon="6.07857">
        <ele>324.1</ele>
        <time>2020-08-19T13:59:34Z</time>
      </trkpt>
      <trkpt lat="48.76831" lon="6.07857">
        <ele>324.1</ele>
        <time>2020-08-19T13:59:35Z</time>
      </trkpt>
      <trkpt lat="48.76827" lon="6.07857">
        <ele>323.62</ele>
        <time>2020-08-19T13:59:36Z</time>
      </trkpt>
      <trkpt lat="48.76823" lon="6.07856">
        <ele>323.62</ele>
        <time>2020-08-19T13:59:37Z</time>
      </trkpt>
      <trkpt lat="48.76819" lon="6.07855">
        <ele>323.62</ele>
        <time>2020-08-19T13:59:38Z</time>
      </trkpt>
      <trkpt lat="48.76791" lon="6.07849">
        <ele>322.18</ele>
        <time>2020-08-19T13:59:44Z</time>
      </trkpt>
      <trkpt lat="48.7675" lon="6.07858">
        <ele>317.85</ele>
        <time>2020-08-19T13:59:54Z</time>
      </trkpt>
      <trkpt lat="48.76736" lon="6.07864">
        <ele>314.49</ele>
        <time>2020-08-19T13:59:58Z</time>
      </trkpt>
      <trkpt lat="48.76735" lon="6.07866">
        <ele>314.01</ele>
        <time>2020-08-19T13:59:59Z</time>
      </trkpt>
      <trkpt lat="48.76736" lon="6.07872">
        <ele>313.53</ele>
        <time>2020-08-19T14:00:02Z</time>
      </trkpt>
      <trkpt lat="48.76738" lon="6.07874">
        <ele>313.05</ele>
        <time>2020-08-19T14:00:04Z</time>
      </trkpt>
      <trkpt lat="48.76753" lon="6.07888">
        <ele>316.41</ele>
        <time>2020-08-19T14:00:19Z</time>
      </trkpt>
      <trkpt lat="48.76768" lon="6.07901">
        <ele>319.78</ele>
        <time>2020-08-19T14:00:29Z</time>
      </trkpt>
      <trkpt lat="48.76786" lon="6.07918">
        <ele>325.06</ele>
        <time>2020-08-19T14:00:42Z</time>
      </trkpt>
      <trkpt lat="48.76806" lon="6.07933">
        <ele>326.02</ele>
        <time>2020-08-19T14:00:57Z</time>
      </trkpt>
      <trkpt lat="48.76826" lon="6.07949">
        <ele>326.02</ele>
        <time>2020-08-19T14:01:12Z</time>
      </trkpt>
      <trkpt lat="48.76849" lon="6.07963">
        <ele>325.54</ele>
        <time>2020-08-19T14:01:29Z</time>
      </trkpt>
      <trkpt lat="48.76866" lon="6.07976">
        <ele>325.54</ele>
        <time>2020-08-19T14:01:42Z</time>
      </trkpt>
      <trkpt lat="48.7689" lon="6.07993">
        <ele>326.99</ele>
        <time>2020-08-19T14:01:58Z</time>
      </trkpt>
      <trkpt lat="48.76913" lon="6.08013">
        <ele>329.87</ele>
        <time>2020-08-19T14:02:15Z</time>
      </trkpt>
      <trkpt lat="48.76935" lon="6.08043">
        <ele>329.87</ele>
        <time>2020-08-19T14:02:32Z</time>
      </trkpt>
      <trkpt lat="48.76953" lon="6.08065">
        <ele>333.71</ele>
        <time>2020-08-19T14:02:45Z</time>
      </trkpt>
      <trkpt lat="48.76976" lon="6.08098">
        <ele>338.04</ele>
        <time>2020-08-19T14:03:00Z</time>
      </trkpt>
      <trkpt lat="48.76993" lon="6.08122">
        <ele>339</ele>
        <time>2020-08-19T14:03:13Z</time>
      </trkpt>
      <trkpt lat="48.77012" lon="6.08147">
        <ele>346.21</ele>
        <time>2020-08-19T14:03:26Z</time>
      </trkpt>
      <trkpt lat="48.77036" lon="6.08182">
        <ele>351.5</ele>
        <time>2020-08-19T14:03:39Z</time>
      </trkpt>
      <trkpt lat="48.77063" lon="6.08222">
        <ele>355.83</ele>
        <time>2020-08-19T14:03:53Z</time>
      </trkpt>
      <trkpt lat="48.77084" lon="6.08258">
        <ele>357.27</ele>
        <time>2020-08-19T14:04:04Z</time>
      </trkpt>
      <trkpt lat="48.77107" lon="6.08296">
        <ele>358.71</ele>
        <time>2020-08-19T14:04:15Z</time>
      </trkpt>
      <trkpt lat="48.77133" lon="6.08339">
        <ele>361.11</ele>
        <time>2020-08-19T14:04:28Z</time>
      </trkpt>
      <trkpt lat="48.77154" lon="6.0838">
        <ele>360.63</ele>
        <time>2020-08-19T14:04:39Z</time>
      </trkpt>
      <trkpt lat="48.77181" lon="6.08428">
        <ele>361.59</ele>
        <time>2020-08-19T14:04:51Z</time>
      </trkpt>
      <trkpt lat="48.77207" lon="6.08472">
        <ele>364</ele>
        <time>2020-08-19T14:05:03Z</time>
      </trkpt>
      <trkpt lat="48.77238" lon="6.08527">
        <ele>364</ele>
        <time>2020-08-19T14:05:19Z</time>
      </trkpt>
      <trkpt lat="48.77268" lon="6.08582">
        <ele>365.44</ele>
        <time>2020-08-19T14:05:35Z</time>
      </trkpt>
      <trkpt lat="48.77296" lon="6.08637">
        <ele>365.44</ele>
        <time>2020-08-19T14:05:50Z</time>
      </trkpt>
      <trkpt lat="48.77329" lon="6.08697">
        <ele>364.48</ele>
        <time>2020-08-19T14:06:04Z</time>
      </trkpt>
      <trkpt lat="48.77363" lon="6.08761">
        <ele>367.84</ele>
        <time>2020-08-19T14:06:19Z</time>
      </trkpt>
      <trkpt lat="48.77395" lon="6.08813">
        <ele>367.36</ele>
        <time>2020-08-19T14:06:31Z</time>
      </trkpt>
      <trkpt lat="48.77414" lon="6.08837">
        <ele>366.4</ele>
        <time>2020-08-19T14:06:37Z</time>
      </trkpt>
      <trkpt lat="48.77418" lon="6.08842">
        <ele>365.92</ele>
        <time>2020-08-19T14:06:38Z</time>
      </trkpt>
      <trkpt lat="48.77422" lon="6.08846">
        <ele>365.44</ele>
        <time>2020-08-19T14:06:39Z</time>
      </trkpt>
      <trkpt lat="48.77435" lon="6.08862">
        <ele>364.96</ele>
        <time>2020-08-19T14:06:43Z</time>
      </trkpt>
      <trkpt lat="48.77442" lon="6.08871">
        <ele>364.48</ele>
        <time>2020-08-19T14:06:45Z</time>
      </trkpt>
      <trkpt lat="48.77445" lon="6.08876">
        <ele>364.48</ele>
        <time>2020-08-19T14:06:46Z</time>
      </trkpt>
      <trkpt lat="48.77497" lon="6.08932">
        <ele>361.59</ele>
        <time>2020-08-19T14:07:01Z</time>
      </trkpt>
      <trkpt lat="48.77541" lon="6.0898">
        <ele>363.04</ele>
        <time>2020-08-19T14:07:14Z</time>
      </trkpt>
      <trkpt lat="48.77559" lon="6.09">
        <ele>364</ele>
        <time>2020-08-19T14:07:19Z</time>
      </trkpt>
      <trkpt lat="48.77562" lon="6.09003">
        <ele>364</ele>
        <time>2020-08-19T14:07:20Z</time>
      </trkpt>
      <trkpt lat="48.77566" lon="6.09008">
        <ele>364</ele>
        <time>2020-08-19T14:07:21Z</time>
      </trkpt>
      <trkpt lat="48.77581" lon="6.09026">
        <ele>364</ele>
        <time>2020-08-19T14:07:25Z</time>
      </trkpt>
      <trkpt lat="48.77585" lon="6.0903">
        <ele>364</ele>
        <time>2020-08-19T14:07:26Z</time>
      </trkpt>
      <trkpt lat="48.776" lon="6.09048">
        <ele>364.48</ele>
        <time>2020-08-19T14:07:30Z</time>
      </trkpt>
      <trkpt lat="48.77604" lon="6.09052">
        <ele>364.96</ele>
        <time>2020-08-19T14:07:31Z</time>
      </trkpt>
      <trkpt lat="48.77607" lon="6.09056">
        <ele>364.96</ele>
        <time>2020-08-19T14:07:32Z</time>
      </trkpt>
      <trkpt lat="48.77638" lon="6.09091">
        <ele>364.96</ele>
        <time>2020-08-19T14:07:43Z</time>
      </trkpt>
      <trkpt lat="48.77649" lon="6.09126">
        <ele>361.59</ele>
        <time>2020-08-19T14:07:53Z</time>
      </trkpt>
      <trkpt lat="48.77656" lon="6.0916">
        <ele>360.15</ele>
        <time>2020-08-19T14:08:02Z</time>
      </trkpt>
      <trkpt lat="48.7766" lon="6.09163">
        <ele>360.15</ele>
        <time>2020-08-19T14:08:04Z</time>
      </trkpt>
      <trkpt lat="48.77663" lon="6.09161">
        <ele>359.67</ele>
        <time>2020-08-19T14:08:05Z</time>
      </trkpt>
      <trkpt lat="48.77665" lon="6.09159">
        <ele>359.19</ele>
        <time>2020-08-19T14:08:06Z</time>
      </trkpt>
      <trkpt lat="48.77667" lon="6.09156">
        <ele>358.71</ele>
        <time>2020-08-19T14:08:07Z</time>
      </trkpt>
      <trkpt lat="48.77668" lon="6.09152">
        <ele>358.71</ele>
        <time>2020-08-19T14:08:08Z</time>
      </trkpt>
      <trkpt lat="48.77684" lon="6.09118">
        <ele>357.27</ele>
        <time>2020-08-19T14:08:20Z</time>
      </trkpt>
      <trkpt lat="48.77719" lon="6.09045">
        <ele>357.27</ele>
        <time>2020-08-19T14:08:38Z</time>
      </trkpt>
      <trkpt lat="48.77753" lon="6.08969">
        <ele>358.23</ele>
        <time>2020-08-19T14:08:55Z</time>
      </trkpt>
      <trkpt lat="48.77756" lon="6.08964">
        <ele>358.23</ele>
        <time>2020-08-19T14:08:56Z</time>
      </trkpt>
      <trkpt lat="48.77782" lon="6.08907">
        <ele>357.75</ele>
        <time>2020-08-19T14:09:06Z</time>
      </trkpt>
      <trkpt lat="48.77787" lon="6.08897">
        <ele>357.75</ele>
        <time>2020-08-19T14:09:08Z</time>
      </trkpt>
      <trkpt lat="48.77791" lon="6.08886">
        <ele>357.75</ele>
        <time>2020-08-19T14:09:10Z</time>
      </trkpt>
      <trkpt lat="48.77793" lon="6.0888">
        <ele>357.75</ele>
        <time>2020-08-19T14:09:11Z</time>
      </trkpt>
      <trkpt lat="48.77795" lon="6.08875">
        <ele>357.75</ele>
        <time>2020-08-19T14:09:12Z</time>
      </trkpt>
      <trkpt lat="48.77798" lon="6.0887">
        <ele>357.27</ele>
        <time>2020-08-19T14:09:13Z</time>
      </trkpt>
      <trkpt lat="48.77801" lon="6.08866">
        <ele>357.27</ele>
        <time>2020-08-19T14:09:14Z</time>
      </trkpt>
      <trkpt lat="48.77814" lon="6.08837">
        <ele>356.79</ele>
        <time>2020-08-19T14:09:19Z</time>
      </trkpt>
      <trkpt lat="48.77817" lon="6.08832">
        <ele>356.79</ele>
        <time>2020-08-19T14:09:20Z</time>
      </trkpt>
      <trkpt lat="48.7782" lon="6.08826">
        <ele>356.31</ele>
        <time>2020-08-19T14:09:21Z</time>
      </trkpt>
      <trkpt lat="48.77826" lon="6.08814">
        <ele>356.31</ele>
        <time>2020-08-19T14:09:23Z</time>
      </trkpt>
      <trkpt lat="48.77854" lon="6.08752">
        <ele>354.86</ele>
        <time>2020-08-19T14:09:33Z</time>
      </trkpt>
      <trkpt lat="48.77858" lon="6.08746">
        <ele>354.86</ele>
        <time>2020-08-19T14:09:34Z</time>
      </trkpt>
      <trkpt lat="48.77861" lon="6.0874">
        <ele>354.86</ele>
        <time>2020-08-19T14:09:35Z</time>
      </trkpt>
      <trkpt lat="48.77895" lon="6.08664">
        <ele>353.42</ele>
        <time>2020-08-19T14:09:47Z</time>
      </trkpt>
      <trkpt lat="48.77898" lon="6.0866">
        <ele>352.94</ele>
        <time>2020-08-19T14:09:48Z</time>
      </trkpt>
      <trkpt lat="48.779" lon="6.08656">
        <ele>352.94</ele>
        <time>2020-08-19T14:09:49Z</time>
      </trkpt>
      <trkpt lat="48.77902" lon="6.08654">
        <ele>352.94</ele>
        <time>2020-08-19T14:09:50Z</time>
      </trkpt>
      <trkpt lat="48.77904" lon="6.08652">
        <ele>352.46</ele>
        <time>2020-08-19T14:09:51Z</time>
      </trkpt>
      <trkpt lat="48.77907" lon="6.08648">
        <ele>352.46</ele>
        <time>2020-08-19T14:10:00Z</time>
      </trkpt>
      <trkpt lat="48.77908" lon="6.08633">
        <ele>351.98</ele>
        <time>2020-08-19T14:10:10Z</time>
      </trkpt>
      <trkpt lat="48.77907" lon="6.08634">
        <ele>351.5</ele>
        <time>2020-08-19T14:10:36Z</time>
      </trkpt>
      <trkpt lat="48.77907" lon="6.08631">
        <ele>351.5</ele>
        <time>2020-08-19T14:10:49Z</time>
      </trkpt>
      <trkpt lat="48.77928" lon="6.08592">
        <ele>349.58</ele>
        <time>2020-08-19T14:11:00Z</time>
      </trkpt>
      <trkpt lat="48.77949" lon="6.08548">
        <ele>348.13</ele>
        <time>2020-08-19T14:11:10Z</time>
      </trkpt>
      <trkpt lat="48.77955" lon="6.08534">
        <ele>347.65</ele>
        <time>2020-08-19T14:11:13Z</time>
      </trkpt>
      <trkpt lat="48.77996" lon="6.08444">
        <ele>345.25</ele>
        <time>2020-08-19T14:11:26Z</time>
      </trkpt>
      <trkpt lat="48.78042" lon="6.08343">
        <ele>343.81</ele>
        <time>2020-08-19T14:11:40Z</time>
      </trkpt>
      <trkpt lat="48.78048" lon="6.0833">
        <ele>344.29</ele>
        <time>2020-08-19T14:11:43Z</time>
      </trkpt>
      <trkpt lat="48.78047" lon="6.08327">
        <ele>344.29</ele>
        <time>2020-08-19T14:11:44Z</time>
      </trkpt>
      <trkpt lat="48.78046" lon="6.08324">
        <ele>344.29</ele>
        <time>2020-08-19T14:11:45Z</time>
      </trkpt>
      <trkpt lat="48.78044" lon="6.08322">
        <ele>343.81</ele>
        <time>2020-08-19T14:11:46Z</time>
      </trkpt>
      <trkpt lat="48.7804" lon="6.0832">
        <ele>343.33</ele>
        <time>2020-08-19T14:11:47Z</time>
      </trkpt>
      <trkpt lat="48.7803" lon="6.08315">
        <ele>342.37</ele>
        <time>2020-08-19T14:11:50Z</time>
      </trkpt>
      <trkpt lat="48.78026" lon="6.08313">
        <ele>341.89</ele>
        <time>2020-08-19T14:11:51Z</time>
      </trkpt>
      <trkpt lat="48.78022" lon="6.0831">
        <ele>341.41</ele>
        <time>2020-08-19T14:11:52Z</time>
      </trkpt>
      <trkpt lat="48.78018" lon="6.08306">
        <ele>340.92</ele>
        <time>2020-08-19T14:11:53Z</time>
      </trkpt>
      <trkpt lat="48.78014" lon="6.08301">
        <ele>340.44</ele>
        <time>2020-08-19T14:11:54Z</time>
      </trkpt>
      <trkpt lat="48.7801" lon="6.08295">
        <ele>340.44</ele>
        <time>2020-08-19T14:11:55Z</time>
      </trkpt>
      <trkpt lat="48.78007" lon="6.08287">
        <ele>339.96</ele>
        <time>2020-08-19T14:11:56Z</time>
      </trkpt>
      <trkpt lat="48.78003" lon="6.0828">
        <ele>339.48</ele>
        <time>2020-08-19T14:11:57Z</time>
      </trkpt>
      <trkpt lat="48.77997" lon="6.08266">
        <ele>339</ele>
        <time>2020-08-19T14:11:59Z</time>
      </trkpt>
      <trkpt lat="48.77989" lon="6.08253">
        <ele>339</ele>
        <time>2020-08-19T14:12:01Z</time>
      </trkpt>
      <trkpt lat="48.77938" lon="6.08191">
        <ele>341.89</ele>
        <time>2020-08-19T14:12:14Z</time>
      </trkpt>
      <trkpt lat="48.77892" lon="6.0816">
        <ele>344.77</ele>
        <time>2020-08-19T14:12:26Z</time>
      </trkpt>
      <trkpt lat="48.77845" lon="6.08146">
        <ele>348.62</ele>
        <time>2020-08-19T14:12:39Z</time>
      </trkpt>
      <trkpt lat="48.77825" lon="6.0814">
        <ele>349.58</ele>
        <time>2020-08-19T14:12:46Z</time>
      </trkpt>
      <trkpt lat="48.77823" lon="6.08137">
        <ele>349.58</ele>
        <time>2020-08-19T14:12:47Z</time>
      </trkpt>
      <trkpt lat="48.77823" lon="6.08134">
        <ele>349.58</ele>
        <time>2020-08-19T14:12:48Z</time>
      </trkpt>
      <trkpt lat="48.77824" lon="6.08131">
        <ele>349.58</ele>
        <time>2020-08-19T14:12:49Z</time>
      </trkpt>
      <trkpt lat="48.77825" lon="6.08127">
        <ele>350.06</ele>
        <time>2020-08-19T14:12:50Z</time>
      </trkpt>
      <trkpt lat="48.77842" lon="6.08082">
        <ele>349.58</ele>
        <time>2020-08-19T14:13:03Z</time>
      </trkpt>
      <trkpt lat="48.77859" lon="6.08038">
        <ele>345.25</ele>
        <time>2020-08-19T14:13:15Z</time>
      </trkpt>
      <trkpt lat="48.77878" lon="6.07993">
        <ele>342.85</ele>
        <time>2020-08-19T14:13:26Z</time>
      </trkpt>
      <trkpt lat="48.77895" lon="6.07959">
        <ele>339.96</ele>
        <time>2020-08-19T14:13:36Z</time>
      </trkpt>
      <trkpt lat="48.77899" lon="6.07946">
        <ele>338.52</ele>
        <time>2020-08-19T14:13:39Z</time>
      </trkpt>
      <trkpt lat="48.77901" lon="6.07943">
        <ele>338.52</ele>
        <time>2020-08-19T14:13:40Z</time>
      </trkpt>
      <trkpt lat="48.77911" lon="6.07924">
        <ele>338.04</ele>
        <time>2020-08-19T14:13:46Z</time>
      </trkpt>
      <trkpt lat="48.77911" lon="6.07921">
        <ele>337.56</ele>
        <time>2020-08-19T14:13:47Z</time>
      </trkpt>
      <trkpt lat="48.7791" lon="6.07917">
        <ele>337.56</ele>
        <time>2020-08-19T14:13:48Z</time>
      </trkpt>
      <trkpt lat="48.77909" lon="6.07913">
        <ele>337.56</ele>
        <time>2020-08-19T14:13:49Z</time>
      </trkpt>
      <trkpt lat="48.77908" lon="6.07908">
        <ele>337.56</ele>
        <time>2020-08-19T14:13:50Z</time>
      </trkpt>
      <trkpt lat="48.77907" lon="6.07903">
        <ele>337.56</ele>
        <time>2020-08-19T14:13:51Z</time>
      </trkpt>
      <trkpt lat="48.77906" lon="6.07898">
        <ele>337.56</ele>
        <time>2020-08-19T14:13:52Z</time>
      </trkpt>
      <trkpt lat="48.77905" lon="6.07892">
        <ele>337.56</ele>
        <time>2020-08-19T14:13:53Z</time>
      </trkpt>
      <trkpt lat="48.77903" lon="6.07886">
        <ele>337.56</ele>
        <time>2020-08-19T14:13:54Z</time>
      </trkpt>
      <trkpt lat="48.779" lon="6.07874">
        <ele>337.56</ele>
        <time>2020-08-19T14:13:56Z</time>
      </trkpt>
      <trkpt lat="48.77897" lon="6.07861">
        <ele>337.08</ele>
        <time>2020-08-19T14:13:58Z</time>
      </trkpt>
      <trkpt lat="48.77896" lon="6.07854">
        <ele>337.08</ele>
        <time>2020-08-19T14:13:59Z</time>
      </trkpt>
      <trkpt lat="48.77895" lon="6.07848">
        <ele>337.08</ele>
        <time>2020-08-19T14:14:00Z</time>
      </trkpt>
      <trkpt lat="48.77894" lon="6.0784">
        <ele>337.08</ele>
        <time>2020-08-19T14:14:01Z</time>
      </trkpt>
      <trkpt lat="48.77893" lon="6.07832">
        <ele>337.08</ele>
        <time>2020-08-19T14:14:02Z</time>
      </trkpt>
      <trkpt lat="48.77892" lon="6.07823">
        <ele>336.6</ele>
        <time>2020-08-19T14:14:03Z</time>
      </trkpt>
      <trkpt lat="48.77892" lon="6.07815">
        <ele>336.6</ele>
        <time>2020-08-19T14:14:04Z</time>
      </trkpt>
      <trkpt lat="48.77892" lon="6.07806">
        <ele>336.12</ele>
        <time>2020-08-19T14:14:05Z</time>
      </trkpt>
      <trkpt lat="48.77888" lon="6.07698">
        <ele>331.79</ele>
        <time>2020-08-19T14:14:16Z</time>
      </trkpt>
      <trkpt lat="48.77882" lon="6.07669">
        <ele>330.35</ele>
        <time>2020-08-19T14:14:19Z</time>
      </trkpt>
      <trkpt lat="48.77879" lon="6.0766">
        <ele>329.87</ele>
        <time>2020-08-19T14:14:20Z</time>
      </trkpt>
      <trkpt lat="48.77855" lon="6.0757">
        <ele>326.02</ele>
        <time>2020-08-19T14:14:29Z</time>
      </trkpt>
      <trkpt lat="48.77852" lon="6.07561">
        <ele>325.54</ele>
        <time>2020-08-19T14:14:30Z</time>
      </trkpt>
      <trkpt lat="48.7785" lon="6.0755">
        <ele>325.54</ele>
        <time>2020-08-19T14:14:31Z</time>
      </trkpt>
      <trkpt lat="48.77832" lon="6.07419">
        <ele>319.78</ele>
        <time>2020-08-19T14:14:43Z</time>
      </trkpt>
      <trkpt lat="48.77812" lon="6.0725">
        <ele>312.57</ele>
        <time>2020-08-19T14:14:58Z</time>
      </trkpt>
      <trkpt lat="48.77811" lon="6.07152">
        <ele>308.72</ele>
        <time>2020-08-19T14:15:08Z</time>
      </trkpt>
      <trkpt lat="48.7781" lon="6.07143">
        <ele>308.24</ele>
        <time>2020-08-19T14:15:19Z</time>
      </trkpt>
      <trkpt lat="48.77808" lon="6.07136">
        <ele>309.2</ele>
        <time>2020-08-19T14:15:39Z</time>
      </trkpt>
      <trkpt lat="48.77809" lon="6.07123">
        <ele>308.72</ele>
        <time>2020-08-19T14:15:50Z</time>
      </trkpt>
      <trkpt lat="48.77814" lon="6.07076">
        <ele>309.2</ele>
        <time>2020-08-19T14:16:01Z</time>
      </trkpt>
      <trkpt lat="48.77806" lon="6.07034">
        <ele>309.2</ele>
        <time>2020-08-19T14:16:12Z</time>
      </trkpt>
      <trkpt lat="48.77804" lon="6.07029">
        <ele>311.12</ele>
        <time>2020-08-19T14:16:24Z</time>
      </trkpt>
      <trkpt lat="48.77804" lon="6.0703">
        <ele>311.12</ele>
        <time>2020-08-19T14:16:27Z</time>
      </trkpt>
      <trkpt lat="48.77812" lon="6.0706">
        <ele>312.57</ele>
        <time>2020-08-19T14:16:41Z</time>
      </trkpt>
      <trkpt lat="48.7783" lon="6.07076">
        <ele>315.93</ele>
        <time>2020-08-19T14:16:53Z</time>
      </trkpt>
      <trkpt lat="48.77839" lon="6.07079">
        <ele>316.89</ele>
        <time>2020-08-19T14:16:59Z</time>
      </trkpt>
      <trkpt lat="48.77841" lon="6.07078">
        <ele>316.89</ele>
        <time>2020-08-19T14:17:00Z</time>
      </trkpt>
      <trkpt lat="48.77843" lon="6.07078">
        <ele>316.89</ele>
        <time>2020-08-19T14:17:01Z</time>
      </trkpt>
      <trkpt lat="48.77845" lon="6.07077">
        <ele>316.89</ele>
        <time>2020-08-19T14:17:02Z</time>
      </trkpt>
      <trkpt lat="48.77847" lon="6.07075">
        <ele>316.89</ele>
        <time>2020-08-19T14:17:03Z</time>
      </trkpt>
      <trkpt lat="48.77879" lon="6.07073">
        <ele>314.49</ele>
        <time>2020-08-19T14:17:14Z</time>
      </trkpt>
      <trkpt lat="48.7791" lon="6.07084">
        <ele>314.01</ele>
        <time>2020-08-19T14:17:26Z</time>
      </trkpt>
      <trkpt lat="48.77948" lon="6.07035">
        <ele>311.6</ele>
        <time>2020-08-19T14:17:38Z</time>
      </trkpt>
      <trkpt lat="48.77997" lon="6.06956">
        <ele>307.28</ele>
        <time>2020-08-19T14:17:50Z</time>
      </trkpt>
      <trkpt lat="48.78012" lon="6.06938">
        <ele>305.84</ele>
        <time>2020-08-19T14:17:54Z</time>
      </trkpt>
      <trkpt lat="48.78022" lon="6.06922">
        <ele>304.88</ele>
        <time>2020-08-19T14:17:57Z</time>
      </trkpt>
      <trkpt lat="48.78026" lon="6.06918">
        <ele>304.88</ele>
        <time>2020-08-19T14:17:58Z</time>
      </trkpt>
      <trkpt lat="48.7803" lon="6.06916">
        <ele>304.88</ele>
        <time>2020-08-19T14:17:59Z</time>
      </trkpt>
      <trkpt lat="48.78034" lon="6.06914">
        <ele>304.88</ele>
        <time>2020-08-19T14:18:00Z</time>
      </trkpt>
      <trkpt lat="48.78038" lon="6.06913">
        <ele>305.36</ele>
        <time>2020-08-19T14:18:01Z</time>
      </trkpt>
      <trkpt lat="48.78042" lon="6.06913">
        <ele>305.36</ele>
        <time>2020-08-19T14:18:02Z</time>
      </trkpt>
      <trkpt lat="48.78046" lon="6.06913">
        <ele>305.36</ele>
        <time>2020-08-19T14:18:03Z</time>
      </trkpt>
      <trkpt lat="48.78055" lon="6.06912">
        <ele>305.36</ele>
        <time>2020-08-19T14:18:05Z</time>
      </trkpt>
      <trkpt lat="48.78079" lon="6.06911">
        <ele>304.88</ele>
        <time>2020-08-19T14:18:10Z</time>
      </trkpt>
      <trkpt lat="48.78105" lon="6.06906">
        <ele>303.91</ele>
        <time>2020-08-19T14:18:15Z</time>
      </trkpt>
      <trkpt lat="48.78183" lon="6.06922">
        <ele>301.03</ele>
        <time>2020-08-19T14:18:29Z</time>
      </trkpt>
      <trkpt lat="48.7821" lon="6.06933">
        <ele>298.63</ele>
        <time>2020-08-19T14:18:34Z</time>
      </trkpt>
      <trkpt lat="48.78216" lon="6.06936">
        <ele>298.63</ele>
        <time>2020-08-19T14:18:35Z</time>
      </trkpt>
      <trkpt lat="48.78254" lon="6.06951">
        <ele>299.11</ele>
        <time>2020-08-19T14:18:43Z</time>
      </trkpt>
      <trkpt lat="48.78259" lon="6.06952">
        <ele>299.11</ele>
        <time>2020-08-19T14:18:44Z</time>
      </trkpt>
      <trkpt lat="48.78264" lon="6.06954">
        <ele>299.11</ele>
        <time>2020-08-19T14:18:45Z</time>
      </trkpt>
      <trkpt lat="48.78269" lon="6.06956">
        <ele>299.11</ele>
        <time>2020-08-19T14:18:46Z</time>
      </trkpt>
      <trkpt lat="48.78274" lon="6.06958">
        <ele>299.59</ele>
        <time>2020-08-19T14:18:47Z</time>
      </trkpt>
      <trkpt lat="48.7828" lon="6.06959">
        <ele>299.59</ele>
        <time>2020-08-19T14:18:48Z</time>
      </trkpt>
      <trkpt lat="48.78325" lon="6.06965">
        <ele>298.63</ele>
        <time>2020-08-19T14:18:56Z</time>
      </trkpt>
      <trkpt lat="48.78336" lon="6.06968">
        <ele>298.63</ele>
        <time>2020-08-19T14:18:58Z</time>
      </trkpt>
      <trkpt lat="48.78342" lon="6.06968">
        <ele>298.15</ele>
        <time>2020-08-19T14:18:59Z</time>
      </trkpt>
      <trkpt lat="48.78396" lon="6.06966">
        <ele>299.59</ele>
        <time>2020-08-19T14:19:09Z</time>
      </trkpt>
      <trkpt lat="48.78402" lon="6.06966">
        <ele>300.07</ele>
        <time>2020-08-19T14:19:10Z</time>
      </trkpt>
      <trkpt lat="48.78408" lon="6.06967">
        <ele>300.07</ele>
        <time>2020-08-19T14:19:11Z</time>
      </trkpt>
      <trkpt lat="48.78418" lon="6.06968">
        <ele>299.59</ele>
        <time>2020-08-19T14:19:13Z</time>
      </trkpt>
      <trkpt lat="48.78424" lon="6.06967">
        <ele>299.59</ele>
        <time>2020-08-19T14:19:14Z</time>
      </trkpt>
      <trkpt lat="48.78429" lon="6.06964">
        <ele>299.11</ele>
        <time>2020-08-19T14:19:15Z</time>
      </trkpt>
      <trkpt lat="48.78433" lon="6.06961">
        <ele>299.11</ele>
        <time>2020-08-19T14:19:16Z</time>
      </trkpt>
      <trkpt lat="48.78438" lon="6.06956">
        <ele>298.63</ele>
        <time>2020-08-19T14:19:17Z</time>
      </trkpt>
      <trkpt lat="48.78454" lon="6.06938">
        <ele>296.22</ele>
        <time>2020-08-19T14:19:24Z</time>
      </trkpt>
      <trkpt lat="48.78456" lon="6.06931">
        <ele>295.26</ele>
        <time>2020-08-19T14:19:25Z</time>
      </trkpt>
      <trkpt lat="48.78458" lon="6.06925">
        <ele>294.78</ele>
        <time>2020-08-19T14:19:26Z</time>
      </trkpt>
      <trkpt lat="48.78484" lon="6.06824">
        <ele>290.46</ele>
        <time>2020-08-19T14:19:40Z</time>
      </trkpt>
      <trkpt lat="48.78486" lon="6.06816">
        <ele>289.97</ele>
        <time>2020-08-19T14:19:41Z</time>
      </trkpt>
      <trkpt lat="48.78496" lon="6.06784">
        <ele>289.01</ele>
        <time>2020-08-19T14:19:45Z</time>
      </trkpt>
      <trkpt lat="48.78534" lon="6.06698">
        <ele>286.13</ele>
        <time>2020-08-19T14:19:56Z</time>
      </trkpt>
      <trkpt lat="48.78594" lon="6.066">
        <ele>283.25</ele>
        <time>2020-08-19T14:20:10Z</time>
      </trkpt>
      <trkpt lat="48.78598" lon="6.06595">
        <ele>283.25</ele>
        <time>2020-08-19T14:20:11Z</time>
      </trkpt>
      <trkpt lat="48.78628" lon="6.06555">
        <ele>283.73</ele>
        <time>2020-08-19T14:20:18Z</time>
      </trkpt>
      <trkpt lat="48.78641" lon="6.06535">
        <ele>283.25</ele>
        <time>2020-08-19T14:20:21Z</time>
      </trkpt>
      <trkpt lat="48.78645" lon="6.06531">
        <ele>283.25</ele>
        <time>2020-08-19T14:20:22Z</time>
      </trkpt>
      <trkpt lat="48.78649" lon="6.06526">
        <ele>283.73</ele>
        <time>2020-08-19T14:20:23Z</time>
      </trkpt>
      <trkpt lat="48.78659" lon="6.06512">
        <ele>284.21</ele>
        <time>2020-08-19T14:20:26Z</time>
      </trkpt>
      <trkpt lat="48.78663" lon="6.06508">
        <ele>284.69</ele>
        <time>2020-08-19T14:20:27Z</time>
      </trkpt>
      <trkpt lat="48.78666" lon="6.06505">
        <ele>285.17</ele>
        <time>2020-08-19T14:20:28Z</time>
      </trkpt>
      <trkpt lat="48.78676" lon="6.06492">
        <ele>286.13</ele>
        <time>2020-08-19T14:20:31Z</time>
      </trkpt>
      <trkpt lat="48.7869" lon="6.06476">
        <ele>286.13</ele>
        <time>2020-08-19T14:20:34Z</time>
      </trkpt>
      <trkpt lat="48.78734" lon="6.06414">
        <ele>282.77</ele>
        <time>2020-08-19T14:20:44Z</time>
      </trkpt>
      <trkpt lat="48.78738" lon="6.06408">
        <ele>282.28</ele>
        <time>2020-08-19T14:20:45Z</time>
      </trkpt>
      <trkpt lat="48.78746" lon="6.06397">
        <ele>281.8</ele>
        <time>2020-08-19T14:20:47Z</time>
      </trkpt>
      <trkpt lat="48.78753" lon="6.06383">
        <ele>280.84</ele>
        <time>2020-08-19T14:20:49Z</time>
      </trkpt>
      <trkpt lat="48.78756" lon="6.06377">
        <ele>280.36</ele>
        <time>2020-08-19T14:20:50Z</time>
      </trkpt>
      <trkpt lat="48.7876" lon="6.0637">
        <ele>280.36</ele>
        <time>2020-08-19T14:20:51Z</time>
      </trkpt>
      <trkpt lat="48.78773" lon="6.06344">
        <ele>277.48</ele>
        <time>2020-08-19T14:20:59Z</time>
      </trkpt>
      <trkpt lat="48.78779" lon="6.06328">
        <ele>276.04</ele>
        <time>2020-08-19T14:21:12Z</time>
      </trkpt>
      <trkpt lat="48.78782" lon="6.06324">
        <ele>275.56</ele>
        <time>2020-08-19T14:21:17Z</time>
      </trkpt>
      <trkpt lat="48.78776" lon="6.06332">
        <ele>275.07</ele>
        <time>2020-08-19T14:21:29Z</time>
      </trkpt>
      <trkpt lat="48.78774" lon="6.06341">
        <ele>275.56</ele>
        <time>2020-08-19T14:21:32Z</time>
      </trkpt>
      <trkpt lat="48.78775" lon="6.06342">
        <ele>275.56</ele>
        <time>2020-08-19T14:21:33Z</time>
      </trkpt>
      <trkpt lat="48.78776" lon="6.06345">
        <ele>275.56</ele>
        <time>2020-08-19T14:21:34Z</time>
      </trkpt>
      <trkpt lat="48.78777" lon="6.06348">
        <ele>275.56</ele>
        <time>2020-08-19T14:21:35Z</time>
      </trkpt>
      <trkpt lat="48.78779" lon="6.06352">
        <ele>275.07</ele>
        <time>2020-08-19T14:21:36Z</time>
      </trkpt>
      <trkpt lat="48.7878" lon="6.06356">
        <ele>275.07</ele>
        <time>2020-08-19T14:21:37Z</time>
      </trkpt>
      <trkpt lat="48.78798" lon="6.06435">
        <ele>276.04</ele>
        <time>2020-08-19T14:21:53Z</time>
      </trkpt>
      <trkpt lat="48.78822" lon="6.06537">
        <ele>276.52</ele>
        <time>2020-08-19T14:22:13Z</time>
      </trkpt>
      <trkpt lat="48.78844" lon="6.06629">
        <ele>277.48</ele>
        <time>2020-08-19T14:22:31Z</time>
      </trkpt>
      <trkpt lat="48.78863" lon="6.06713">
        <ele>279.4</ele>
        <time>2020-08-19T14:22:49Z</time>
      </trkpt>
      <trkpt lat="48.78879" lon="6.06779">
        <ele>281.8</ele>
        <time>2020-08-19T14:23:04Z</time>
      </trkpt>
      <trkpt lat="48.78894" lon="6.06843">
        <ele>284.69</ele>
        <time>2020-08-19T14:23:19Z</time>
      </trkpt>
      <trkpt lat="48.78893" lon="6.06847">
        <ele>285.17</ele>
        <time>2020-08-19T14:23:20Z</time>
      </trkpt>
      <trkpt lat="48.78892" lon="6.06851">
        <ele>285.17</ele>
        <time>2020-08-19T14:23:21Z</time>
      </trkpt>
      <trkpt lat="48.7889" lon="6.06856">
        <ele>285.17</ele>
        <time>2020-08-19T14:23:22Z</time>
      </trkpt>
      <trkpt lat="48.7889" lon="6.06859">
        <ele>285.17</ele>
        <time>2020-08-19T14:23:23Z</time>
      </trkpt>
      <trkpt lat="48.78889" lon="6.06864">
        <ele>285.17</ele>
        <time>2020-08-19T14:23:24Z</time>
      </trkpt>
      <trkpt lat="48.78889" lon="6.06924">
        <ele>286.61</ele>
        <time>2020-08-19T14:23:38Z</time>
      </trkpt>
      <trkpt lat="48.78898" lon="6.06957">
        <ele>288.53</ele>
        <time>2020-08-19T14:23:46Z</time>
      </trkpt>
      <trkpt lat="48.78901" lon="6.06958">
        <ele>289.01</ele>
        <time>2020-08-19T14:23:47Z</time>
      </trkpt>
      <trkpt lat="48.78904" lon="6.06958">
        <ele>289.01</ele>
        <time>2020-08-19T14:23:48Z</time>
      </trkpt>
      <trkpt lat="48.78907" lon="6.06958">
        <ele>289.01</ele>
        <time>2020-08-19T14:23:49Z</time>
      </trkpt>
      <trkpt lat="48.7891" lon="6.06957">
        <ele>289.01</ele>
        <time>2020-08-19T14:23:50Z</time>
      </trkpt>
      <trkpt lat="48.78914" lon="6.06956">
        <ele>289.01</ele>
        <time>2020-08-19T14:23:51Z</time>
      </trkpt>
      <trkpt lat="48.78955" lon="6.06949">
        <ele>288.53</ele>
        <time>2020-08-19T14:24:01Z</time>
      </trkpt>
      <trkpt lat="48.7896" lon="6.06948">
        <ele>288.53</ele>
        <time>2020-08-19T14:24:02Z</time>
      </trkpt>
      <trkpt lat="48.79019" lon="6.06937">
        <ele>290.46</ele>
        <time>2020-08-19T14:24:14Z</time>
      </trkpt>
      <trkpt lat="48.7908" lon="6.06924">
        <ele>290.46</ele>
        <time>2020-08-19T14:24:26Z</time>
      </trkpt>
      <trkpt lat="48.79086" lon="6.06922">
        <ele>289.97</ele>
        <time>2020-08-19T14:24:27Z</time>
      </trkpt>
      <trkpt lat="48.79101" lon="6.06914">
        <ele>289.49</ele>
        <time>2020-08-19T14:24:30Z</time>
      </trkpt>
      <trkpt lat="48.79108" lon="6.06913">
        <ele>289.49</ele>
        <time>2020-08-19T14:24:31Z</time>
      </trkpt>
      <trkpt lat="48.79113" lon="6.06913">
        <ele>289.49</ele>
        <time>2020-08-19T14:24:32Z</time>
      </trkpt>
      <trkpt lat="48.79118" lon="6.06912">
        <ele>289.49</ele>
        <time>2020-08-19T14:24:33Z</time>
      </trkpt>
      <trkpt lat="48.79123" lon="6.06909">
        <ele>289.49</ele>
        <time>2020-08-19T14:24:34Z</time>
      </trkpt>
      <trkpt lat="48.79129" lon="6.06906">
        <ele>289.01</ele>
        <time>2020-08-19T14:24:35Z</time>
      </trkpt>
      <trkpt lat="48.79134" lon="6.06905">
        <ele>289.01</ele>
        <time>2020-08-19T14:24:36Z</time>
      </trkpt>
      <trkpt lat="48.7914" lon="6.06904">
        <ele>289.01</ele>
        <time>2020-08-19T14:24:37Z</time>
      </trkpt>
      <trkpt lat="48.79146" lon="6.06904">
        <ele>289.01</ele>
        <time>2020-08-19T14:24:38Z</time>
      </trkpt>
      <trkpt lat="48.79152" lon="6.06905">
        <ele>289.01</ele>
        <time>2020-08-19T14:24:39Z</time>
      </trkpt>
      <trkpt lat="48.79158" lon="6.06907">
        <ele>289.01</ele>
        <time>2020-08-19T14:24:40Z</time>
      </trkpt>
      <trkpt lat="48.79163" lon="6.06908">
        <ele>288.53</ele>
        <time>2020-08-19T14:24:41Z</time>
      </trkpt>
      <trkpt lat="48.79169" lon="6.06911">
        <ele>289.01</ele>
        <time>2020-08-19T14:24:42Z</time>
      </trkpt>
      <trkpt lat="48.79175" lon="6.06912">
        <ele>288.53</ele>
        <time>2020-08-19T14:24:43Z</time>
      </trkpt>
      <trkpt lat="48.79202" lon="6.06919">
        <ele>289.01</ele>
        <time>2020-08-19T14:24:48Z</time>
      </trkpt>
      <trkpt lat="48.79217" lon="6.06924">
        <ele>288.53</ele>
        <time>2020-08-19T14:24:51Z</time>
      </trkpt>
      <trkpt lat="48.79222" lon="6.06925">
        <ele>289.01</ele>
        <time>2020-08-19T14:24:52Z</time>
      </trkpt>
      <trkpt lat="48.7926" lon="6.06939">
        <ele>286.61</ele>
        <time>2020-08-19T14:24:59Z</time>
      </trkpt>
      <trkpt lat="48.79265" lon="6.06941">
        <ele>286.61</ele>
        <time>2020-08-19T14:25:00Z</time>
      </trkpt>
      <trkpt lat="48.79269" lon="6.06942">
        <ele>286.13</ele>
        <time>2020-08-19T14:25:01Z</time>
      </trkpt>
      <trkpt lat="48.79272" lon="6.0694">
        <ele>286.13</ele>
        <time>2020-08-19T14:25:02Z</time>
      </trkpt>
      <trkpt lat="48.79273" lon="6.06936">
        <ele>285.65</ele>
        <time>2020-08-19T14:25:04Z</time>
      </trkpt>
      <trkpt lat="48.79273" lon="6.06929">
        <ele>285.65</ele>
        <time>2020-08-19T14:25:05Z</time>
      </trkpt>
      <trkpt lat="48.79273" lon="6.06911">
        <ele>285.17</ele>
        <time>2020-08-19T14:25:08Z</time>
      </trkpt>
      <trkpt lat="48.79273" lon="6.06905">
        <ele>284.69</ele>
        <time>2020-08-19T14:25:09Z</time>
      </trkpt>
      <trkpt lat="48.79265" lon="6.06824">
        <ele>278.92</ele>
        <time>2020-08-19T14:25:22Z</time>
      </trkpt>
      <trkpt lat="48.79266" lon="6.06817">
        <ele>278.44</ele>
        <time>2020-08-19T14:25:24Z</time>
      </trkpt>
      <trkpt lat="48.79287" lon="6.06775">
        <ele>277.48</ele>
        <time>2020-08-19T14:25:33Z</time>
      </trkpt>
      <trkpt lat="48.7929" lon="6.0677">
        <ele>277</ele>
        <time>2020-08-19T14:25:34Z</time>
      </trkpt>
      <trkpt lat="48.79294" lon="6.06765">
        <ele>277</ele>
        <time>2020-08-19T14:25:35Z</time>
      </trkpt>
      <trkpt lat="48.79298" lon="6.0676">
        <ele>276.52</ele>
        <time>2020-08-19T14:25:36Z</time>
      </trkpt>
      <trkpt lat="48.79303" lon="6.06757">
        <ele>276.52</ele>
        <time>2020-08-19T14:25:37Z</time>
      </trkpt>
      <trkpt lat="48.79308" lon="6.06754">
        <ele>276.04</ele>
        <time>2020-08-19T14:25:38Z</time>
      </trkpt>
      <trkpt lat="48.79312" lon="6.06752">
        <ele>275.56</ele>
        <time>2020-08-19T14:25:39Z</time>
      </trkpt>
      <trkpt lat="48.79317" lon="6.06749">
        <ele>275.07</ele>
        <time>2020-08-19T14:25:40Z</time>
      </trkpt>
      <trkpt lat="48.79346" lon="6.06735">
        <ele>273.63</ele>
        <time>2020-08-19T14:25:46Z</time>
      </trkpt>
      <trkpt lat="48.79362" lon="6.06729">
        <ele>272.67</ele>
        <time>2020-08-19T14:25:49Z</time>
      </trkpt>
      <trkpt lat="48.79366" lon="6.06727">
        <ele>272.67</ele>
        <time>2020-08-19T14:25:50Z</time>
      </trkpt>
      <trkpt lat="48.79382" lon="6.0672">
        <ele>271.71</ele>
        <time>2020-08-19T14:25:53Z</time>
      </trkpt>
      <trkpt lat="48.79393" lon="6.06715">
        <ele>270.27</ele>
        <time>2020-08-19T14:25:59Z</time>
      </trkpt>
      <trkpt lat="48.79425" lon="6.06701">
        <ele>268.35</ele>
        <time>2020-08-19T14:26:08Z</time>
      </trkpt>
      <trkpt lat="48.7943" lon="6.06699">
        <ele>268.35</ele>
        <time>2020-08-19T14:26:09Z</time>
      </trkpt>
      <trkpt lat="48.79458" lon="6.06691">
        <ele>266.42</ele>
        <time>2020-08-19T14:26:16Z</time>
      </trkpt>
      <trkpt lat="48.79462" lon="6.0669">
        <ele>266.42</ele>
        <time>2020-08-19T14:26:17Z</time>
      </trkpt>
      <trkpt lat="48.79466" lon="6.06691">
        <ele>266.42</ele>
        <time>2020-08-19T14:26:18Z</time>
      </trkpt>
      <trkpt lat="48.79469" lon="6.06694">
        <ele>266.9</ele>
        <time>2020-08-19T14:26:19Z</time>
      </trkpt>
      <trkpt lat="48.79473" lon="6.06699">
        <ele>266.9</ele>
        <time>2020-08-19T14:26:20Z</time>
      </trkpt>
      <trkpt lat="48.79477" lon="6.06702">
        <ele>266.9</ele>
        <time>2020-08-19T14:26:21Z</time>
      </trkpt>
      <trkpt lat="48.79481" lon="6.06706">
        <ele>267.38</ele>
        <time>2020-08-19T14:26:22Z</time>
      </trkpt>
      <trkpt lat="48.79485" lon="6.06711">
        <ele>267.38</ele>
        <time>2020-08-19T14:26:23Z</time>
      </trkpt>
      <trkpt lat="48.79495" lon="6.06724">
        <ele>267.38</ele>
        <time>2020-08-19T14:26:26Z</time>
      </trkpt>
      <trkpt lat="48.79509" lon="6.06744">
        <ele>267.38</ele>
        <time>2020-08-19T14:26:30Z</time>
      </trkpt>
      <trkpt lat="48.79524" lon="6.06773">
        <ele>267.86</ele>
        <time>2020-08-19T14:26:35Z</time>
      </trkpt>
      <trkpt lat="48.79536" lon="6.068">
        <ele>268.83</ele>
        <time>2020-08-19T14:26:40Z</time>
      </trkpt>
      <trkpt lat="48.79558" lon="6.06854">
        <ele>269.31</ele>
        <time>2020-08-19T14:26:50Z</time>
      </trkpt>
      <trkpt lat="48.79558" lon="6.06859">
        <ele>269.31</ele>
        <time>2020-08-19T14:26:51Z</time>
      </trkpt>
      <trkpt lat="48.79543" lon="6.06911">
        <ele>267.86</ele>
        <time>2020-08-19T14:27:02Z</time>
      </trkpt>
      <trkpt lat="48.79538" lon="6.06957">
        <ele>269.79</ele>
        <time>2020-08-19T14:27:10Z</time>
      </trkpt>
      <trkpt lat="48.79519" lon="6.06998">
        <ele>270.27</ele>
        <time>2020-08-19T14:27:19Z</time>
      </trkpt>
      <trkpt lat="48.79516" lon="6.07017">
        <ele>271.23</ele>
        <time>2020-08-19T14:27:23Z</time>
      </trkpt>
      <trkpt lat="48.79516" lon="6.0702">
        <ele>271.23</ele>
        <time>2020-08-19T14:27:24Z</time>
      </trkpt>
      <trkpt lat="48.79517" lon="6.07023">
        <ele>271.71</ele>
        <time>2020-08-19T14:27:26Z</time>
      </trkpt>
      <trkpt lat="48.79518" lon="6.07025">
        <ele>272.19</ele>
        <time>2020-08-19T14:27:27Z</time>
      </trkpt>
      <trkpt lat="48.7952" lon="6.07025">
        <ele>271.71</ele>
        <time>2020-08-19T14:27:28Z</time>
      </trkpt>
      <trkpt lat="48.79522" lon="6.07025">
        <ele>271.71</ele>
        <time>2020-08-19T14:27:29Z</time>
      </trkpt>
      <trkpt lat="48.79524" lon="6.07026">
        <ele>271.71</ele>
        <time>2020-08-19T14:27:30Z</time>
      </trkpt>
      <trkpt lat="48.79525" lon="6.07026">
        <ele>271.71</ele>
        <time>2020-08-19T14:27:31Z</time>
      </trkpt>
      <trkpt lat="48.79554" lon="6.07037">
        <ele>272.19</ele>
        <time>2020-08-19T14:27:40Z</time>
      </trkpt>
      <trkpt lat="48.79561" lon="6.0704">
        <ele>271.23</ele>
        <time>2020-08-19T14:27:43Z</time>
      </trkpt>
      <trkpt lat="48.79561" lon="6.07042">
        <ele>270.75</ele>
        <time>2020-08-19T14:27:44Z</time>
      </trkpt>
      <trkpt lat="48.79562" lon="6.07046">
        <ele>269.79</ele>
        <time>2020-08-19T14:27:47Z</time>
      </trkpt>
      <trkpt lat="48.79554" lon="6.07081">
        <ele>268.83</ele>
        <time>2020-08-19T14:27:55Z</time>
      </trkpt>
      <trkpt lat="48.79552" lon="6.07086">
        <ele>268.83</ele>
        <time>2020-08-19T14:27:56Z</time>
      </trkpt>
      <trkpt lat="48.79551" lon="6.07092">
        <ele>268.35</ele>
        <time>2020-08-19T14:27:57Z</time>
      </trkpt>
      <trkpt lat="48.7955" lon="6.07097">
        <ele>268.35</ele>
        <time>2020-08-19T14:27:58Z</time>
      </trkpt>
      <trkpt lat="48.79547" lon="6.07109">
        <ele>267.86</ele>
        <time>2020-08-19T14:28:00Z</time>
      </trkpt>
      <trkpt lat="48.79534" lon="6.07196">
        <ele>265.94</ele>
        <time>2020-08-19T14:28:14Z</time>
      </trkpt>
      <trkpt lat="48.79526" lon="6.07215">
        <ele>265.94</ele>
        <time>2020-08-19T14:28:18Z</time>
      </trkpt>
      <trkpt lat="48.79507" lon="6.07234">
        <ele>266.9</ele>
        <time>2020-08-19T14:28:32Z</time>
      </trkpt>
      <trkpt lat="48.79494" lon="6.07273">
        <ele>269.31</ele>
        <time>2020-08-19T14:28:44Z</time>
      </trkpt>
      <trkpt lat="48.79488" lon="6.07333">
        <ele>270.75</ele>
        <time>2020-08-19T14:28:56Z</time>
      </trkpt>
      <trkpt lat="48.79484" lon="6.07362">
        <ele>269.79</ele>
        <time>2020-08-19T14:29:05Z</time>
      </trkpt>
      <trkpt lat="48.79481" lon="6.07381">
        <ele>268.83</ele>
        <time>2020-08-19T14:29:35Z</time>
      </trkpt>
      <trkpt lat="48.79472" lon="6.07428">
        <ele>268.35</ele>
        <time>2020-08-19T14:29:46Z</time>
      </trkpt>
      <trkpt lat="48.79472" lon="6.07435">
        <ele>267.86</ele>
        <time>2020-08-19T14:29:47Z</time>
      </trkpt>
      <trkpt lat="48.79468" lon="6.07467">
        <ele>265.94</ele>
        <time>2020-08-19T14:29:52Z</time>
      </trkpt>
      <trkpt lat="48.79451" lon="6.07474">
        <ele>266.9</ele>
        <time>2020-08-19T14:30:02Z</time>
      </trkpt>
      <trkpt lat="48.79447" lon="6.07473">
        <ele>267.38</ele>
        <time>2020-08-19T14:30:04Z</time>
      </trkpt>
      <trkpt lat="48.79411" lon="6.07461">
        <ele>270.75</ele>
        <time>2020-08-19T14:30:19Z</time>
      </trkpt>
      <trkpt lat="48.79393" lon="6.07447">
        <ele>270.27</ele>
        <time>2020-08-19T14:30:30Z</time>
      </trkpt>
      <trkpt lat="48.79382" lon="6.07438">
        <ele>273.15</ele>
        <time>2020-08-19T14:30:43Z</time>
      </trkpt>
      <trkpt lat="48.79362" lon="6.07424">
        <ele>276.04</ele>
        <time>2020-08-19T14:30:56Z</time>
      </trkpt>
      <trkpt lat="48.7936" lon="6.07421">
        <ele>276.04</ele>
        <time>2020-08-19T14:31:07Z</time>
      </trkpt>
      <trkpt lat="48.79357" lon="6.07407">
        <ele>276.52</ele>
        <time>2020-08-19T14:31:14Z</time>
      </trkpt>
      <trkpt lat="48.79352" lon="6.07365">
        <ele>277.96</ele>
        <time>2020-08-19T14:31:28Z</time>
      </trkpt>
      <trkpt lat="48.79345" lon="6.07321">
        <ele>282.77</ele>
        <time>2020-08-19T14:31:41Z</time>
      </trkpt>
      <trkpt lat="48.79336" lon="6.07271">
        <ele>283.25</ele>
        <time>2020-08-19T14:31:54Z</time>
      </trkpt>
      <trkpt lat="48.7933" lon="6.07229">
        <ele>285.17</ele>
        <time>2020-08-19T14:32:05Z</time>
      </trkpt>
      <trkpt lat="48.79324" lon="6.07179">
        <ele>285.65</ele>
        <time>2020-08-19T14:32:17Z</time>
      </trkpt>
      <trkpt lat="48.79312" lon="6.07119">
        <ele>286.61</ele>
        <time>2020-08-19T14:32:29Z</time>
      </trkpt>
      <trkpt lat="48.79308" lon="6.07106">
        <ele>286.13</ele>
        <time>2020-08-19T14:32:32Z</time>
      </trkpt>
      <trkpt lat="48.79306" lon="6.07104">
        <ele>285.65</ele>
        <time>2020-08-19T14:32:33Z</time>
      </trkpt>
      <trkpt lat="48.79303" lon="6.07103">
        <ele>286.13</ele>
        <time>2020-08-19T14:32:34Z</time>
      </trkpt>
      <trkpt lat="48.79301" lon="6.07104">
        <ele>285.65</ele>
        <time>2020-08-19T14:32:35Z</time>
      </trkpt>
      <trkpt lat="48.79298" lon="6.07104">
        <ele>285.65</ele>
        <time>2020-08-19T14:32:36Z</time>
      </trkpt>
      <trkpt lat="48.79296" lon="6.07105">
        <ele>285.17</ele>
        <time>2020-08-19T14:32:37Z</time>
      </trkpt>
      <trkpt lat="48.79293" lon="6.07106">
        <ele>284.69</ele>
        <time>2020-08-19T14:32:38Z</time>
      </trkpt>
      <trkpt lat="48.79261" lon="6.07116">
        <ele>282.28</ele>
        <time>2020-08-19T14:32:51Z</time>
      </trkpt>
      <trkpt lat="48.79226" lon="6.07122">
        <ele>282.77</ele>
        <time>2020-08-19T14:33:05Z</time>
      </trkpt>
      <trkpt lat="48.79193" lon="6.07133">
        <ele>284.21</ele>
        <time>2020-08-19T14:33:18Z</time>
      </trkpt>
      <trkpt lat="48.79151" lon="6.07144">
        <ele>283.25</ele>
        <time>2020-08-19T14:33:34Z</time>
      </trkpt>
      <trkpt lat="48.79125" lon="6.0715">
        <ele>285.17</ele>
        <time>2020-08-19T14:33:45Z</time>
      </trkpt>
      <trkpt lat="48.79089" lon="6.07162">
        <ele>286.13</ele>
        <time>2020-08-19T14:33:58Z</time>
      </trkpt>
      <trkpt lat="48.79038" lon="6.07176">
        <ele>286.13</ele>
        <time>2020-08-19T14:34:13Z</time>
      </trkpt>
      <trkpt lat="48.78986" lon="6.07189">
        <ele>285.17</ele>
        <time>2020-08-19T14:34:26Z</time>
      </trkpt>
      <trkpt lat="48.78938" lon="6.072">
        <ele>286.13</ele>
        <time>2020-08-19T14:34:38Z</time>
      </trkpt>
      <trkpt lat="48.78934" lon="6.07201">
        <ele>285.65</ele>
        <time>2020-08-19T14:34:39Z</time>
      </trkpt>
      <trkpt lat="48.78912" lon="6.07207">
        <ele>284.69</ele>
        <time>2020-08-19T14:34:44Z</time>
      </trkpt>
      <trkpt lat="48.78906" lon="6.07209">
        <ele>284.69</ele>
        <time>2020-08-19T14:34:45Z</time>
      </trkpt>
      <trkpt lat="48.78873" lon="6.07217">
        <ele>280.84</ele>
        <time>2020-08-19T14:34:54Z</time>
      </trkpt>
      <trkpt lat="48.78869" lon="6.07219">
        <ele>280.36</ele>
        <time>2020-08-19T14:34:55Z</time>
      </trkpt>
      <trkpt lat="48.78817" lon="6.07233">
        <ele>276.04</ele>
        <time>2020-08-19T14:35:03Z</time>
      </trkpt>
      <trkpt lat="48.78812" lon="6.07234">
        <ele>276.04</ele>
        <time>2020-08-19T14:35:04Z</time>
      </trkpt>
      <trkpt lat="48.78802" lon="6.07236">
        <ele>275.56</ele>
        <time>2020-08-19T14:35:06Z</time>
      </trkpt>
      <trkpt lat="48.78785" lon="6.07246">
        <ele>274.59</ele>
        <time>2020-08-19T14:35:11Z</time>
      </trkpt>
      <trkpt lat="48.78782" lon="6.07253">
        <ele>274.11</ele>
        <time>2020-08-19T14:35:13Z</time>
      </trkpt>
      <trkpt lat="48.7878" lon="6.07255">
        <ele>274.11</ele>
        <time>2020-08-19T14:35:14Z</time>
      </trkpt>
      <trkpt lat="48.78777" lon="6.07256">
        <ele>273.63</ele>
        <time>2020-08-19T14:35:15Z</time>
      </trkpt>
      <trkpt lat="48.78759" lon="6.07265">
        <ele>274.59</ele>
        <time>2020-08-19T14:35:23Z</time>
      </trkpt>
      <trkpt lat="48.78756" lon="6.07266">
        <ele>275.07</ele>
        <time>2020-08-19T14:35:24Z</time>
      </trkpt>
      <trkpt lat="48.78754" lon="6.07267">
        <ele>275.07</ele>
        <time>2020-08-19T14:35:25Z</time>
      </trkpt>
      <trkpt lat="48.78728" lon="6.07276">
        <ele>277</ele>
        <time>2020-08-19T14:35:38Z</time>
      </trkpt>
      <trkpt lat="48.78729" lon="6.07276">
        <ele>279.4</ele>
        <time>2020-08-19T14:35:51Z</time>
      </trkpt>
      <trkpt lat="48.78732" lon="6.07275">
        <ele>279.88</ele>
        <time>2020-08-19T14:35:53Z</time>
      </trkpt>
      <trkpt lat="48.78733" lon="6.07275">
        <ele>280.36</ele>
        <time>2020-08-19T14:35:54Z</time>
      </trkpt>
      <trkpt lat="48.78735" lon="6.07275">
        <ele>280.84</ele>
        <time>2020-08-19T14:35:55Z</time>
      </trkpt>
      <trkpt lat="48.78736" lon="6.07275">
        <ele>281.8</ele>
        <time>2020-08-19T14:35:56Z</time>
      </trkpt>
      <trkpt lat="48.78738" lon="6.07277">
        <ele>283.25</ele>
        <time>2020-08-19T14:35:59Z</time>
      </trkpt>
      <trkpt lat="48.78738" lon="6.07279">
        <ele>283.73</ele>
        <time>2020-08-19T14:36:00Z</time>
      </trkpt>
      <trkpt lat="48.78736" lon="6.07287">
        <ele>284.21</ele>
        <time>2020-08-19T14:36:04Z</time>
      </trkpt>
      <trkpt lat="48.78735" lon="6.07289">
        <ele>284.21</ele>
        <time>2020-08-19T14:36:05Z</time>
      </trkpt>
      <trkpt lat="48.78734" lon="6.07291">
        <ele>284.21</ele>
        <time>2020-08-19T14:36:06Z</time>
      </trkpt>
      <trkpt lat="48.78733" lon="6.07294">
        <ele>284.69</ele>
        <time>2020-08-19T14:36:07Z</time>
      </trkpt>
      <trkpt lat="48.78732" lon="6.07296">
        <ele>284.69</ele>
        <time>2020-08-19T14:36:08Z</time>
      </trkpt>
      <trkpt lat="48.78731" lon="6.07298">
        <ele>285.17</ele>
        <time>2020-08-19T14:36:09Z</time>
      </trkpt>
      <trkpt lat="48.7873" lon="6.07299">
        <ele>285.17</ele>
        <time>2020-08-19T14:36:10Z</time>
      </trkpt>
      <trkpt lat="48.78728" lon="6.07301">
        <ele>285.65</ele>
        <time>2020-08-19T14:36:11Z</time>
      </trkpt>
      <trkpt lat="48.78726" lon="6.07302">
        <ele>285.65</ele>
        <time>2020-08-19T14:36:12Z</time>
      </trkpt>
      <trkpt lat="48.78723" lon="6.07305">
        <ele>285.65</ele>
        <time>2020-08-19T14:36:13Z</time>
      </trkpt>
      <trkpt lat="48.78698" lon="6.0732">
        <ele>287.09</ele>
        <time>2020-08-19T14:36:24Z</time>
      </trkpt>
      <trkpt lat="48.78696" lon="6.07321">
        <ele>287.09</ele>
        <time>2020-08-19T14:36:25Z</time>
      </trkpt>
      <trkpt lat="48.7866" lon="6.07332">
        <ele>289.97</ele>
        <time>2020-08-19T14:36:39Z</time>
      </trkpt>
      <trkpt lat="48.78632" lon="6.07339">
        <ele>291.9</ele>
        <time>2020-08-19T14:36:50Z</time>
      </trkpt>
      <trkpt lat="48.78606" lon="6.07345">
        <ele>294.78</ele>
        <time>2020-08-19T14:37:01Z</time>
      </trkpt>
      <trkpt lat="48.78574" lon="6.07357">
        <ele>298.15</ele>
        <time>2020-08-19T14:37:14Z</time>
      </trkpt>
      <trkpt lat="48.78543" lon="6.07366">
        <ele>300.55</ele>
        <time>2020-08-19T14:37:28Z</time>
      </trkpt>
      <trkpt lat="48.78519" lon="6.07374">
        <ele>305.36</ele>
        <time>2020-08-19T14:37:40Z</time>
      </trkpt>
      <trkpt lat="48.78518" lon="6.07373">
        <ele>305.36</ele>
        <time>2020-08-19T14:37:41Z</time>
      </trkpt>
      <trkpt lat="48.78516" lon="6.0737">
        <ele>305.84</ele>
        <time>2020-08-19T14:37:42Z</time>
      </trkpt>
      <trkpt lat="48.78516" lon="6.07369">
        <ele>305.84</ele>
        <time>2020-08-19T14:37:43Z</time>
      </trkpt>
      <trkpt lat="48.78515" lon="6.07366">
        <ele>306.32</ele>
        <time>2020-08-19T14:37:44Z</time>
      </trkpt>
      <trkpt lat="48.78514" lon="6.07364">
        <ele>306.32</ele>
        <time>2020-08-19T14:37:45Z</time>
      </trkpt>
      <trkpt lat="48.78514" lon="6.07363">
        <ele>306.32</ele>
        <time>2020-08-19T14:37:46Z</time>
      </trkpt>
      <trkpt lat="48.78513" lon="6.07361">
        <ele>306.32</ele>
        <time>2020-08-19T14:37:47Z</time>
      </trkpt>
      <trkpt lat="48.78504" lon="6.07334">
        <ele>305.36</ele>
        <time>2020-08-19T14:38:03Z</time>
      </trkpt>
      <trkpt lat="48.78501" lon="6.07327">
        <ele>306.32</ele>
        <time>2020-08-19T14:38:06Z</time>
      </trkpt>
      <trkpt lat="48.785" lon="6.07325">
        <ele>306.8</ele>
        <time>2020-08-19T14:38:07Z</time>
      </trkpt>
      <trkpt lat="48.78498" lon="6.07324">
        <ele>307.28</ele>
        <time>2020-08-19T14:38:08Z</time>
      </trkpt>
      <trkpt lat="48.78483" lon="6.07319">
        <ele>310.16</ele>
        <time>2020-08-19T14:38:22Z</time>
      </trkpt>
      <trkpt lat="48.78462" lon="6.07324">
        <ele>311.6</ele>
        <time>2020-08-19T14:38:36Z</time>
      </trkpt>
      <trkpt lat="48.78441" lon="6.0733">
        <ele>312.57</ele>
        <time>2020-08-19T14:38:51Z</time>
      </trkpt>
      <trkpt lat="48.7842" lon="6.07335">
        <ele>313.05</ele>
        <time>2020-08-19T14:39:04Z</time>
      </trkpt>
      <trkpt lat="48.78398" lon="6.0734">
        <ele>313.53</ele>
        <time>2020-08-19T14:39:16Z</time>
      </trkpt>
      <trkpt lat="48.78374" lon="6.07342">
        <ele>314.01</ele>
        <time>2020-08-19T14:39:29Z</time>
      </trkpt>
      <trkpt lat="48.78367" lon="6.07347">
        <ele>315.45</ele>
        <time>2020-08-19T14:39:34Z</time>
      </trkpt>
      <trkpt lat="48.78354" lon="6.07379">
        <ele>315.93</ele>
        <time>2020-08-19T14:39:48Z</time>
      </trkpt>
      <trkpt lat="48.78345" lon="6.07379">
        <ele>315.93</ele>
        <time>2020-08-19T14:39:53Z</time>
      </trkpt>
      <trkpt lat="48.78338" lon="6.07375">
        <ele>315.45</ele>
        <time>2020-08-19T14:39:56Z</time>
      </trkpt>
      <trkpt lat="48.78328" lon="6.07381">
        <ele>316.41</ele>
        <time>2020-08-19T14:40:04Z</time>
      </trkpt>
      <trkpt lat="48.78311" lon="6.07392">
        <ele>319.3</ele>
        <time>2020-08-19T14:40:14Z</time>
      </trkpt>
      <trkpt lat="48.78308" lon="6.07423">
        <ele>323.62</ele>
        <time>2020-08-19T14:40:26Z</time>
      </trkpt>
      <trkpt lat="48.78309" lon="6.07434">
        <ele>325.54</ele>
        <time>2020-08-19T14:40:30Z</time>
      </trkpt>
      <trkpt lat="48.7831" lon="6.07444">
        <ele>326.02</ele>
        <time>2020-08-19T14:40:34Z</time>
      </trkpt>
      <trkpt lat="48.78311" lon="6.07459">
        <ele>325.54</ele>
        <time>2020-08-19T14:40:39Z</time>
      </trkpt>
      <trkpt lat="48.78309" lon="6.07473">
        <ele>325.06</ele>
        <time>2020-08-19T14:40:43Z</time>
      </trkpt>
      <trkpt lat="48.78304" lon="6.07502">
        <ele>326.5</ele>
        <time>2020-08-19T14:40:55Z</time>
      </trkpt>
      <trkpt lat="48.78296" lon="6.07522">
        <ele>327.95</ele>
        <time>2020-08-19T14:41:03Z</time>
      </trkpt>
      <trkpt lat="48.78295" lon="6.07526">
        <ele>328.91</ele>
        <time>2020-08-19T14:41:05Z</time>
      </trkpt>
      <trkpt lat="48.78289" lon="6.07535">
        <ele>330.35</ele>
        <time>2020-08-19T14:41:10Z</time>
      </trkpt>
      <trkpt lat="48.78281" lon="6.07573">
        <ele>333.71</ele>
        <time>2020-08-19T14:41:26Z</time>
      </trkpt>
      <trkpt lat="48.78273" lon="6.07603">
        <ele>333.23</ele>
        <time>2020-08-19T14:41:39Z</time>
      </trkpt>
      <trkpt lat="48.78262" lon="6.07633">
        <ele>335.64</ele>
        <time>2020-08-19T14:41:53Z</time>
      </trkpt>
      <trkpt lat="48.78255" lon="6.07659">
        <ele>337.56</ele>
        <time>2020-08-19T14:42:04Z</time>
      </trkpt>
      <trkpt lat="48.7825" lon="6.0767">
        <ele>339.48</ele>
        <time>2020-08-19T14:42:09Z</time>
      </trkpt>
      <trkpt lat="48.78249" lon="6.07693">
        <ele>341.89</ele>
        <time>2020-08-19T14:42:16Z</time>
      </trkpt>
      <trkpt lat="48.78247" lon="6.07717">
        <ele>344.77</ele>
        <time>2020-08-19T14:42:25Z</time>
      </trkpt>
      <trkpt lat="48.78243" lon="6.07754">
        <ele>350.06</ele>
        <time>2020-08-19T14:42:37Z</time>
      </trkpt>
      <trkpt lat="48.7824" lon="6.07762">
        <ele>350.06</ele>
        <time>2020-08-19T14:42:40Z</time>
      </trkpt>
      <trkpt lat="48.78229" lon="6.07806">
        <ele>348.62</ele>
        <time>2020-08-19T14:42:55Z</time>
      </trkpt>
      <trkpt lat="48.78226" lon="6.07831">
        <ele>347.17</ele>
        <time>2020-08-19T14:43:04Z</time>
      </trkpt>
      <trkpt lat="48.78224" lon="6.07838">
        <ele>345.25</ele>
        <time>2020-08-19T14:43:20Z</time>
      </trkpt>
      <trkpt lat="48.78219" lon="6.07876">
        <ele>351.98</ele>
        <time>2020-08-19T14:43:34Z</time>
      </trkpt>
      <trkpt lat="48.78216" lon="6.07894">
        <ele>352.46</ele>
        <time>2020-08-19T14:43:40Z</time>
      </trkpt>
      <trkpt lat="48.7821" lon="6.07906">
        <ele>351.02</ele>
        <time>2020-08-19T14:43:44Z</time>
      </trkpt>
      <trkpt lat="48.78207" lon="6.07937">
        <ele>350.54</ele>
        <time>2020-08-19T14:43:54Z</time>
      </trkpt>
      <trkpt lat="48.78207" lon="6.07943">
        <ele>351.5</ele>
        <time>2020-08-19T14:43:56Z</time>
      </trkpt>
      <trkpt lat="48.78202" lon="6.07954">
        <ele>353.42</ele>
        <time>2020-08-19T14:44:01Z</time>
      </trkpt>
      <trkpt lat="48.78201" lon="6.0797">
        <ele>354.86</ele>
        <time>2020-08-19T14:44:06Z</time>
      </trkpt>
      <trkpt lat="48.78196" lon="6.08016">
        <ele>356.79</ele>
        <time>2020-08-19T14:44:21Z</time>
      </trkpt>
      <trkpt lat="48.78189" lon="6.08052">
        <ele>357.75</ele>
        <time>2020-08-19T14:44:33Z</time>
      </trkpt>
      <trkpt lat="48.78192" lon="6.08066">
        <ele>359.67</ele>
        <time>2020-08-19T14:44:38Z</time>
      </trkpt>
      <trkpt lat="48.78193" lon="6.0807">
        <ele>360.15</ele>
        <time>2020-08-19T14:44:39Z</time>
      </trkpt>
      <trkpt lat="48.78194" lon="6.08073">
        <ele>360.15</ele>
        <time>2020-08-19T14:44:40Z</time>
      </trkpt>
      <trkpt lat="48.78194" lon="6.08076">
        <ele>360.63</ele>
        <time>2020-08-19T14:44:41Z</time>
      </trkpt>
      <trkpt lat="48.78205" lon="6.08101">
        <ele>364</ele>
        <time>2020-08-19T14:44:52Z</time>
      </trkpt>
      <trkpt lat="48.78206" lon="6.08103">
        <ele>364</ele>
        <time>2020-08-19T14:44:53Z</time>
      </trkpt>
      <trkpt lat="48.78205" lon="6.08106">
        <ele>364</ele>
        <time>2020-08-19T14:44:54Z</time>
      </trkpt>
      <trkpt lat="48.78205" lon="6.08108">
        <ele>364</ele>
        <time>2020-08-19T14:44:55Z</time>
      </trkpt>
      <trkpt lat="48.78204" lon="6.08111">
        <ele>364</ele>
        <time>2020-08-19T14:44:56Z</time>
      </trkpt>
      <trkpt lat="48.78204" lon="6.08113">
        <ele>364</ele>
        <time>2020-08-19T14:44:57Z</time>
      </trkpt>
      <trkpt lat="48.78203" lon="6.08116">
        <ele>364</ele>
        <time>2020-08-19T14:44:58Z</time>
      </trkpt>
      <trkpt lat="48.78203" lon="6.08119">
        <ele>363.52</ele>
        <time>2020-08-19T14:44:59Z</time>
      </trkpt>
      <trkpt lat="48.78199" lon="6.08162">
        <ele>360.63</ele>
        <time>2020-08-19T14:45:11Z</time>
      </trkpt>
      <trkpt lat="48.78195" lon="6.08192">
        <ele>361.59</ele>
        <time>2020-08-19T14:45:20Z</time>
      </trkpt>
      <trkpt lat="48.78196" lon="6.08196">
        <ele>361.59</ele>
        <time>2020-08-19T14:45:21Z</time>
      </trkpt>
      <trkpt lat="48.78197" lon="6.08199">
        <ele>362.07</ele>
        <time>2020-08-19T14:45:22Z</time>
      </trkpt>
      <trkpt lat="48.78197" lon="6.08202">
        <ele>362.07</ele>
        <time>2020-08-19T14:45:23Z</time>
      </trkpt>
      <trkpt lat="48.78198" lon="6.08205">
        <ele>363.04</ele>
        <time>2020-08-19T14:45:24Z</time>
      </trkpt>
      <trkpt lat="48.78198" lon="6.08208">
        <ele>363.04</ele>
        <time>2020-08-19T14:45:25Z</time>
      </trkpt>
      <trkpt lat="48.78198" lon="6.08212">
        <ele>364</ele>
        <time>2020-08-19T14:45:26Z</time>
      </trkpt>
      <trkpt lat="48.78198" lon="6.08215">
        <ele>364.48</ele>
        <time>2020-08-19T14:45:27Z</time>
      </trkpt>
      <trkpt lat="48.78199" lon="6.08218">
        <ele>364.96</ele>
        <time>2020-08-19T14:45:28Z</time>
      </trkpt>
      <trkpt lat="48.78199" lon="6.08221">
        <ele>365.44</ele>
        <time>2020-08-19T14:45:29Z</time>
      </trkpt>
      <trkpt lat="48.78207" lon="6.08257">
        <ele>371.21</ele>
        <time>2020-08-19T14:45:41Z</time>
      </trkpt>
      <trkpt lat="48.78222" lon="6.08283">
        <ele>373.61</ele>
        <time>2020-08-19T14:45:52Z</time>
      </trkpt>
      <trkpt lat="48.78235" lon="6.08295">
        <ele>374.57</ele>
        <time>2020-08-19T14:46:00Z</time>
      </trkpt>
      <trkpt lat="48.78237" lon="6.08295">
        <ele>374.57</ele>
        <time>2020-08-19T14:46:01Z</time>
      </trkpt>
      <trkpt lat="48.78239" lon="6.08296">
        <ele>374.57</ele>
        <time>2020-08-19T14:46:02Z</time>
      </trkpt>
      <trkpt lat="48.78241" lon="6.08296">
        <ele>374.57</ele>
        <time>2020-08-19T14:46:03Z</time>
      </trkpt>
      <trkpt lat="48.78244" lon="6.08296">
        <ele>374.09</ele>
        <time>2020-08-19T14:46:04Z</time>
      </trkpt>
      <trkpt lat="48.78246" lon="6.08296">
        <ele>373.61</ele>
        <time>2020-08-19T14:46:05Z</time>
      </trkpt>
      <trkpt lat="48.78248" lon="6.08296">
        <ele>373.13</ele>
        <time>2020-08-19T14:46:06Z</time>
      </trkpt>
      <trkpt lat="48.78275" lon="6.08289">
        <ele>374.09</ele>
        <time>2020-08-19T14:46:16Z</time>
      </trkpt>
      <trkpt lat="48.78315" lon="6.0828">
        <ele>371.21</ele>
        <time>2020-08-19T14:46:29Z</time>
      </trkpt>
      <trkpt lat="48.78347" lon="6.0827">
        <ele>370.73</ele>
        <time>2020-08-19T14:46:40Z</time>
      </trkpt>
      <trkpt lat="48.78393" lon="6.0826">
        <ele>368.32</ele>
        <time>2020-08-19T14:46:51Z</time>
      </trkpt>
      <trkpt lat="48.78395" lon="6.08263">
        <ele>368.32</ele>
        <time>2020-08-19T14:46:52Z</time>
      </trkpt>
      <trkpt lat="48.78398" lon="6.08269">
        <ele>367.84</ele>
        <time>2020-08-19T14:46:54Z</time>
      </trkpt>
      <trkpt lat="48.78398" lon="6.08274">
        <ele>367.36</ele>
        <time>2020-08-19T14:46:55Z</time>
      </trkpt>
      <trkpt lat="48.78397" lon="6.08277">
        <ele>366.4</ele>
        <time>2020-08-19T14:46:56Z</time>
      </trkpt>
      <trkpt lat="48.78396" lon="6.08281">
        <ele>365.92</ele>
        <time>2020-08-19T14:46:57Z</time>
      </trkpt>
      <trkpt lat="48.78382" lon="6.08332">
        <ele>358.23</ele>
        <time>2020-08-19T14:47:11Z</time>
      </trkpt>
      <trkpt lat="48.78367" lon="6.08393">
        <ele>359.19</ele>
        <time>2020-08-19T14:47:25Z</time>
      </trkpt>
      <trkpt lat="48.78349" lon="6.08449">
        <ele>357.27</ele>
        <time>2020-08-19T14:47:38Z</time>
      </trkpt>
      <trkpt lat="48.78326" lon="6.08498">
        <ele>354.38</ele>
        <time>2020-08-19T14:47:50Z</time>
      </trkpt>
      <trkpt lat="48.78288" lon="6.08555">
        <ele>352.94</ele>
        <time>2020-08-19T14:48:04Z</time>
      </trkpt>
      <trkpt lat="48.78252" lon="6.08613">
        <ele>353.9</ele>
        <time>2020-08-19T14:48:16Z</time>
      </trkpt>
      <trkpt lat="48.78209" lon="6.08688">
        <ele>353.9</ele>
        <time>2020-08-19T14:48:30Z</time>
      </trkpt>
      <trkpt lat="48.78187" lon="6.08747">
        <ele>353.9</ele>
        <time>2020-08-19T14:48:40Z</time>
      </trkpt>
      <trkpt lat="48.78185" lon="6.08753">
        <ele>353.9</ele>
        <time>2020-08-19T14:48:41Z</time>
      </trkpt>
      <trkpt lat="48.78183" lon="6.0876">
        <ele>353.42</ele>
        <time>2020-08-19T14:48:42Z</time>
      </trkpt>
      <trkpt lat="48.78165" lon="6.08826">
        <ele>351.98</ele>
        <time>2020-08-19T14:48:52Z</time>
      </trkpt>
      <trkpt lat="48.78163" lon="6.08832">
        <ele>352.46</ele>
        <time>2020-08-19T14:48:53Z</time>
      </trkpt>
      <trkpt lat="48.78159" lon="6.08836">
        <ele>352.46</ele>
        <time>2020-08-19T14:48:54Z</time>
      </trkpt>
      <trkpt lat="48.78155" lon="6.08839">
        <ele>352.46</ele>
        <time>2020-08-19T14:48:55Z</time>
      </trkpt>
      <trkpt lat="48.78151" lon="6.08839">
        <ele>352.94</ele>
        <time>2020-08-19T14:48:56Z</time>
      </trkpt>
      <trkpt lat="48.78147" lon="6.08837">
        <ele>352.94</ele>
        <time>2020-08-19T14:48:57Z</time>
      </trkpt>
      <trkpt lat="48.78142" lon="6.08835">
        <ele>352.94</ele>
        <time>2020-08-19T14:48:58Z</time>
      </trkpt>
      <trkpt lat="48.78139" lon="6.08832">
        <ele>353.42</ele>
        <time>2020-08-19T14:48:59Z</time>
      </trkpt>
      <trkpt lat="48.78122" lon="6.08818">
        <ele>353.9</ele>
        <time>2020-08-19T14:49:05Z</time>
      </trkpt>
      <trkpt lat="48.78121" lon="6.08818">
        <ele>353.9</ele>
        <time>2020-08-19T14:49:06Z</time>
      </trkpt>
      <trkpt lat="48.78125" lon="6.08821">
        <ele>353.9</ele>
        <time>2020-08-19T14:49:11Z</time>
      </trkpt>
      <trkpt lat="48.78127" lon="6.08822">
        <ele>353.9</ele>
        <time>2020-08-19T14:49:12Z</time>
      </trkpt>
      <trkpt lat="48.78129" lon="6.08824">
        <ele>353.9</ele>
        <time>2020-08-19T14:49:13Z</time>
      </trkpt>
      <trkpt lat="48.78132" lon="6.08825">
        <ele>353.9</ele>
        <time>2020-08-19T14:49:14Z</time>
      </trkpt>
      <trkpt lat="48.78134" lon="6.08827">
        <ele>353.9</ele>
        <time>2020-08-19T14:49:15Z</time>
      </trkpt>
      <trkpt lat="48.7815" lon="6.08843">
        <ele>354.38</ele>
        <time>2020-08-19T14:49:22Z</time>
      </trkpt>
      <trkpt lat="48.78153" lon="6.08844">
        <ele>354.38</ele>
        <time>2020-08-19T14:49:23Z</time>
      </trkpt>
      <trkpt lat="48.78156" lon="6.08842">
        <ele>354.86</ele>
        <time>2020-08-19T14:49:24Z</time>
      </trkpt>
      <trkpt lat="48.78158" lon="6.0884">
        <ele>354.86</ele>
        <time>2020-08-19T14:49:25Z</time>
      </trkpt>
      <trkpt lat="48.78159" lon="6.08838">
        <ele>354.86</ele>
        <time>2020-08-19T14:49:26Z</time>
      </trkpt>
      <trkpt lat="48.78161" lon="6.08836">
        <ele>354.86</ele>
        <time>2020-08-19T14:49:27Z</time>
      </trkpt>
      <trkpt lat="48.78163" lon="6.08835">
        <ele>354.38</ele>
        <time>2020-08-19T14:49:28Z</time>
      </trkpt>
      <trkpt lat="48.78164" lon="6.08834">
        <ele>354.38</ele>
        <time>2020-08-19T14:49:29Z</time>
      </trkpt>
      <trkpt lat="48.78164" lon="6.08832">
        <ele>353.9</ele>
        <time>2020-08-19T14:49:30Z</time>
      </trkpt>
      <trkpt lat="48.78163" lon="6.08831">
        <ele>353.9</ele>
        <time>2020-08-19T14:49:31Z</time>
      </trkpt>
      <trkpt lat="48.78162" lon="6.08832">
        <ele>354.38</ele>
        <time>2020-08-19T14:49:43Z</time>
      </trkpt>
      <trkpt lat="48.78161" lon="6.08833">
        <ele>354.38</ele>
        <time>2020-08-19T14:49:49Z</time>
      </trkpt>
      <trkpt lat="48.78161" lon="6.08834">
        <ele>354.38</ele>
        <time>2020-08-19T14:49:50Z</time>
      </trkpt>
      <trkpt lat="48.78152" lon="6.0884">
        <ele>353.9</ele>
        <time>2020-08-19T14:49:54Z</time>
      </trkpt>
      <trkpt lat="48.78149" lon="6.08839">
        <ele>353.9</ele>
        <time>2020-08-19T14:49:55Z</time>
      </trkpt>
      <trkpt lat="48.78145" lon="6.08837">
        <ele>353.9</ele>
        <time>2020-08-19T14:49:56Z</time>
      </trkpt>
      <trkpt lat="48.78143" lon="6.08835">
        <ele>354.38</ele>
        <time>2020-08-19T14:49:57Z</time>
      </trkpt>
      <trkpt lat="48.7814" lon="6.08833">
        <ele>354.38</ele>
        <time>2020-08-19T14:49:58Z</time>
      </trkpt>
      <trkpt lat="48.78136" lon="6.0883">
        <ele>354.38</ele>
        <time>2020-08-19T14:49:59Z</time>
      </trkpt>
      <trkpt lat="48.78091" lon="6.08793">
        <ele>355.83</ele>
        <time>2020-08-19T14:50:12Z</time>
      </trkpt>
      <trkpt lat="48.78087" lon="6.08791">
        <ele>355.83</ele>
        <time>2020-08-19T14:50:13Z</time>
      </trkpt>
      <trkpt lat="48.78083" lon="6.08788">
        <ele>355.83</ele>
        <time>2020-08-19T14:50:14Z</time>
      </trkpt>
      <trkpt lat="48.78028" lon="6.08745">
        <ele>355.34</ele>
        <time>2020-08-19T14:50:29Z</time>
      </trkpt>
      <trkpt lat="48.77983" lon="6.08713">
        <ele>355.34</ele>
        <time>2020-08-19T14:50:41Z</time>
      </trkpt>
      <trkpt lat="48.77947" lon="6.08686">
        <ele>355.34</ele>
        <time>2020-08-19T14:50:55Z</time>
      </trkpt>
      <trkpt lat="48.77935" lon="6.08679">
        <ele>355.83</ele>
        <time>2020-08-19T14:51:00Z</time>
      </trkpt>
      <trkpt lat="48.77935" lon="6.0868">
        <ele>355.83</ele>
        <time>2020-08-19T14:51:01Z</time>
      </trkpt>
      <trkpt lat="48.77934" lon="6.08682">
        <ele>356.31</ele>
        <time>2020-08-19T14:51:02Z</time>
      </trkpt>
      <trkpt lat="48.77934" lon="6.08684">
        <ele>356.79</ele>
        <time>2020-08-19T14:51:03Z</time>
      </trkpt>
      <trkpt lat="48.77934" lon="6.08687">
        <ele>357.27</ele>
        <time>2020-08-19T14:51:04Z</time>
      </trkpt>
      <trkpt lat="48.77919" lon="6.0873">
        <ele>358.71</ele>
        <time>2020-08-19T14:51:14Z</time>
      </trkpt>
      <trkpt lat="48.77897" lon="6.08784">
        <ele>358.71</ele>
        <time>2020-08-19T14:51:28Z</time>
      </trkpt>
      <trkpt lat="48.77897" lon="6.08787">
        <ele>358.71</ele>
        <time>2020-08-19T14:51:29Z</time>
      </trkpt>
      <trkpt lat="48.779" lon="6.08804">
        <ele>360.15</ele>
        <time>2020-08-19T14:51:33Z</time>
      </trkpt>
      <trkpt lat="48.77909" lon="6.08879">
        <ele>363.52</ele>
        <time>2020-08-19T14:51:49Z</time>
      </trkpt>
      <trkpt lat="48.77925" lon="6.08936">
        <ele>365.44</ele>
        <time>2020-08-19T14:52:03Z</time>
      </trkpt>
      <trkpt lat="48.77945" lon="6.08995">
        <ele>365.44</ele>
        <time>2020-08-19T14:52:17Z</time>
      </trkpt>
      <trkpt lat="48.77971" lon="6.0904">
        <ele>364.96</ele>
        <time>2020-08-19T14:52:30Z</time>
      </trkpt>
      <trkpt lat="48.78001" lon="6.09086">
        <ele>365.92</ele>
        <time>2020-08-19T14:52:43Z</time>
      </trkpt>
      <trkpt lat="48.78028" lon="6.09143">
        <ele>369.28</ele>
        <time>2020-08-19T14:52:57Z</time>
      </trkpt>
      <trkpt lat="48.78056" lon="6.09195">
        <ele>370.73</ele>
        <time>2020-08-19T14:53:10Z</time>
      </trkpt>
      <trkpt lat="48.78075" lon="6.09246">
        <ele>370.24</ele>
        <time>2020-08-19T14:53:21Z</time>
      </trkpt>
      <trkpt lat="48.78078" lon="6.09248">
        <ele>370.24</ele>
        <time>2020-08-19T14:53:22Z</time>
      </trkpt>
      <trkpt lat="48.78081" lon="6.09248">
        <ele>370.73</ele>
        <time>2020-08-19T14:53:23Z</time>
      </trkpt>
      <trkpt lat="48.78083" lon="6.09247">
        <ele>370.73</ele>
        <time>2020-08-19T14:53:24Z</time>
      </trkpt>
      <trkpt lat="48.78086" lon="6.09246">
        <ele>371.21</ele>
        <time>2020-08-19T14:53:25Z</time>
      </trkpt>
      <trkpt lat="48.7809" lon="6.09245">
        <ele>371.69</ele>
        <time>2020-08-19T14:53:26Z</time>
      </trkpt>
      <trkpt lat="48.78093" lon="6.09244">
        <ele>372.17</ele>
        <time>2020-08-19T14:53:27Z</time>
      </trkpt>
      <trkpt lat="48.78126" lon="6.09239">
        <ele>375.05</ele>
        <time>2020-08-19T14:53:39Z</time>
      </trkpt>
      <trkpt lat="48.78128" lon="6.09241">
        <ele>375.05</ele>
        <time>2020-08-19T14:53:40Z</time>
      </trkpt>
      <trkpt lat="48.78128" lon="6.09244">
        <ele>375.05</ele>
        <time>2020-08-19T14:53:41Z</time>
      </trkpt>
      <trkpt lat="48.78128" lon="6.09247">
        <ele>375.05</ele>
        <time>2020-08-19T14:53:42Z</time>
      </trkpt>
      <trkpt lat="48.78127" lon="6.0925">
        <ele>374.57</ele>
        <time>2020-08-19T14:53:43Z</time>
      </trkpt>
      <trkpt lat="48.78126" lon="6.09255">
        <ele>374.57</ele>
        <time>2020-08-19T14:53:44Z</time>
      </trkpt>
      <trkpt lat="48.78126" lon="6.09259">
        <ele>374.09</ele>
        <time>2020-08-19T14:53:45Z</time>
      </trkpt>
      <trkpt lat="48.78125" lon="6.09264">
        <ele>373.61</ele>
        <time>2020-08-19T14:53:46Z</time>
      </trkpt>
      <trkpt lat="48.78108" lon="6.09322">
        <ele>373.61</ele>
        <time>2020-08-19T14:53:59Z</time>
      </trkpt>
      <trkpt lat="48.78088" lon="6.09384">
        <ele>372.65</ele>
        <time>2020-08-19T14:54:12Z</time>
      </trkpt>
      <trkpt lat="48.78071" lon="6.09435">
        <ele>372.17</ele>
        <time>2020-08-19T14:54:21Z</time>
      </trkpt>
      <trkpt lat="48.78066" lon="6.09447">
        <ele>372.17</ele>
        <time>2020-08-19T14:54:23Z</time>
      </trkpt>
      <trkpt lat="48.78065" lon="6.09454">
        <ele>372.17</ele>
        <time>2020-08-19T14:54:24Z</time>
      </trkpt>
      <trkpt lat="48.78063" lon="6.0946">
        <ele>372.17</ele>
        <time>2020-08-19T14:54:25Z</time>
      </trkpt>
      <trkpt lat="48.78029" lon="6.09557">
        <ele>365.92</ele>
        <time>2020-08-19T14:54:39Z</time>
      </trkpt>
      <trkpt lat="48.78023" lon="6.09577">
        <ele>364.48</ele>
        <time>2020-08-19T14:54:42Z</time>
      </trkpt>
      <trkpt lat="48.78018" lon="6.09595">
        <ele>363.52</ele>
        <time>2020-08-19T14:54:45Z</time>
      </trkpt>
      <trkpt lat="48.78016" lon="6.096">
        <ele>363.52</ele>
        <time>2020-08-19T14:54:46Z</time>
      </trkpt>
      <trkpt lat="48.78011" lon="6.09612">
        <ele>363.04</ele>
        <time>2020-08-19T14:54:48Z</time>
      </trkpt>
      <trkpt lat="48.77995" lon="6.09659">
        <ele>361.59</ele>
        <time>2020-08-19T14:54:56Z</time>
      </trkpt>
      <trkpt lat="48.77993" lon="6.09665">
        <ele>361.59</ele>
        <time>2020-08-19T14:54:57Z</time>
      </trkpt>
      <trkpt lat="48.77982" lon="6.09697">
        <ele>360.15</ele>
        <time>2020-08-19T14:55:02Z</time>
      </trkpt>
      <trkpt lat="48.77981" lon="6.09704">
        <ele>359.67</ele>
        <time>2020-08-19T14:55:03Z</time>
      </trkpt>
      <trkpt lat="48.77979" lon="6.09711">
        <ele>359.19</ele>
        <time>2020-08-19T14:55:04Z</time>
      </trkpt>
      <trkpt lat="48.77977" lon="6.09717">
        <ele>359.19</ele>
        <time>2020-08-19T14:55:05Z</time>
      </trkpt>
      <trkpt lat="48.77976" lon="6.09724">
        <ele>358.71</ele>
        <time>2020-08-19T14:55:06Z</time>
      </trkpt>
      <trkpt lat="48.77977" lon="6.09731">
        <ele>358.23</ele>
        <time>2020-08-19T14:55:07Z</time>
      </trkpt>
      <trkpt lat="48.7798" lon="6.09737">
        <ele>358.23</ele>
        <time>2020-08-19T14:55:08Z</time>
      </trkpt>
      <trkpt lat="48.77982" lon="6.09742">
        <ele>358.23</ele>
        <time>2020-08-19T14:55:09Z</time>
      </trkpt>
      <trkpt lat="48.77986" lon="6.09747">
        <ele>358.23</ele>
        <time>2020-08-19T14:55:10Z</time>
      </trkpt>
      <trkpt lat="48.77997" lon="6.09771">
        <ele>357.75</ele>
        <time>2020-08-19T14:55:14Z</time>
      </trkpt>
      <trkpt lat="48.78003" lon="6.09783">
        <ele>357.75</ele>
        <time>2020-08-19T14:55:16Z</time>
      </trkpt>
      <trkpt lat="48.78047" lon="6.09841">
        <ele>358.23</ele>
        <time>2020-08-19T14:55:29Z</time>
      </trkpt>
      <trkpt lat="48.78053" lon="6.09844">
        <ele>358.71</ele>
        <time>2020-08-19T14:55:30Z</time>
      </trkpt>
      <trkpt lat="48.78058" lon="6.09845">
        <ele>359.19</ele>
        <time>2020-08-19T14:55:31Z</time>
      </trkpt>
      <trkpt lat="48.78073" lon="6.09849">
        <ele>359.19</ele>
        <time>2020-08-19T14:55:34Z</time>
      </trkpt>
      <trkpt lat="48.78102" lon="6.09866">
        <ele>363.52</ele>
        <time>2020-08-19T14:55:42Z</time>
      </trkpt>
      <trkpt lat="48.78104" lon="6.09869">
        <ele>364</ele>
        <time>2020-08-19T14:55:43Z</time>
      </trkpt>
      <trkpt lat="48.78105" lon="6.09872">
        <ele>364.48</ele>
        <time>2020-08-19T14:55:44Z</time>
      </trkpt>
      <trkpt lat="48.78106" lon="6.09873">
        <ele>364.96</ele>
        <time>2020-08-19T14:55:45Z</time>
      </trkpt>
      <trkpt lat="48.78109" lon="6.09881">
        <ele>367.36</ele>
        <time>2020-08-19T14:55:56Z</time>
      </trkpt>
      <trkpt lat="48.78109" lon="6.09884">
        <ele>367.36</ele>
        <time>2020-08-19T14:55:57Z</time>
      </trkpt>
      <trkpt lat="48.78109" lon="6.0989">
        <ele>367.36</ele>
        <time>2020-08-19T14:55:58Z</time>
      </trkpt>
      <trkpt lat="48.78109" lon="6.09896">
        <ele>366.88</ele>
        <time>2020-08-19T14:55:59Z</time>
      </trkpt>
      <trkpt lat="48.78109" lon="6.09903">
        <ele>366.4</ele>
        <time>2020-08-19T14:56:00Z</time>
      </trkpt>
      <trkpt lat="48.7811" lon="6.09919">
        <ele>365.92</ele>
        <time>2020-08-19T14:56:02Z</time>
      </trkpt>
      <trkpt lat="48.78111" lon="6.09949">
        <ele>363.52</ele>
        <time>2020-08-19T14:56:06Z</time>
      </trkpt>
      <trkpt lat="48.78111" lon="6.09956">
        <ele>363.04</ele>
        <time>2020-08-19T14:56:07Z</time>
      </trkpt>
      <trkpt lat="48.78111" lon="6.09973">
        <ele>360.63</ele>
        <time>2020-08-19T14:56:09Z</time>
      </trkpt>
      <trkpt lat="48.78114" lon="6.10007">
        <ele>356.79</ele>
        <time>2020-08-19T14:56:13Z</time>
      </trkpt>
      <trkpt lat="48.78115" lon="6.10017">
        <ele>355.83</ele>
        <time>2020-08-19T14:56:14Z</time>
      </trkpt>
      <trkpt lat="48.7812" lon="6.10044">
        <ele>352.46</ele>
        <time>2020-08-19T14:56:17Z</time>
      </trkpt>
      <trkpt lat="48.78122" lon="6.10053">
        <ele>351.5</ele>
        <time>2020-08-19T14:56:18Z</time>
      </trkpt>
      <trkpt lat="48.78126" lon="6.10081">
        <ele>348.62</ele>
        <time>2020-08-19T14:56:21Z</time>
      </trkpt>
      <trkpt lat="48.78127" lon="6.1009">
        <ele>348.13</ele>
        <time>2020-08-19T14:56:22Z</time>
      </trkpt>
      <trkpt lat="48.78127" lon="6.10098">
        <ele>347.17</ele>
        <time>2020-08-19T14:56:23Z</time>
      </trkpt>
      <trkpt lat="48.78126" lon="6.10107">
        <ele>346.21</ele>
        <time>2020-08-19T14:56:24Z</time>
      </trkpt>
      <trkpt lat="48.78125" lon="6.10115">
        <ele>345.73</ele>
        <time>2020-08-19T14:56:25Z</time>
      </trkpt>
      <trkpt lat="48.78125" lon="6.10125">
        <ele>344.77</ele>
        <time>2020-08-19T14:56:26Z</time>
      </trkpt>
      <trkpt lat="48.78124" lon="6.10134">
        <ele>343.81</ele>
        <time>2020-08-19T14:56:27Z</time>
      </trkpt>
      <trkpt lat="48.78121" lon="6.10165">
        <ele>340.92</ele>
        <time>2020-08-19T14:56:30Z</time>
      </trkpt>
      <trkpt lat="48.7811" lon="6.10249">
        <ele>332.75</ele>
        <time>2020-08-19T14:56:39Z</time>
      </trkpt>
      <trkpt lat="48.781" lon="6.10303">
        <ele>326.99</ele>
        <time>2020-08-19T14:56:49Z</time>
      </trkpt>
      <trkpt lat="48.78094" lon="6.10319">
        <ele>326.02</ele>
        <time>2020-08-19T14:57:03Z</time>
      </trkpt>
      <trkpt lat="48.78079" lon="6.10363">
        <ele>320.74</ele>
        <time>2020-08-19T14:57:11Z</time>
      </trkpt>
      <trkpt lat="48.78073" lon="6.10389">
        <ele>317.37</ele>
        <time>2020-08-19T14:57:15Z</time>
      </trkpt>
      <trkpt lat="48.78062" lon="6.10426">
        <ele>313.05</ele>
        <time>2020-08-19T14:57:20Z</time>
      </trkpt>
      <trkpt lat="48.78032" lon="6.10516">
        <ele>302.47</ele>
        <time>2020-08-19T14:57:30Z</time>
      </trkpt>
      <trkpt lat="48.78002" lon="6.10596">
        <ele>293.34</ele>
        <time>2020-08-19T14:57:38Z</time>
      </trkpt>
      <trkpt lat="48.77996" lon="6.10615">
        <ele>290.94</ele>
        <time>2020-08-19T14:57:40Z</time>
      </trkpt>
      <trkpt lat="48.77987" lon="6.10646">
        <ele>288.05</ele>
        <time>2020-08-19T14:57:43Z</time>
      </trkpt>
      <trkpt lat="48.77964" lon="6.10709">
        <ele>283.73</ele>
        <time>2020-08-19T14:57:52Z</time>
      </trkpt>
      <trkpt lat="48.77963" lon="6.10712">
        <ele>284.69</ele>
        <time>2020-08-19T14:57:55Z</time>
      </trkpt>
      <trkpt lat="48.77961" lon="6.1071">
        <ele>288.05</ele>
        <time>2020-08-19T14:58:05Z</time>
      </trkpt>
      <trkpt lat="48.77962" lon="6.10706">
        <ele>289.97</ele>
        <time>2020-08-19T14:58:09Z</time>
      </trkpt>
      <trkpt lat="48.7797" lon="6.10681">
        <ele>295.74</ele>
        <time>2020-08-19T14:58:22Z</time>
      </trkpt>
      <trkpt lat="48.77973" lon="6.10677">
        <ele>297.18</ele>
        <time>2020-08-19T14:58:35Z</time>
      </trkpt>
      <trkpt lat="48.7797" lon="6.10676">
        <ele>304.39</ele>
        <time>2020-08-19T14:59:04Z</time>
      </trkpt>
      <trkpt lat="48.77969" lon="6.10678">
        <ele>304.39</ele>
        <time>2020-08-19T14:59:05Z</time>
      </trkpt>
      <trkpt lat="48.77968" lon="6.10679">
        <ele>304.88</ele>
        <time>2020-08-19T14:59:06Z</time>
      </trkpt>
      <trkpt lat="48.77967" lon="6.10681">
        <ele>304.88</ele>
        <time>2020-08-19T14:59:07Z</time>
      </trkpt>
      <trkpt lat="48.77966" lon="6.10683">
        <ele>305.36</ele>
        <time>2020-08-19T14:59:08Z</time>
      </trkpt>
      <trkpt lat="48.77966" lon="6.10685">
        <ele>305.84</ele>
        <time>2020-08-19T14:59:09Z</time>
      </trkpt>
      <trkpt lat="48.77965" lon="6.10691">
        <ele>306.32</ele>
        <time>2020-08-19T14:59:12Z</time>
      </trkpt>
      <trkpt lat="48.77964" lon="6.10693">
        <ele>305.84</ele>
        <time>2020-08-19T14:59:13Z</time>
      </trkpt>
      <trkpt lat="48.77959" lon="6.10709">
        <ele>303.43</ele>
        <time>2020-08-19T14:59:25Z</time>
      </trkpt>
      <trkpt lat="48.77958" lon="6.10714">
        <ele>302.47</ele>
        <time>2020-08-19T14:59:51Z</time>
      </trkpt>
      <trkpt lat="48.77954" lon="6.10745">
        <ele>301.99</ele>
        <time>2020-08-19T15:00:02Z</time>
      </trkpt>
      <trkpt lat="48.77954" lon="6.10748">
        <ele>301.99</ele>
        <time>2020-08-19T15:00:03Z</time>
      </trkpt>
      <trkpt lat="48.77954" lon="6.10753">
        <ele>301.51</ele>
        <time>2020-08-19T15:00:04Z</time>
      </trkpt>
      <trkpt lat="48.77956" lon="6.10757">
        <ele>301.51</ele>
        <time>2020-08-19T15:00:05Z</time>
      </trkpt>
      <trkpt lat="48.77957" lon="6.10759">
        <ele>301.51</ele>
        <time>2020-08-19T15:00:06Z</time>
      </trkpt>
      <trkpt lat="48.77959" lon="6.10762">
        <ele>301.51</ele>
        <time>2020-08-19T15:00:07Z</time>
      </trkpt>
      <trkpt lat="48.7796" lon="6.10763">
        <ele>301.03</ele>
        <time>2020-08-19T15:00:08Z</time>
      </trkpt>
      <trkpt lat="48.77961" lon="6.10763">
        <ele>301.03</ele>
        <time>2020-08-19T15:00:09Z</time>
      </trkpt>
      <trkpt lat="48.77963" lon="6.10763">
        <ele>301.51</ele>
        <time>2020-08-19T15:00:10Z</time>
      </trkpt>
      <trkpt lat="48.77964" lon="6.10763">
        <ele>301.99</ele>
        <time>2020-08-19T15:00:11Z</time>
      </trkpt>
      <trkpt lat="48.77966" lon="6.10764">
        <ele>301.99</ele>
        <time>2020-08-19T15:00:12Z</time>
      </trkpt>
      <trkpt lat="48.77967" lon="6.10765">
        <ele>302.47</ele>
        <time>2020-08-19T15:00:13Z</time>
      </trkpt>
      <trkpt lat="48.77969" lon="6.10765">
        <ele>302.95</ele>
        <time>2020-08-19T15:00:14Z</time>
      </trkpt>
      <trkpt lat="48.7797" lon="6.10766">
        <ele>303.43</ele>
        <time>2020-08-19T15:00:15Z</time>
      </trkpt>
      <trkpt lat="48.77972" lon="6.10766">
        <ele>304.39</ele>
        <time>2020-08-19T15:00:16Z</time>
      </trkpt>
      <trkpt lat="48.77973" lon="6.10766">
        <ele>304.88</ele>
        <time>2020-08-19T15:00:17Z</time>
      </trkpt>
      <trkpt lat="48.77975" lon="6.10767">
        <ele>305.36</ele>
        <time>2020-08-19T15:00:18Z</time>
      </trkpt>
      <trkpt lat="48.77976" lon="6.10768">
        <ele>305.84</ele>
        <time>2020-08-19T15:00:19Z</time>
      </trkpt>
      <trkpt lat="48.77987" lon="6.10775">
        <ele>308.72</ele>
        <time>2020-08-19T15:00:32Z</time>
      </trkpt>
      <trkpt lat="48.77999" lon="6.10782">
        <ele>309.2</ele>
        <time>2020-08-19T15:00:48Z</time>
      </trkpt>
      <trkpt lat="48.7801" lon="6.10791">
        <ele>308.72</ele>
        <time>2020-08-19T15:01:03Z</time>
      </trkpt>
      <trkpt lat="48.78015" lon="6.10797">
        <ele>308.24</ele>
        <time>2020-08-19T15:01:14Z</time>
      </trkpt>
      <trkpt lat="48.78016" lon="6.108">
        <ele>308.24</ele>
        <time>2020-08-19T15:01:15Z</time>
      </trkpt>
      <trkpt lat="48.78017" lon="6.10801">
        <ele>308.24</ele>
        <time>2020-08-19T15:01:16Z</time>
      </trkpt>
      <trkpt lat="48.78018" lon="6.10803">
        <ele>308.24</ele>
        <time>2020-08-19T15:01:17Z</time>
      </trkpt>
      <trkpt lat="48.78019" lon="6.10806">
        <ele>308.24</ele>
        <time>2020-08-19T15:01:18Z</time>
      </trkpt>
      <trkpt lat="48.7803" lon="6.10845">
        <ele>306.8</ele>
        <time>2020-08-19T15:01:30Z</time>
      </trkpt>
      <trkpt lat="48.78051" lon="6.10902">
        <ele>305.84</ele>
        <time>2020-08-19T15:01:46Z</time>
      </trkpt>
      <trkpt lat="48.78066" lon="6.10955">
        <ele>305.36</ele>
        <time>2020-08-19T15:01:59Z</time>
      </trkpt>
      <trkpt lat="48.78071" lon="6.11">
        <ele>303.43</ele>
        <time>2020-08-19T15:02:06Z</time>
      </trkpt>
      <trkpt lat="48.78072" lon="6.11008">
        <ele>302.95</ele>
        <time>2020-08-19T15:02:07Z</time>
      </trkpt>
      <trkpt lat="48.78072" lon="6.11017">
        <ele>302.47</ele>
        <time>2020-08-19T15:02:08Z</time>
      </trkpt>
      <trkpt lat="48.78076" lon="6.11094">
        <ele>298.63</ele>
        <time>2020-08-19T15:02:18Z</time>
      </trkpt>
      <trkpt lat="48.7807" lon="6.11137">
        <ele>297.18</ele>
        <time>2020-08-19T15:02:23Z</time>
      </trkpt>
      <trkpt lat="48.78069" lon="6.11158">
        <ele>296.22</ele>
        <time>2020-08-19T15:02:26Z</time>
      </trkpt>
      <trkpt lat="48.78069" lon="6.11166">
        <ele>296.22</ele>
        <time>2020-08-19T15:02:27Z</time>
      </trkpt>
      <trkpt lat="48.78069" lon="6.11172">
        <ele>295.74</ele>
        <time>2020-08-19T15:02:28Z</time>
      </trkpt>
      <trkpt lat="48.78069" lon="6.11177">
        <ele>295.74</ele>
        <time>2020-08-19T15:02:29Z</time>
      </trkpt>
      <trkpt lat="48.78069" lon="6.11182">
        <ele>295.26</ele>
        <time>2020-08-19T15:02:30Z</time>
      </trkpt>
      <trkpt lat="48.78069" lon="6.11186">
        <ele>295.26</ele>
        <time>2020-08-19T15:02:31Z</time>
      </trkpt>
      <trkpt lat="48.78067" lon="6.11241">
        <ele>299.11</ele>
        <time>2020-08-19T15:02:44Z</time>
      </trkpt>
      <trkpt lat="48.78062" lon="6.11294">
        <ele>307.28</ele>
        <time>2020-08-19T15:02:57Z</time>
      </trkpt>
      <trkpt lat="48.78053" lon="6.1136">
        <ele>311.6</ele>
        <time>2020-08-19T15:03:10Z</time>
      </trkpt>
      <trkpt lat="48.7804" lon="6.11442">
        <ele>309.68</ele>
        <time>2020-08-19T15:03:26Z</time>
      </trkpt>
      <trkpt lat="48.78045" lon="6.1151">
        <ele>307.76</ele>
        <time>2020-08-19T15:03:40Z</time>
      </trkpt>
      <trkpt lat="48.78058" lon="6.11559">
        <ele>311.6</ele>
        <time>2020-08-19T15:03:55Z</time>
      </trkpt>
      <trkpt lat="48.78063" lon="6.11606">
        <ele>314.97</ele>
        <time>2020-08-19T15:04:10Z</time>
      </trkpt>
      <trkpt lat="48.78065" lon="6.1165">
        <ele>316.41</ele>
        <time>2020-08-19T15:04:23Z</time>
      </trkpt>
      <trkpt lat="48.78059" lon="6.11701">
        <ele>317.85</ele>
        <time>2020-08-19T15:04:35Z</time>
      </trkpt>
      <trkpt lat="48.78044" lon="6.11788">
        <ele>317.37</ele>
        <time>2020-08-19T15:04:51Z</time>
      </trkpt>
      <trkpt lat="48.78041" lon="6.11803">
        <ele>317.85</ele>
        <time>2020-08-19T15:04:54Z</time>
      </trkpt>
      <trkpt lat="48.78039" lon="6.11808">
        <ele>318.33</ele>
        <time>2020-08-19T15:04:55Z</time>
      </trkpt>
      <trkpt lat="48.78038" lon="6.11813">
        <ele>318.33</ele>
        <time>2020-08-19T15:04:56Z</time>
      </trkpt>
      <trkpt lat="48.78037" lon="6.11817">
        <ele>318.81</ele>
        <time>2020-08-19T15:04:57Z</time>
      </trkpt>
      <trkpt lat="48.78036" lon="6.11821">
        <ele>318.81</ele>
        <time>2020-08-19T15:04:58Z</time>
      </trkpt>
      <trkpt lat="48.78021" lon="6.11874">
        <ele>324.58</ele>
        <time>2020-08-19T15:05:09Z</time>
      </trkpt>
      <trkpt lat="48.78016" lon="6.11888">
        <ele>325.54</ele>
        <time>2020-08-19T15:05:12Z</time>
      </trkpt>
      <trkpt lat="48.78014" lon="6.11894">
        <ele>325.54</ele>
        <time>2020-08-19T15:05:13Z</time>
      </trkpt>
      <trkpt lat="48.78007" lon="6.11914">
        <ele>326.02</ele>
        <time>2020-08-19T15:05:16Z</time>
      </trkpt>
      <trkpt lat="48.78004" lon="6.11931">
        <ele>327.47</ele>
        <time>2020-08-19T15:05:19Z</time>
      </trkpt>
      <trkpt lat="48.77993" lon="6.12016">
        <ele>330.35</ele>
        <time>2020-08-19T15:05:32Z</time>
      </trkpt>
      <trkpt lat="48.77999" lon="6.12082">
        <ele>329.87</ele>
        <time>2020-08-19T15:05:43Z</time>
      </trkpt>
      <trkpt lat="48.78009" lon="6.12113">
        <ele>329.39</ele>
        <time>2020-08-19T15:05:50Z</time>
      </trkpt>
      <trkpt lat="48.78012" lon="6.12114">
        <ele>329.87</ele>
        <time>2020-08-19T15:05:51Z</time>
      </trkpt>
      <trkpt lat="48.78033" lon="6.12122">
        <ele>330.83</ele>
        <time>2020-08-19T15:06:01Z</time>
      </trkpt>
      <trkpt lat="48.78059" lon="6.12131">
        <ele>335.16</ele>
        <time>2020-08-19T15:06:15Z</time>
      </trkpt>
      <trkpt lat="48.7806" lon="6.12131">
        <ele>335.16</ele>
        <time>2020-08-19T15:06:16Z</time>
      </trkpt>
      <trkpt lat="48.78062" lon="6.12131">
        <ele>335.64</ele>
        <time>2020-08-19T15:06:17Z</time>
      </trkpt>
      <trkpt lat="48.78064" lon="6.12132">
        <ele>336.12</ele>
        <time>2020-08-19T15:06:18Z</time>
      </trkpt>
      <trkpt lat="48.78088" lon="6.12139">
        <ele>340.44</ele>
        <time>2020-08-19T15:06:31Z</time>
      </trkpt>
      <trkpt lat="48.78119" lon="6.12147">
        <ele>342.37</ele>
        <time>2020-08-19T15:06:45Z</time>
      </trkpt>
      <trkpt lat="48.78148" lon="6.12153">
        <ele>344.77</ele>
        <time>2020-08-19T15:06:58Z</time>
      </trkpt>
      <trkpt lat="48.78176" lon="6.12159">
        <ele>350.06</ele>
        <time>2020-08-19T15:07:10Z</time>
      </trkpt>
      <trkpt lat="48.7822" lon="6.12164">
        <ele>352.46</ele>
        <time>2020-08-19T15:07:25Z</time>
      </trkpt>
      <trkpt lat="48.78261" lon="6.12171">
        <ele>351.98</ele>
        <time>2020-08-19T15:07:37Z</time>
      </trkpt>
      <trkpt lat="48.78272" lon="6.12195">
        <ele>350.54</ele>
        <time>2020-08-19T15:07:43Z</time>
      </trkpt>
      <trkpt lat="48.78277" lon="6.12218">
        <ele>349.58</ele>
        <time>2020-08-19T15:07:46Z</time>
      </trkpt>
      <trkpt lat="48.78278" lon="6.12227">
        <ele>348.62</ele>
        <time>2020-08-19T15:07:47Z</time>
      </trkpt>
      <trkpt lat="48.78282" lon="6.1229">
        <ele>344.29</ele>
        <time>2020-08-19T15:07:53Z</time>
      </trkpt>
      <trkpt lat="48.78282" lon="6.12301">
        <ele>343.81</ele>
        <time>2020-08-19T15:07:54Z</time>
      </trkpt>
      <trkpt lat="48.78281" lon="6.12311">
        <ele>342.85</ele>
        <time>2020-08-19T15:07:55Z</time>
      </trkpt>
      <trkpt lat="48.78281" lon="6.12322">
        <ele>342.37</ele>
        <time>2020-08-19T15:07:56Z</time>
      </trkpt>
      <trkpt lat="48.78281" lon="6.12332">
        <ele>341.89</ele>
        <time>2020-08-19T15:07:57Z</time>
      </trkpt>
      <trkpt lat="48.7828" lon="6.12343">
        <ele>340.92</ele>
        <time>2020-08-19T15:07:58Z</time>
      </trkpt>
      <trkpt lat="48.78281" lon="6.12355">
        <ele>339.96</ele>
        <time>2020-08-19T15:07:59Z</time>
      </trkpt>
      <trkpt lat="48.78281" lon="6.12367">
        <ele>339</ele>
        <time>2020-08-19T15:08:00Z</time>
      </trkpt>
      <trkpt lat="48.78281" lon="6.12378">
        <ele>338.04</ele>
        <time>2020-08-19T15:08:01Z</time>
      </trkpt>
      <trkpt lat="48.78284" lon="6.12485">
        <ele>327.95</ele>
        <time>2020-08-19T15:08:12Z</time>
      </trkpt>
      <trkpt lat="48.78284" lon="6.12494">
        <ele>326.5</ele>
        <time>2020-08-19T15:08:13Z</time>
      </trkpt>
      <trkpt lat="48.78283" lon="6.12502">
        <ele>325.06</ele>
        <time>2020-08-19T15:08:14Z</time>
      </trkpt>
      <trkpt lat="48.78278" lon="6.12544">
        <ele>314.01</ele>
        <time>2020-08-19T15:08:20Z</time>
      </trkpt>
      <trkpt lat="48.78277" lon="6.12553">
        <ele>312.09</ele>
        <time>2020-08-19T15:08:21Z</time>
      </trkpt>
      <trkpt lat="48.78275" lon="6.12562">
        <ele>309.68</ele>
        <time>2020-08-19T15:08:22Z</time>
      </trkpt>
      <trkpt lat="48.78273" lon="6.12572">
        <ele>307.76</ele>
        <time>2020-08-19T15:08:23Z</time>
      </trkpt>
      <trkpt lat="48.7827" lon="6.12581">
        <ele>305.84</ele>
        <time>2020-08-19T15:08:24Z</time>
      </trkpt>
      <trkpt lat="48.78254" lon="6.1263">
        <ele>296.7</ele>
        <time>2020-08-19T15:08:30Z</time>
      </trkpt>
      <trkpt lat="48.78251" lon="6.12637">
        <ele>295.26</ele>
        <time>2020-08-19T15:08:31Z</time>
      </trkpt>
      <trkpt lat="48.78249" lon="6.12644">
        <ele>293.82</ele>
        <time>2020-08-19T15:08:32Z</time>
      </trkpt>
      <trkpt lat="48.78246" lon="6.12651">
        <ele>292.86</ele>
        <time>2020-08-19T15:08:33Z</time>
      </trkpt>
      <trkpt lat="48.78243" lon="6.12657">
        <ele>291.9</ele>
        <time>2020-08-19T15:08:34Z</time>
      </trkpt>
      <trkpt lat="48.78239" lon="6.12663">
        <ele>290.94</ele>
        <time>2020-08-19T15:08:35Z</time>
      </trkpt>
      <trkpt lat="48.78236" lon="6.1267">
        <ele>289.97</ele>
        <time>2020-08-19T15:08:36Z</time>
      </trkpt>
      <trkpt lat="48.78233" lon="6.12676">
        <ele>289.49</ele>
        <time>2020-08-19T15:08:37Z</time>
      </trkpt>
      <trkpt lat="48.78225" lon="6.12688">
        <ele>287.09</ele>
        <time>2020-08-19T15:08:39Z</time>
      </trkpt>
      <trkpt lat="48.78209" lon="6.12719">
        <ele>284.69</ele>
        <time>2020-08-19T15:08:44Z</time>
      </trkpt>
      <trkpt lat="48.78182" lon="6.12766">
        <ele>279.4</ele>
        <time>2020-08-19T15:08:51Z</time>
      </trkpt>
      <trkpt lat="48.78179" lon="6.12775">
        <ele>277.96</ele>
        <time>2020-08-19T15:08:52Z</time>
      </trkpt>
      <trkpt lat="48.78173" lon="6.12795">
        <ele>275.56</ele>
        <time>2020-08-19T15:08:54Z</time>
      </trkpt>
      <trkpt lat="48.78164" lon="6.12826">
        <ele>271.71</ele>
        <time>2020-08-19T15:08:57Z</time>
      </trkpt>
      <trkpt lat="48.78151" lon="6.12872">
        <ele>263.54</ele>
        <time>2020-08-19T15:09:05Z</time>
      </trkpt>
      <trkpt lat="48.78144" lon="6.12893">
        <ele>257.29</ele>
        <time>2020-08-19T15:09:23Z</time>
      </trkpt>
      <trkpt lat="48.78124" lon="6.12976">
        <ele>244.31</ele>
        <time>2020-08-19T15:09:33Z</time>
      </trkpt>
      <trkpt lat="48.78123" lon="6.12982">
        <ele>242.87</ele>
        <time>2020-08-19T15:09:34Z</time>
      </trkpt>
      <trkpt lat="48.78121" lon="6.12989">
        <ele>241.43</ele>
        <time>2020-08-19T15:09:35Z</time>
      </trkpt>
      <trkpt lat="48.7812" lon="6.12995">
        <ele>240.47</ele>
        <time>2020-08-19T15:09:36Z</time>
      </trkpt>
      <trkpt lat="48.78119" lon="6.13003">
        <ele>239.02</ele>
        <time>2020-08-19T15:09:37Z</time>
      </trkpt>
      <trkpt lat="48.78119" lon="6.13012">
        <ele>237.58</ele>
        <time>2020-08-19T15:09:38Z</time>
      </trkpt>
      <trkpt lat="48.7812" lon="6.1302">
        <ele>236.62</ele>
        <time>2020-08-19T15:09:39Z</time>
      </trkpt>
      <trkpt lat="48.78119" lon="6.1303">
        <ele>234.7</ele>
        <time>2020-08-19T15:09:40Z</time>
      </trkpt>
      <trkpt lat="48.78119" lon="6.13038">
        <ele>233.26</ele>
        <time>2020-08-19T15:09:41Z</time>
      </trkpt>
      <trkpt lat="48.78119" lon="6.13044">
        <ele>232.3</ele>
        <time>2020-08-19T15:09:42Z</time>
      </trkpt>
      <trkpt lat="48.7812" lon="6.13049">
        <ele>230.85</ele>
        <time>2020-08-19T15:09:43Z</time>
      </trkpt>
      <trkpt lat="48.78121" lon="6.13053">
        <ele>229.89</ele>
        <time>2020-08-19T15:09:44Z</time>
      </trkpt>
      <trkpt lat="48.78123" lon="6.13055">
        <ele>229.41</ele>
        <time>2020-08-19T15:09:45Z</time>
      </trkpt>
      <trkpt lat="48.78125" lon="6.13058">
        <ele>228.93</ele>
        <time>2020-08-19T15:09:46Z</time>
      </trkpt>
      <trkpt lat="48.78128" lon="6.13059">
        <ele>227.97</ele>
        <time>2020-08-19T15:09:47Z</time>
      </trkpt>
      <trkpt lat="48.78131" lon="6.13059">
        <ele>227.49</ele>
        <time>2020-08-19T15:09:48Z</time>
      </trkpt>
      <trkpt lat="48.78134" lon="6.13057">
        <ele>227.49</ele>
        <time>2020-08-19T15:09:49Z</time>
      </trkpt>
      <trkpt lat="48.78177" lon="6.13028">
        <ele>225.57</ele>
        <time>2020-08-19T15:10:03Z</time>
      </trkpt>
      <trkpt lat="48.7819" lon="6.13019">
        <ele>224.61</ele>
        <time>2020-08-19T15:10:09Z</time>
      </trkpt>
      <trkpt lat="48.78191" lon="6.1302">
        <ele>224.61</ele>
        <time>2020-08-19T15:10:10Z</time>
      </trkpt>
      <trkpt lat="48.78192" lon="6.13021">
        <ele>224.61</ele>
        <time>2020-08-19T15:10:11Z</time>
      </trkpt>
      <trkpt lat="48.78192" lon="6.13024">
        <ele>223.64</ele>
        <time>2020-08-19T15:10:26Z</time>
      </trkpt>
      <trkpt lat="48.78194" lon="6.13048">
        <ele>223.64</ele>
        <time>2020-08-19T15:10:39Z</time>
      </trkpt>
      <trkpt lat="48.78206" lon="6.1308">
        <ele>223.16</ele>
        <time>2020-08-19T15:10:48Z</time>
      </trkpt>
      <trkpt lat="48.78251" lon="6.13068">
        <ele>221.24</ele>
        <time>2020-08-19T15:10:59Z</time>
      </trkpt>
      <trkpt lat="48.78321" lon="6.13064">
        <ele>214.03</ele>
        <time>2020-08-19T15:11:12Z</time>
      </trkpt>
      <trkpt lat="48.78326" lon="6.13067">
        <ele>213.55</ele>
        <time>2020-08-19T15:11:13Z</time>
      </trkpt>
      <trkpt lat="48.78331" lon="6.1307">
        <ele>213.07</ele>
        <time>2020-08-19T15:11:14Z</time>
      </trkpt>
      <trkpt lat="48.78341" lon="6.13077">
        <ele>212.11</ele>
        <time>2020-08-19T15:11:16Z</time>
      </trkpt>
      <trkpt lat="48.78346" lon="6.13082">
        <ele>211.63</ele>
        <time>2020-08-19T15:11:17Z</time>
      </trkpt>
      <trkpt lat="48.7835" lon="6.13087">
        <ele>210.67</ele>
        <time>2020-08-19T15:11:18Z</time>
      </trkpt>
      <trkpt lat="48.78355" lon="6.13094">
        <ele>210.19</ele>
        <time>2020-08-19T15:11:19Z</time>
      </trkpt>
      <trkpt lat="48.78359" lon="6.131">
        <ele>209.7</ele>
        <time>2020-08-19T15:11:20Z</time>
      </trkpt>
      <trkpt lat="48.78392" lon="6.13171">
        <ele>204.9</ele>
        <time>2020-08-19T15:11:31Z</time>
      </trkpt>
      <trkpt lat="48.78438" lon="6.13267">
        <ele>200.57</ele>
        <time>2020-08-19T15:11:47Z</time>
      </trkpt>
      <trkpt lat="48.78477" lon="6.13333">
        <ele>199.61</ele>
        <time>2020-08-19T15:11:58Z</time>
      </trkpt>
      <trkpt lat="48.78484" lon="6.13342">
        <ele>199.61</ele>
        <time>2020-08-19T15:12:00Z</time>
      </trkpt>
      <trkpt lat="48.78488" lon="6.13347">
        <ele>199.13</ele>
        <time>2020-08-19T15:12:01Z</time>
      </trkpt>
      <trkpt lat="48.78495" lon="6.1336">
        <ele>199.13</ele>
        <time>2020-08-19T15:12:03Z</time>
      </trkpt>
      <trkpt lat="48.78558" lon="6.13454">
        <ele>198.65</ele>
        <time>2020-08-19T15:12:18Z</time>
      </trkpt>
      <trkpt lat="48.78605" lon="6.13515">
        <ele>198.17</ele>
        <time>2020-08-19T15:12:29Z</time>
      </trkpt>
      <trkpt lat="48.7867" lon="6.13596">
        <ele>199.13</ele>
        <time>2020-08-19T15:12:43Z</time>
      </trkpt>
      <trkpt lat="48.7875" lon="6.13708">
        <ele>198.17</ele>
        <time>2020-08-19T15:13:00Z</time>
      </trkpt>
      <trkpt lat="48.78782" lon="6.13773">
        <ele>197.69</ele>
        <time>2020-08-19T15:13:08Z</time>
      </trkpt>
      <trkpt lat="48.78786" lon="6.1378">
        <ele>197.69</ele>
        <time>2020-08-19T15:13:09Z</time>
      </trkpt>
      <trkpt lat="48.78817" lon="6.13824">
        <ele>197.21</ele>
        <time>2020-08-19T15:13:18Z</time>
      </trkpt>
      <trkpt lat="48.78821" lon="6.13826">
        <ele>197.21</ele>
        <time>2020-08-19T15:13:21Z</time>
      </trkpt>
      <trkpt lat="48.78823" lon="6.13829">
        <ele>197.21</ele>
        <time>2020-08-19T15:13:22Z</time>
      </trkpt>
      <trkpt lat="48.78825" lon="6.13832">
        <ele>197.21</ele>
        <time>2020-08-19T15:13:23Z</time>
      </trkpt>
      <trkpt lat="48.78825" lon="6.13844">
        <ele>196.73</ele>
        <time>2020-08-19T15:13:25Z</time>
      </trkpt>
      <trkpt lat="48.78822" lon="6.13862">
        <ele>196.73</ele>
        <time>2020-08-19T15:13:28Z</time>
      </trkpt>
      <trkpt lat="48.78825" lon="6.13869">
        <ele>196.73</ele>
        <time>2020-08-19T15:13:29Z</time>
      </trkpt>
      <trkpt lat="48.78827" lon="6.13875">
        <ele>197.21</ele>
        <time>2020-08-19T15:13:30Z</time>
      </trkpt>
      <trkpt lat="48.78831" lon="6.13883">
        <ele>196.73</ele>
        <time>2020-08-19T15:13:31Z</time>
      </trkpt>
      <trkpt lat="48.78888" lon="6.14004">
        <ele>197.21</ele>
        <time>2020-08-19T15:13:49Z</time>
      </trkpt>
      <trkpt lat="48.78941" lon="6.14128">
        <ele>196.25</ele>
        <time>2020-08-19T15:14:08Z</time>
      </trkpt>
      <trkpt lat="48.78979" lon="6.14223">
        <ele>194.32</ele>
        <time>2020-08-19T15:14:25Z</time>
      </trkpt>
      <trkpt lat="48.78989" lon="6.14248">
        <ele>193.36</ele>
        <time>2020-08-19T15:14:29Z</time>
      </trkpt>
      <trkpt lat="48.78992" lon="6.14253">
        <ele>193.36</ele>
        <time>2020-08-19T15:14:30Z</time>
      </trkpt>
      <trkpt lat="48.78994" lon="6.14259">
        <ele>192.88</ele>
        <time>2020-08-19T15:14:31Z</time>
      </trkpt>
      <trkpt lat="48.78995" lon="6.14263">
        <ele>192.88</ele>
        <time>2020-08-19T15:14:32Z</time>
      </trkpt>
      <trkpt lat="48.78995" lon="6.14266">
        <ele>192.88</ele>
        <time>2020-08-19T15:14:33Z</time>
      </trkpt>
      <trkpt lat="48.78994" lon="6.14268">
        <ele>192.88</ele>
        <time>2020-08-19T15:14:34Z</time>
      </trkpt>
      <trkpt lat="48.78992" lon="6.14271">
        <ele>192.88</ele>
        <time>2020-08-19T15:14:35Z</time>
      </trkpt>
      <trkpt lat="48.7899" lon="6.14275">
        <ele>192.88</ele>
        <time>2020-08-19T15:14:36Z</time>
      </trkpt>
      <trkpt lat="48.78988" lon="6.14281">
        <ele>192.4</ele>
        <time>2020-08-19T15:14:37Z</time>
      </trkpt>
      <trkpt lat="48.78987" lon="6.14287">
        <ele>192.4</ele>
        <time>2020-08-19T15:14:38Z</time>
      </trkpt>
      <trkpt lat="48.78985" lon="6.14295">
        <ele>192.4</ele>
        <time>2020-08-19T15:14:39Z</time>
      </trkpt>
      <trkpt lat="48.78983" lon="6.14301">
        <ele>192.88</ele>
        <time>2020-08-19T15:14:40Z</time>
      </trkpt>
      <trkpt lat="48.78982" lon="6.14305">
        <ele>192.88</ele>
        <time>2020-08-19T15:14:41Z</time>
      </trkpt>
      <trkpt lat="48.78975" lon="6.14345">
        <ele>194.8</ele>
        <time>2020-08-19T15:14:51Z</time>
      </trkpt>
      <trkpt lat="48.78999" lon="6.14422">
        <ele>196.73</ele>
        <time>2020-08-19T15:15:05Z</time>
      </trkpt>
      <trkpt lat="48.79052" lon="6.1449">
        <ele>197.21</ele>
        <time>2020-08-19T15:15:20Z</time>
      </trkpt>
      <trkpt lat="48.79059" lon="6.145">
        <ele>197.21</ele>
        <time>2020-08-19T15:15:22Z</time>
      </trkpt>
      <trkpt lat="48.79062" lon="6.14507">
        <ele>197.21</ele>
        <time>2020-08-19T15:15:23Z</time>
      </trkpt>
      <trkpt lat="48.79108" lon="6.14597">
        <ele>197.21</ele>
        <time>2020-08-19T15:15:38Z</time>
      </trkpt>
      <trkpt lat="48.79116" lon="6.14607">
        <ele>197.21</ele>
        <time>2020-08-19T15:15:40Z</time>
      </trkpt>
      <trkpt lat="48.7912" lon="6.14611">
        <ele>196.73</ele>
        <time>2020-08-19T15:15:41Z</time>
      </trkpt>
      <trkpt lat="48.79133" lon="6.14621">
        <ele>196.73</ele>
        <time>2020-08-19T15:15:44Z</time>
      </trkpt>
      <trkpt lat="48.79136" lon="6.14625">
        <ele>196.73</ele>
        <time>2020-08-19T15:15:45Z</time>
      </trkpt>
      <trkpt lat="48.79144" lon="6.14641">
        <ele>197.21</ele>
        <time>2020-08-19T15:15:49Z</time>
      </trkpt>
      <trkpt lat="48.79145" lon="6.14644">
        <ele>197.21</ele>
        <time>2020-08-19T15:15:50Z</time>
      </trkpt>
      <trkpt lat="48.79145" lon="6.14647">
        <ele>197.21</ele>
        <time>2020-08-19T15:15:51Z</time>
      </trkpt>
      <trkpt lat="48.79147" lon="6.14656">
        <ele>197.69</ele>
        <time>2020-08-19T15:15:53Z</time>
      </trkpt>
      <trkpt lat="48.79149" lon="6.1466">
        <ele>197.69</ele>
        <time>2020-08-19T15:15:54Z</time>
      </trkpt>
      <trkpt lat="48.79167" lon="6.14694">
        <ele>200.09</ele>
        <time>2020-08-19T15:16:01Z</time>
      </trkpt>
      <trkpt lat="48.79197" lon="6.14749">
        <ele>203.46</ele>
        <time>2020-08-19T15:16:13Z</time>
      </trkpt>
      <trkpt lat="48.79219" lon="6.14813">
        <ele>204.42</ele>
        <time>2020-08-19T15:16:24Z</time>
      </trkpt>
      <trkpt lat="48.79227" lon="6.14838">
        <ele>205.38</ele>
        <time>2020-08-19T15:16:28Z</time>
      </trkpt>
      <trkpt lat="48.79249" lon="6.14933">
        <ele>205.38</ele>
        <time>2020-08-19T15:16:43Z</time>
      </trkpt>
      <trkpt lat="48.79255" lon="6.14965">
        <ele>205.86</ele>
        <time>2020-08-19T15:16:48Z</time>
      </trkpt>
      <trkpt lat="48.79257" lon="6.14985">
        <ele>205.86</ele>
        <time>2020-08-19T15:16:51Z</time>
      </trkpt>
      <trkpt lat="48.79258" lon="6.14991">
        <ele>205.86</ele>
        <time>2020-08-19T15:16:52Z</time>
      </trkpt>
      <trkpt lat="48.79259" lon="6.14998">
        <ele>205.86</ele>
        <time>2020-08-19T15:16:53Z</time>
      </trkpt>
      <trkpt lat="48.79264" lon="6.15121">
        <ele>205.38</ele>
        <time>2020-08-19T15:17:10Z</time>
      </trkpt>
      <trkpt lat="48.79264" lon="6.15219">
        <ele>207.78</ele>
        <time>2020-08-19T15:17:23Z</time>
      </trkpt>
      <trkpt lat="48.79264" lon="6.15344">
        <ele>209.7</ele>
        <time>2020-08-19T15:17:37Z</time>
      </trkpt>
      <trkpt lat="48.79263" lon="6.1546">
        <ele>208.74</ele>
        <time>2020-08-19T15:17:50Z</time>
      </trkpt>
      <trkpt lat="48.79263" lon="6.15534">
        <ele>208.74</ele>
        <time>2020-08-19T15:17:59Z</time>
      </trkpt>
      <trkpt lat="48.79264" lon="6.15549">
        <ele>208.74</ele>
        <time>2020-08-19T15:18:01Z</time>
      </trkpt>
      <trkpt lat="48.79271" lon="6.15627">
        <ele>210.67</ele>
        <time>2020-08-19T15:18:12Z</time>
      </trkpt>
      <trkpt lat="48.79273" lon="6.15633">
        <ele>210.67</ele>
        <time>2020-08-19T15:18:13Z</time>
      </trkpt>
      <trkpt lat="48.79274" lon="6.1564">
        <ele>211.15</ele>
        <time>2020-08-19T15:18:14Z</time>
      </trkpt>
      <trkpt lat="48.79288" lon="6.15746">
        <ele>212.59</ele>
        <time>2020-08-19T15:18:29Z</time>
      </trkpt>
      <trkpt lat="48.79296" lon="6.15813">
        <ele>212.59</ele>
        <time>2020-08-19T15:18:39Z</time>
      </trkpt>
      <trkpt lat="48.79297" lon="6.1582">
        <ele>212.59</ele>
        <time>2020-08-19T15:18:40Z</time>
      </trkpt>
      <trkpt lat="48.79308" lon="6.15938">
        <ele>211.63</ele>
        <time>2020-08-19T15:18:57Z</time>
      </trkpt>
      <trkpt lat="48.79308" lon="6.15959">
        <ele>212.11</ele>
        <time>2020-08-19T15:19:00Z</time>
      </trkpt>
      <trkpt lat="48.79308" lon="6.16048">
        <ele>212.59</ele>
        <time>2020-08-19T15:19:13Z</time>
      </trkpt>
      <trkpt lat="48.79303" lon="6.16121">
        <ele>213.55</ele>
        <time>2020-08-19T15:19:25Z</time>
      </trkpt>
      <trkpt lat="48.79304" lon="6.16124">
        <ele>213.55</ele>
        <time>2020-08-19T15:19:26Z</time>
      </trkpt>
      <trkpt lat="48.79305" lon="6.16126">
        <ele>214.03</ele>
        <time>2020-08-19T15:19:27Z</time>
      </trkpt>
      <trkpt lat="48.79306" lon="6.16129">
        <ele>214.03</ele>
        <time>2020-08-19T15:19:28Z</time>
      </trkpt>
      <trkpt lat="48.79306" lon="6.16133">
        <ele>214.03</ele>
        <time>2020-08-19T15:19:29Z</time>
      </trkpt>
      <trkpt lat="48.79306" lon="6.16139">
        <ele>214.03</ele>
        <time>2020-08-19T15:19:30Z</time>
      </trkpt>
      <trkpt lat="48.79305" lon="6.16145">
        <ele>214.03</ele>
        <time>2020-08-19T15:19:31Z</time>
      </trkpt>
      <trkpt lat="48.79304" lon="6.16151">
        <ele>214.03</ele>
        <time>2020-08-19T15:19:32Z</time>
      </trkpt>
      <trkpt lat="48.793" lon="6.16215">
        <ele>214.51</ele>
        <time>2020-08-19T15:19:42Z</time>
      </trkpt>
      <trkpt lat="48.793" lon="6.16236">
        <ele>214.51</ele>
        <time>2020-08-19T15:19:45Z</time>
      </trkpt>
      <trkpt lat="48.79296" lon="6.16273">
        <ele>213.55</ele>
        <time>2020-08-19T15:19:50Z</time>
      </trkpt>
      <trkpt lat="48.79294" lon="6.16279">
        <ele>213.55</ele>
        <time>2020-08-19T15:19:51Z</time>
      </trkpt>
      <trkpt lat="48.79293" lon="6.16292">
        <ele>213.55</ele>
        <time>2020-08-19T15:19:53Z</time>
      </trkpt>
      <trkpt lat="48.79293" lon="6.16298">
        <ele>213.55</ele>
        <time>2020-08-19T15:19:54Z</time>
      </trkpt>
      <trkpt lat="48.79293" lon="6.16302">
        <ele>213.07</ele>
        <time>2020-08-19T15:19:55Z</time>
      </trkpt>
      <trkpt lat="48.79293" lon="6.16305">
        <ele>213.07</ele>
        <time>2020-08-19T15:19:56Z</time>
      </trkpt>
      <trkpt lat="48.79293" lon="6.16307">
        <ele>213.07</ele>
        <time>2020-08-19T15:19:57Z</time>
      </trkpt>
      <trkpt lat="48.79294" lon="6.1631">
        <ele>212.59</ele>
        <time>2020-08-19T15:19:58Z</time>
      </trkpt>
      <trkpt lat="48.79297" lon="6.16313">
        <ele>212.11</ele>
        <time>2020-08-19T15:19:59Z</time>
      </trkpt>
      <trkpt lat="48.793" lon="6.16315">
        <ele>211.63</ele>
        <time>2020-08-19T15:20:00Z</time>
      </trkpt>
      <trkpt lat="48.79304" lon="6.16316">
        <ele>211.63</ele>
        <time>2020-08-19T15:20:01Z</time>
      </trkpt>
      <trkpt lat="48.79309" lon="6.16317">
        <ele>211.15</ele>
        <time>2020-08-19T15:20:02Z</time>
      </trkpt>
      <trkpt lat="48.79331" lon="6.16324">
        <ele>211.15</ele>
        <time>2020-08-19T15:20:06Z</time>
      </trkpt>
      <trkpt lat="48.79337" lon="6.16327">
        <ele>211.15</ele>
        <time>2020-08-19T15:20:07Z</time>
      </trkpt>
      <trkpt lat="48.79348" lon="6.16335">
        <ele>210.67</ele>
        <time>2020-08-19T15:20:09Z</time>
      </trkpt>
      <trkpt lat="48.79354" lon="6.16337">
        <ele>210.67</ele>
        <time>2020-08-19T15:20:10Z</time>
      </trkpt>
      <trkpt lat="48.7936" lon="6.16338">
        <ele>210.67</ele>
        <time>2020-08-19T15:20:11Z</time>
      </trkpt>
      <trkpt lat="48.79377" lon="6.16339">
        <ele>210.67</ele>
        <time>2020-08-19T15:20:14Z</time>
      </trkpt>
      <trkpt lat="48.79382" lon="6.16338">
        <ele>211.15</ele>
        <time>2020-08-19T15:20:15Z</time>
      </trkpt>
      <trkpt lat="48.79385" lon="6.16336">
        <ele>211.15</ele>
        <time>2020-08-19T15:20:16Z</time>
      </trkpt>
      <trkpt lat="48.79394" lon="6.16331">
        <ele>211.15</ele>
        <time>2020-08-19T15:20:18Z</time>
      </trkpt>
      <trkpt lat="48.79398" lon="6.16327">
        <ele>211.63</ele>
        <time>2020-08-19T15:20:19Z</time>
      </trkpt>
      <trkpt lat="48.79402" lon="6.16323">
        <ele>211.15</ele>
        <time>2020-08-19T15:20:20Z</time>
      </trkpt>
      <trkpt lat="48.79406" lon="6.1632">
        <ele>211.15</ele>
        <time>2020-08-19T15:20:21Z</time>
      </trkpt>
      <trkpt lat="48.7941" lon="6.16321">
        <ele>211.15</ele>
        <time>2020-08-19T15:20:22Z</time>
      </trkpt>
      <trkpt lat="48.79413" lon="6.16326">
        <ele>211.15</ele>
        <time>2020-08-19T15:20:23Z</time>
      </trkpt>
      <trkpt lat="48.79414" lon="6.16333">
        <ele>210.67</ele>
        <time>2020-08-19T15:20:24Z</time>
      </trkpt>
      <trkpt lat="48.79414" lon="6.16339">
        <ele>210.67</ele>
        <time>2020-08-19T15:20:25Z</time>
      </trkpt>
      <trkpt lat="48.79413" lon="6.16345">
        <ele>210.67</ele>
        <time>2020-08-19T15:20:26Z</time>
      </trkpt>
      <trkpt lat="48.79408" lon="6.1638">
        <ele>210.19</ele>
        <time>2020-08-19T15:20:31Z</time>
      </trkpt>
      <trkpt lat="48.79403" lon="6.16409">
        <ele>210.67</ele>
        <time>2020-08-19T15:20:35Z</time>
      </trkpt>
      <trkpt lat="48.79397" lon="6.1643">
        <ele>210.67</ele>
        <time>2020-08-19T15:20:38Z</time>
      </trkpt>
      <trkpt lat="48.79372" lon="6.16541">
        <ele>211.15</ele>
        <time>2020-08-19T15:20:53Z</time>
      </trkpt>
      <trkpt lat="48.79367" lon="6.16562">
        <ele>211.15</ele>
        <time>2020-08-19T15:20:56Z</time>
      </trkpt>
      <trkpt lat="48.79363" lon="6.16575">
        <ele>211.63</ele>
        <time>2020-08-19T15:20:58Z</time>
      </trkpt>
      <trkpt lat="48.79362" lon="6.16582">
        <ele>211.63</ele>
        <time>2020-08-19T15:20:59Z</time>
      </trkpt>
      <trkpt lat="48.79347" lon="6.16684">
        <ele>213.55</ele>
        <time>2020-08-19T15:21:15Z</time>
      </trkpt>
      <trkpt lat="48.79342" lon="6.16706">
        <ele>213.55</ele>
        <time>2020-08-19T15:21:20Z</time>
      </trkpt>
      <trkpt lat="48.79343" lon="6.1671">
        <ele>213.55</ele>
        <time>2020-08-19T15:21:21Z</time>
      </trkpt>
      <trkpt lat="48.79344" lon="6.16712">
        <ele>213.55</ele>
        <time>2020-08-19T15:21:22Z</time>
      </trkpt>
      <trkpt lat="48.79349" lon="6.16714">
        <ele>214.03</ele>
        <time>2020-08-19T15:21:31Z</time>
      </trkpt>
      <trkpt lat="48.79349" lon="6.16713">
        <ele>216.43</ele>
        <time>2020-08-19T15:22:04Z</time>
      </trkpt>
      <trkpt lat="48.7935" lon="6.16714">
        <ele>215.95</ele>
        <time>2020-08-19T15:22:42Z</time>
      </trkpt>
      <trkpt lat="48.7935" lon="6.16714">
        <ele>214.99</ele>
        <time>2020-08-19T15:23:09Z</time>
      </trkpt>
      <trkpt lat="48.79349" lon="6.16715">
        <ele>214.51</ele>
        <time>2020-08-19T15:23:39Z</time>
      </trkpt>
      <trkpt lat="48.79349" lon="6.16715">
        <ele>215.47</ele>
        <time>2020-08-19T15:23:53Z</time>
      </trkpt>
      <trkpt lat="48.79349" lon="6.16715">
        <ele>215.95</ele>
        <time>2020-08-19T15:24:03Z</time>
      </trkpt>
      <trkpt lat="48.79349" lon="6.16714">
        <ele>216.91</ele>
        <time>2020-08-19T15:24:13Z</time>
      </trkpt>
      <trkpt lat="48.7935" lon="6.16714">
        <ele>216.91</ele>
        <time>2020-08-19T15:24:23Z</time>
      </trkpt>
      <trkpt lat="48.7936" lon="6.16717">
        <ele>220.76</ele>
        <time>2020-08-20T16:20:56Z</time>
      </trkpt>
      <trkpt lat="48.79354" lon="6.16715">
        <ele>220.76</ele>
        <time>2020-08-20T16:21:18Z</time>
      </trkpt>
      <trkpt lat="48.79359" lon="6.1672">
        <ele>206.34</ele>
        <time>2020-08-20T16:21:53Z</time>
      </trkpt>
      <trkpt lat="48.79361" lon="6.16718">
        <ele>196.73</ele>
        <time>2020-08-20T16:22:33Z</time>
      </trkpt>
      <trkpt lat="48.7936" lon="6.16715">
        <ele>192.4</ele>
        <time>2020-08-20T16:23:11Z</time>
      </trkpt>
      <trkpt lat="48.79358" lon="6.16716">
        <ele>196.73</ele>
        <time>2020-08-20T16:23:48Z</time>
      </trkpt>
      <trkpt lat="48.79359" lon="6.16716">
        <ele>199.13</ele>
        <time>2020-08-20T16:24:19Z</time>
      </trkpt>
      <trkpt lat="48.7936" lon="6.16721">
        <ele>200.09</ele>
        <time>2020-08-20T16:24:55Z</time>
      </trkpt>
      <trkpt lat="48.79359" lon="6.16721">
        <ele>203.46</ele>
        <time>2020-08-20T16:25:30Z</time>
      </trkpt>
      <trkpt lat="48.79355" lon="6.16721">
        <ele>207.78</ele>
        <time>2020-08-20T16:25:57Z</time>
      </trkpt>
      <trkpt lat="48.79356" lon="6.16726">
        <ele>209.22</ele>
        <time>2020-08-20T16:26:16Z</time>
      </trkpt>
      <trkpt lat="48.79354" lon="6.16728">
        <ele>209.22</ele>
        <time>2020-08-20T16:26:21Z</time>
      </trkpt>
      <trkpt lat="48.79354" lon="6.16726">
        <ele>208.26</ele>
        <time>2020-08-20T16:26:38Z</time>
      </trkpt>
      <trkpt lat="48.79353" lon="6.16725">
        <ele>201.05</ele>
        <time>2020-08-20T16:27:08Z</time>
      </trkpt>
      <trkpt lat="48.79354" lon="6.16726">
        <ele>201.05</ele>
        <time>2020-08-20T16:27:49Z</time>
      </trkpt>
      <trkpt lat="48.79354" lon="6.16728">
        <ele>200.09</ele>
        <time>2020-08-20T16:28:21Z</time>
      </trkpt>
      <trkpt lat="48.79354" lon="6.16733">
        <ele>203.94</ele>
        <time>2020-08-20T16:28:46Z</time>
      </trkpt>
      <trkpt lat="48.79354" lon="6.16733">
        <ele>203.46</ele>
        <time>2020-08-20T16:28:50Z</time>
      </trkpt>
    </trkseg>
  </trk>
</gpx>